<?xml version="1.0" encoding="UTF-8" standalone="no" ?>
<gpx xmlns="http://www.topografix.com/GPX/1/1" xmlns:xsi="http://www.w3.org/2001/XMLSchema-instance" xsi:schemaLocation="http://www.topografix.com/GPX/1/1 http://www.topografix.com/GPX/1/1/gpx.xsd" version="1.1" creator="VisuGPX - https://www.visugpx.com">
  <metadata>
    <name>Base VRTT Gevaudan Lagogne</name>
  </metadata>
  <trk>
    <name><![CDATA[ESI0331 - LE TOUR DU LAC]]></name>
    <extensions>
      <line xmlns="http://www.topografix.com/GPX/gpx_style/0/2">
        <color>0d0202</color>
        <width>4</width>
      </line>
    </extensions>
    <trkseg>
      <trkpt lat="44.73568" lon="3.83474">
        <ele>944.93463134766</ele>
        <time>2020-10-16T12:33:34.000Z</time>
      </trkpt>
      <trkpt lat="44.73541" lon="3.83478">
        <ele>943.54052734375</ele>
        <time>2020-10-16T12:33:34.005Z</time>
      </trkpt>
      <trkpt lat="44.73531" lon="3.83483">
        <ele>943.69958496094</ele>
        <time>2020-10-16T12:33:34.012Z</time>
      </trkpt>
      <trkpt lat="44.73519" lon="3.83491">
        <ele>944.3291015625</ele>
        <time>2020-10-16T12:33:34.022Z</time>
      </trkpt>
      <trkpt lat="44.73504" lon="3.83501">
        <ele>945.11895751953</ele>
        <time>2020-10-16T12:33:34.035Z</time>
      </trkpt>
      <trkpt lat="44.73495" lon="3.83506">
        <ele>945.51928710938</ele>
        <time>2020-10-16T12:33:34.050Z</time>
      </trkpt>
      <trkpt lat="44.73486" lon="3.8351">
        <ele>945.85833740234</ele>
        <time>2020-10-16T12:33:34.067Z</time>
      </trkpt>
      <trkpt lat="44.73473" lon="3.8351">
        <ele>946.02722167969</ele>
        <time>2020-10-16T12:33:34.087Z</time>
      </trkpt>
      <trkpt lat="44.73461" lon="3.8351">
        <ele>946.18176269531</ele>
        <time>2020-10-16T12:33:34.109Z</time>
      </trkpt>
      <trkpt lat="44.73457" lon="3.8351">
        <ele>946.244140625</ele>
        <time>2020-10-16T12:33:34.132Z</time>
      </trkpt>
      <trkpt lat="44.73447" lon="3.83511">
        <ele>946.32562255859</ele>
        <time>2020-10-16T12:33:34.157Z</time>
      </trkpt>
      <trkpt lat="44.73401" lon="3.83528">
        <ele>946.23126220703</ele>
        <time>2020-10-16T12:33:34.192Z</time>
      </trkpt>
      <trkpt lat="44.73323" lon="3.83558">
        <ele>945.86169433594</ele>
        <time>2020-10-16T12:33:34.243Z</time>
      </trkpt>
      <trkpt lat="44.73267" lon="3.83581">
        <ele>948.82830810547</ele>
        <time>2020-10-16T12:33:34.305Z</time>
      </trkpt>
      <trkpt lat="44.73262" lon="3.83583">
        <ele>949.18493652344</ele>
        <time>2020-10-16T12:33:34.369Z</time>
      </trkpt>
      <trkpt lat="44.73256" lon="3.83586">
        <ele>949.58776855469</ele>
        <time>2020-10-16T12:33:34.434Z</time>
      </trkpt>
      <trkpt lat="44.73246" lon="3.83588">
        <ele>950.13427734375</ele>
        <time>2020-10-16T12:33:34.501Z</time>
      </trkpt>
      <trkpt lat="44.73232" lon="3.83592">
        <ele>950.89080810547</ele>
        <time>2020-10-16T12:33:34.571Z</time>
      </trkpt>
      <trkpt lat="44.73238" lon="3.83603">
        <ele>951.94189453125</ele>
        <time>2020-10-16T12:33:34.643Z</time>
      </trkpt>
      <trkpt lat="44.73222" lon="3.83607">
        <ele>952.734375</ele>
        <time>2020-10-16T12:33:34.718Z</time>
      </trkpt>
      <trkpt lat="44.7319" lon="3.83615">
        <ele>953.48663330078</ele>
        <time>2020-10-16T12:33:34.800Z</time>
      </trkpt>
      <trkpt lat="44.73162" lon="3.83622">
        <ele>953.2490234375</ele>
        <time>2020-10-16T12:33:34.887Z</time>
      </trkpt>
      <trkpt lat="44.73113" lon="3.83633">
        <ele>954.04766845703</ele>
        <time>2020-10-16T12:33:34.984Z</time>
      </trkpt>
      <trkpt lat="44.73075" lon="3.83641">
        <ele>954.38580322266</ele>
        <time>2020-10-16T12:33:35.089Z</time>
      </trkpt>
      <trkpt lat="44.73045" lon="3.83648">
        <ele>955.55114746094</ele>
        <time>2020-10-16T12:33:35.200Z</time>
      </trkpt>
      <trkpt lat="44.73009" lon="3.83658">
        <ele>957.33215332031</ele>
        <time>2020-10-16T12:33:35.318Z</time>
      </trkpt>
      <trkpt lat="44.72966" lon="3.83672">
        <ele>956.60870361328</ele>
        <time>2020-10-16T12:33:35.445Z</time>
      </trkpt>
      <trkpt lat="44.72911" lon="3.83687">
        <ele>957.82696533203</ele>
        <time>2020-10-16T12:33:35.583Z</time>
      </trkpt>
      <trkpt lat="44.72855" lon="3.837">
        <ele>959.35211181641</ele>
        <time>2020-10-16T12:33:35.733Z</time>
      </trkpt>
      <trkpt lat="44.72773" lon="3.8372">
        <ele>959.37756347656</ele>
        <time>2020-10-16T12:33:35.899Z</time>
      </trkpt>
      <trkpt lat="44.72699" lon="3.83739">
        <ele>958.49322509766</ele>
        <time>2020-10-16T12:33:36.080Z</time>
      </trkpt>
      <trkpt lat="44.72685" lon="3.83743">
        <ele>958.38806152344</ele>
        <time>2020-10-16T12:33:36.264Z</time>
      </trkpt>
      <trkpt lat="44.72674" lon="3.83747">
        <ele>958.34869384766</ele>
        <time>2020-10-16T12:33:36.451Z</time>
      </trkpt>
      <trkpt lat="44.72641" lon="3.83765">
        <ele>957.05908203125</ele>
        <time>2020-10-16T12:33:36.645Z</time>
      </trkpt>
      <trkpt lat="44.72629" lon="3.83772">
        <ele>956.72845458984</ele>
        <time>2020-10-16T12:33:36.841Z</time>
      </trkpt>
      <trkpt lat="44.72619" lon="3.8378">
        <ele>956.6455078125</ele>
        <time>2020-10-16T12:33:37.039Z</time>
      </trkpt>
      <trkpt lat="44.72565" lon="3.83832">
        <ele>957.42761230469</ele>
        <time>2020-10-16T12:33:37.251Z</time>
      </trkpt>
      <trkpt lat="44.72528" lon="3.83875">
        <ele>959.15979003906</ele>
        <time>2020-10-16T12:33:37.472Z</time>
      </trkpt>
      <trkpt lat="44.72498" lon="3.83915">
        <ele>961.09747314453</ele>
        <time>2020-10-16T12:33:37.701Z</time>
      </trkpt>
      <trkpt lat="44.72483" lon="3.83937">
        <ele>962.23657226562</ele>
        <time>2020-10-16T12:33:37.935Z</time>
      </trkpt>
      <trkpt lat="44.72481" lon="3.83943">
        <ele>962.40856933594</ele>
        <time>2020-10-16T12:33:38.170Z</time>
      </trkpt>
      <trkpt lat="44.7248" lon="3.83949">
        <ele>962.52056884766</ele>
        <time>2020-10-16T12:33:38.406Z</time>
      </trkpt>
      <trkpt lat="44.72477" lon="3.83952">
        <ele>962.41949462891</ele>
        <time>2020-10-16T12:33:38.643Z</time>
      </trkpt>
      <trkpt lat="44.72471" lon="3.8396">
        <ele>962.32086181641</ele>
        <time>2020-10-16T12:33:38.881Z</time>
      </trkpt>
      <trkpt lat="44.72466" lon="3.83968">
        <ele>962.25030517578</ele>
        <time>2020-10-16T12:33:39.121Z</time>
      </trkpt>
      <trkpt lat="44.72461" lon="3.83976">
        <ele>962.21466064453</ele>
        <time>2020-10-16T12:33:39.362Z</time>
      </trkpt>
      <trkpt lat="44.72455" lon="3.83985">
        <ele>962.17840576172</ele>
        <time>2020-10-16T12:33:39.605Z</time>
      </trkpt>
      <trkpt lat="44.7245" lon="3.83994">
        <ele>962.27575683594</ele>
        <time>2020-10-16T12:33:39.849Z</time>
      </trkpt>
      <trkpt lat="44.72445" lon="3.84006">
        <ele>962.50329589844</ele>
        <time>2020-10-16T12:33:40.095Z</time>
      </trkpt>
      <trkpt lat="44.72443" lon="3.84012">
        <ele>962.62078857422</ele>
        <time>2020-10-16T12:33:40.342Z</time>
      </trkpt>
      <trkpt lat="44.72433" lon="3.84041">
        <ele>962.77716064453</ele>
        <time>2020-10-16T12:33:40.594Z</time>
      </trkpt>
      <trkpt lat="44.72428" lon="3.84054">
        <ele>962.62243652344</ele>
        <time>2020-10-16T12:33:40.848Z</time>
      </trkpt>
      <trkpt lat="44.72423" lon="3.84063">
        <ele>962.51104736328</ele>
        <time>2020-10-16T12:33:41.104Z</time>
      </trkpt>
      <trkpt lat="44.72417" lon="3.84073">
        <ele>962.47705078125</ele>
        <time>2020-10-16T12:33:41.362Z</time>
      </trkpt>
      <trkpt lat="44.72411" lon="3.84082">
        <ele>962.74719238281</ele>
        <time>2020-10-16T12:33:41.621Z</time>
      </trkpt>
      <trkpt lat="44.72382" lon="3.8412">
        <ele>963.60211181641</ele>
        <time>2020-10-16T12:33:41.888Z</time>
      </trkpt>
      <trkpt lat="44.72368" lon="3.84137">
        <ele>964.11566162109</ele>
        <time>2020-10-16T12:33:42.159Z</time>
      </trkpt>
      <trkpt lat="44.72341" lon="3.84173">
        <ele>965.59051513672</ele>
        <time>2020-10-16T12:33:42.438Z</time>
      </trkpt>
      <trkpt lat="44.72338" lon="3.84165">
        <ele>965.66333007812</ele>
        <time>2020-10-16T12:33:42.718Z</time>
      </trkpt>
      <trkpt lat="44.72334" lon="3.84148">
        <ele>965.76953125</ele>
        <time>2020-10-16T12:33:43.000Z</time>
      </trkpt>
      <trkpt lat="44.72324" lon="3.84134">
        <ele>966.21020507812</ele>
        <time>2020-10-16T12:33:43.285Z</time>
      </trkpt>
      <trkpt lat="44.72314" lon="3.84115">
        <ele>966.70648193359</ele>
        <time>2020-10-16T12:33:43.573Z</time>
      </trkpt>
      <trkpt lat="44.72303" lon="3.84094">
        <ele>966.81335449219</ele>
        <time>2020-10-16T12:33:43.865Z</time>
      </trkpt>
      <trkpt lat="44.72299" lon="3.84086">
        <ele>966.71313476562</ele>
        <time>2020-10-16T12:33:44.159Z</time>
      </trkpt>
      <trkpt lat="44.72292" lon="3.8408">
        <ele>966.83355712891</ele>
        <time>2020-10-16T12:33:44.454Z</time>
      </trkpt>
      <trkpt lat="44.72281" lon="3.84077">
        <ele>967.341796875</ele>
        <time>2020-10-16T12:33:44.751Z</time>
      </trkpt>
      <trkpt lat="44.72266" lon="3.84069">
        <ele>967.91534423828</ele>
        <time>2020-10-16T12:33:45.052Z</time>
      </trkpt>
      <trkpt lat="44.72253" lon="3.84059">
        <ele>968.36932373047</ele>
        <time>2020-10-16T12:33:45.356Z</time>
      </trkpt>
      <trkpt lat="44.72238" lon="3.84047">
        <ele>968.84942626953</ele>
        <time>2020-10-16T12:33:45.663Z</time>
      </trkpt>
      <trkpt lat="44.7222" lon="3.84032">
        <ele>969.35955810547</ele>
        <time>2020-10-16T12:33:45.974Z</time>
      </trkpt>
      <trkpt lat="44.72204" lon="3.84017">
        <ele>969.93286132812</ele>
        <time>2020-10-16T12:33:46.289Z</time>
      </trkpt>
      <trkpt lat="44.72183" lon="3.84">
        <ele>970.72174072266</ele>
        <time>2020-10-16T12:33:46.609Z</time>
      </trkpt>
      <trkpt lat="44.72174" lon="3.83991">
        <ele>971.05847167969</ele>
        <time>2020-10-16T12:33:46.931Z</time>
      </trkpt>
      <trkpt lat="44.72161" lon="3.83979">
        <ele>971.53204345703</ele>
        <time>2020-10-16T12:33:47.256Z</time>
      </trkpt>
      <trkpt lat="44.72147" lon="3.83967">
        <ele>972.00695800781</ele>
        <time>2020-10-16T12:33:47.585Z</time>
      </trkpt>
      <trkpt lat="44.72133" lon="3.83955">
        <ele>972.4521484375</ele>
        <time>2020-10-16T12:33:47.917Z</time>
      </trkpt>
      <trkpt lat="44.72121" lon="3.83942">
        <ele>972.92254638672</ele>
        <time>2020-10-16T12:33:48.252Z</time>
      </trkpt>
      <trkpt lat="44.72102" lon="3.83927">
        <ele>973.64202880859</ele>
        <time>2020-10-16T12:33:48.591Z</time>
      </trkpt>
      <trkpt lat="44.72083" lon="3.83909">
        <ele>974.52557373047</ele>
        <time>2020-10-16T12:33:48.935Z</time>
      </trkpt>
      <trkpt lat="44.72074" lon="3.83901">
        <ele>974.92095947266</ele>
        <time>2020-10-16T12:33:49.281Z</time>
      </trkpt>
      <trkpt lat="44.72062" lon="3.8389">
        <ele>975.46899414062</ele>
        <time>2020-10-16T12:33:49.630Z</time>
      </trkpt>
      <trkpt lat="44.72045" lon="3.83875">
        <ele>976.20874023438</ele>
        <time>2020-10-16T12:33:49.983Z</time>
      </trkpt>
      <trkpt lat="44.72025" lon="3.83859">
        <ele>977.15740966797</ele>
        <time>2020-10-16T12:33:50.340Z</time>
      </trkpt>
      <trkpt lat="44.72006" lon="3.83841">
        <ele>977.74017333984</ele>
        <time>2020-10-16T12:33:50.702Z</time>
      </trkpt>
      <trkpt lat="44.71998" lon="3.83831">
        <ele>977.93267822266</ele>
        <time>2020-10-16T12:33:51.066Z</time>
      </trkpt>
      <trkpt lat="44.71991" lon="3.8382">
        <ele>978.10803222656</ele>
        <time>2020-10-16T12:33:51.432Z</time>
      </trkpt>
      <trkpt lat="44.71983" lon="3.83805">
        <ele>978.30529785156</ele>
        <time>2020-10-16T12:33:51.801Z</time>
      </trkpt>
      <trkpt lat="44.71967" lon="3.83785">
        <ele>978.66729736328</ele>
        <time>2020-10-16T12:33:52.174Z</time>
      </trkpt>
      <trkpt lat="44.71956" lon="3.8377">
        <ele>978.81707763672</ele>
        <time>2020-10-16T12:33:52.550Z</time>
      </trkpt>
      <trkpt lat="44.71932" lon="3.83744">
        <ele>977.97796630859</ele>
        <time>2020-10-16T12:33:52.932Z</time>
      </trkpt>
      <trkpt lat="44.71914" lon="3.83727">
        <ele>977.35522460938</ele>
        <time>2020-10-16T12:33:53.319Z</time>
      </trkpt>
      <trkpt lat="44.7189" lon="3.83703">
        <ele>976.50024414062</ele>
        <time>2020-10-16T12:33:53.712Z</time>
      </trkpt>
      <trkpt lat="44.71862" lon="3.83672">
        <ele>976.30120849609</ele>
        <time>2020-10-16T12:33:54.112Z</time>
      </trkpt>
      <trkpt lat="44.71832" lon="3.8364">
        <ele>977.04852294922</ele>
        <time>2020-10-16T12:33:54.519Z</time>
      </trkpt>
      <trkpt lat="44.71813" lon="3.83615">
        <ele>977.57275390625</ele>
        <time>2020-10-16T12:33:54.931Z</time>
      </trkpt>
      <trkpt lat="44.71801" lon="3.83601">
        <ele>977.72595214844</ele>
        <time>2020-10-16T12:33:55.347Z</time>
      </trkpt>
      <trkpt lat="44.71793" lon="3.83592">
        <ele>977.60046386719</ele>
        <time>2020-10-16T12:33:55.765Z</time>
      </trkpt>
      <trkpt lat="44.71778" lon="3.83571">
        <ele>977.51171875</ele>
        <time>2020-10-16T12:33:56.187Z</time>
      </trkpt>
      <trkpt lat="44.71757" lon="3.83547">
        <ele>977.66613769531</ele>
        <time>2020-10-16T12:33:56.614Z</time>
      </trkpt>
      <trkpt lat="44.71738" lon="3.83524">
        <ele>977.80242919922</ele>
        <time>2020-10-16T12:33:57.046Z</time>
      </trkpt>
      <trkpt lat="44.71723" lon="3.83507">
        <ele>978.66796875</ele>
        <time>2020-10-16T12:33:57.482Z</time>
      </trkpt>
      <trkpt lat="44.71702" lon="3.83489">
        <ele>979.90112304688</ele>
        <time>2020-10-16T12:33:57.923Z</time>
      </trkpt>
      <trkpt lat="44.71689" lon="3.83484">
        <ele>980.61047363281</ele>
        <time>2020-10-16T12:33:58.367Z</time>
      </trkpt>
      <trkpt lat="44.71675" lon="3.83483">
        <ele>981.30572509766</ele>
        <time>2020-10-16T12:33:58.814Z</time>
      </trkpt>
      <trkpt lat="44.71664" lon="3.83477">
        <ele>981.98907470703</ele>
        <time>2020-10-16T12:33:59.263Z</time>
      </trkpt>
      <trkpt lat="44.71651" lon="3.83466">
        <ele>982.86358642578</ele>
        <time>2020-10-16T12:33:59.715Z</time>
      </trkpt>
      <trkpt lat="44.71639" lon="3.83456">
        <ele>983.69561767578</ele>
        <time>2020-10-16T12:34:00.170Z</time>
      </trkpt>
      <trkpt lat="44.71627" lon="3.83437">
        <ele>984.72869873047</ele>
        <time>2020-10-16T12:34:00.628Z</time>
      </trkpt>
      <trkpt lat="44.71623" lon="3.83427">
        <ele>985.16131591797</ele>
        <time>2020-10-16T12:34:01.088Z</time>
      </trkpt>
      <trkpt lat="44.71616" lon="3.83412">
        <ele>985.71453857422</ele>
        <time>2020-10-16T12:34:01.551Z</time>
      </trkpt>
      <trkpt lat="44.71606" lon="3.83393">
        <ele>986.28234863281</ele>
        <time>2020-10-16T12:34:02.017Z</time>
      </trkpt>
      <trkpt lat="44.71599" lon="3.83381">
        <ele>986.63922119141</ele>
        <time>2020-10-16T12:34:02.485Z</time>
      </trkpt>
      <trkpt lat="44.7159" lon="3.83367">
        <ele>987.08642578125</ele>
        <time>2020-10-16T12:34:02.956Z</time>
      </trkpt>
      <trkpt lat="44.7158" lon="3.83353">
        <ele>987.61779785156</ele>
        <time>2020-10-16T12:34:03.430Z</time>
      </trkpt>
      <trkpt lat="44.71572" lon="3.83337">
        <ele>988.48883056641</ele>
        <time>2020-10-16T12:34:03.907Z</time>
      </trkpt>
      <trkpt lat="44.71562" lon="3.8332">
        <ele>989.41607666016</ele>
        <time>2020-10-16T12:34:04.387Z</time>
      </trkpt>
      <trkpt lat="44.7155" lon="3.83298">
        <ele>990.61358642578</ele>
        <time>2020-10-16T12:34:04.871Z</time>
      </trkpt>
      <trkpt lat="44.71539" lon="3.83274">
        <ele>991.87292480469</ele>
        <time>2020-10-16T12:34:05.359Z</time>
      </trkpt>
      <trkpt lat="44.71531" lon="3.83255">
        <ele>992.13391113281</ele>
        <time>2020-10-16T12:34:05.850Z</time>
      </trkpt>
      <trkpt lat="44.71522" lon="3.83233">
        <ele>992.29461669922</ele>
        <time>2020-10-16T12:34:06.344Z</time>
      </trkpt>
      <trkpt lat="44.71512" lon="3.8321">
        <ele>992.45782470703</ele>
        <time>2020-10-16T12:34:06.842Z</time>
      </trkpt>
      <trkpt lat="44.71505" lon="3.83195">
        <ele>992.53857421875</ele>
        <time>2020-10-16T12:34:07.343Z</time>
      </trkpt>
      <trkpt lat="44.71496" lon="3.83175">
        <ele>993.02319335938</ele>
        <time>2020-10-16T12:34:07.847Z</time>
      </trkpt>
      <trkpt lat="44.71484" lon="3.83142">
        <ele>994.07061767578</ele>
        <time>2020-10-16T12:34:08.356Z</time>
      </trkpt>
      <trkpt lat="44.71476" lon="3.83124">
        <ele>994.51458740234</ele>
        <time>2020-10-16T12:34:08.869Z</time>
      </trkpt>
      <trkpt lat="44.71464" lon="3.83096">
        <ele>994.87927246094</ele>
        <time>2020-10-16T12:34:09.386Z</time>
      </trkpt>
      <trkpt lat="44.71451" lon="3.83071">
        <ele>995.08557128906</ele>
        <time>2020-10-16T12:34:09.908Z</time>
      </trkpt>
      <trkpt lat="44.71435" lon="3.8304">
        <ele>995.66961669922</ele>
        <time>2020-10-16T12:34:10.435Z</time>
      </trkpt>
      <trkpt lat="44.71424" lon="3.83027">
        <ele>996.08392333984</ele>
        <time>2020-10-16T12:34:10.965Z</time>
      </trkpt>
      <trkpt lat="44.71415" lon="3.83018">
        <ele>996.43890380859</ele>
        <time>2020-10-16T12:34:11.497Z</time>
      </trkpt>
      <trkpt lat="44.71415" lon="3.83018">
        <ele>996.4482421875</ele>
        <time>2020-10-16T12:34:12.029Z</time>
      </trkpt>
      <trkpt lat="44.71406" lon="3.83011">
        <ele>996.85681152344</ele>
        <time>2020-10-16T12:34:12.563Z</time>
      </trkpt>
      <trkpt lat="44.71392" lon="3.83">
        <ele>997.46893310547</ele>
        <time>2020-10-16T12:34:13.100Z</time>
      </trkpt>
      <trkpt lat="44.71371" lon="3.82982">
        <ele>998.44830322266</ele>
        <time>2020-10-16T12:34:13.642Z</time>
      </trkpt>
      <trkpt lat="44.7135" lon="3.82956">
        <ele>999.04144287109</ele>
        <time>2020-10-16T12:34:14.190Z</time>
      </trkpt>
      <trkpt lat="44.71333" lon="3.82941">
        <ele>999.42150878906</ele>
        <time>2020-10-16T12:34:14.742Z</time>
      </trkpt>
      <trkpt lat="44.7133" lon="3.8294">
        <ele>999.47845458984</ele>
        <time>2020-10-16T12:34:15.295Z</time>
      </trkpt>
      <trkpt lat="44.71328" lon="3.8294">
        <ele>999.49664306641</ele>
        <time>2020-10-16T12:34:15.848Z</time>
      </trkpt>
      <trkpt lat="44.7133" lon="3.82925">
        <ele>999.99792480469</ele>
        <time>2020-10-16T12:34:16.403Z</time>
      </trkpt>
      <trkpt lat="44.71335" lon="3.82905">
        <ele>1000.639831543</ele>
        <time>2020-10-16T12:34:16.961Z</time>
      </trkpt>
      <trkpt lat="44.71343" lon="3.82877">
        <ele>1001.557800293</ele>
        <time>2020-10-16T12:34:17.523Z</time>
      </trkpt>
      <trkpt lat="44.71349" lon="3.82854">
        <ele>1002.3257446289</ele>
        <time>2020-10-16T12:34:18.089Z</time>
      </trkpt>
      <trkpt lat="44.71355" lon="3.82835">
        <ele>1002.8420410156</ele>
        <time>2020-10-16T12:34:18.658Z</time>
      </trkpt>
      <trkpt lat="44.71361" lon="3.82812">
        <ele>1003.2619628906</ele>
        <time>2020-10-16T12:34:19.230Z</time>
      </trkpt>
      <trkpt lat="44.7137" lon="3.82778">
        <ele>1003.8545532227</ele>
        <time>2020-10-16T12:34:19.807Z</time>
      </trkpt>
      <trkpt lat="44.71374" lon="3.82757">
        <ele>1003.6852416992</ele>
        <time>2020-10-16T12:34:20.388Z</time>
      </trkpt>
      <trkpt lat="44.7138" lon="3.82727">
        <ele>1003.0916137695</ele>
        <time>2020-10-16T12:34:20.973Z</time>
      </trkpt>
      <trkpt lat="44.71379" lon="3.82712">
        <ele>1003.1727905273</ele>
        <time>2020-10-16T12:34:21.560Z</time>
      </trkpt>
      <trkpt lat="44.71378" lon="3.82705">
        <ele>1003.3044433594</ele>
        <time>2020-10-16T12:34:22.148Z</time>
      </trkpt>
      <trkpt lat="44.71376" lon="3.82702">
        <ele>1003.439453125</ele>
        <time>2020-10-16T12:34:22.737Z</time>
      </trkpt>
      <trkpt lat="44.71379" lon="3.82692">
        <ele>1003.2447509766</ele>
        <time>2020-10-16T12:34:23.327Z</time>
      </trkpt>
      <trkpt lat="44.71381" lon="3.82678">
        <ele>1003.134765625</ele>
        <time>2020-10-16T12:34:23.919Z</time>
      </trkpt>
      <trkpt lat="44.71381" lon="3.82657">
        <ele>1003.1013793945</ele>
        <time>2020-10-16T12:34:24.514Z</time>
      </trkpt>
      <trkpt lat="44.71379" lon="3.82638">
        <ele>1003.2496948242</ele>
        <time>2020-10-16T12:34:25.112Z</time>
      </trkpt>
      <trkpt lat="44.71378" lon="3.82608">
        <ele>1003.5548095703</ele>
        <time>2020-10-16T12:34:25.714Z</time>
      </trkpt>
      <trkpt lat="44.71377" lon="3.82575">
        <ele>1004.0657348633</ele>
        <time>2020-10-16T12:34:26.321Z</time>
      </trkpt>
      <trkpt lat="44.71377" lon="3.8256">
        <ele>1004.2329711914</ele>
        <time>2020-10-16T12:34:26.930Z</time>
      </trkpt>
      <trkpt lat="44.71387" lon="3.82556">
        <ele>1003.8016357422</ele>
        <time>2020-10-16T12:34:27.541Z</time>
      </trkpt>
      <trkpt lat="44.71394" lon="3.82553">
        <ele>1003.4848632812</ele>
        <time>2020-10-16T12:34:28.154Z</time>
      </trkpt>
      <trkpt lat="44.71399" lon="3.82549">
        <ele>1003.3668823242</ele>
        <time>2020-10-16T12:34:28.768Z</time>
      </trkpt>
      <trkpt lat="44.71402" lon="3.82537">
        <ele>1004.1256713867</ele>
        <time>2020-10-16T12:34:29.384Z</time>
      </trkpt>
      <trkpt lat="44.71405" lon="3.82526">
        <ele>1004.7645874023</ele>
        <time>2020-10-16T12:34:30.001Z</time>
      </trkpt>
      <trkpt lat="44.7141" lon="3.82509">
        <ele>1005.3207397461</ele>
        <time>2020-10-16T12:34:30.621Z</time>
      </trkpt>
      <trkpt lat="44.71421" lon="3.82494">
        <ele>1005.6695556641</ele>
        <time>2020-10-16T12:34:31.244Z</time>
      </trkpt>
      <trkpt lat="44.71436" lon="3.82492">
        <ele>1005.8698120117</ele>
        <time>2020-10-16T12:34:31.870Z</time>
      </trkpt>
      <trkpt lat="44.71448" lon="3.82493">
        <ele>1005.9795532227</ele>
        <time>2020-10-16T12:34:32.498Z</time>
      </trkpt>
      <trkpt lat="44.71462" lon="3.82495">
        <ele>1005.9707641602</ele>
        <time>2020-10-16T12:34:33.129Z</time>
      </trkpt>
      <trkpt lat="44.71483" lon="3.82502">
        <ele>1005.7313232422</ele>
        <time>2020-10-16T12:34:33.765Z</time>
      </trkpt>
      <trkpt lat="44.71508" lon="3.82505">
        <ele>1005.6218261719</ele>
        <time>2020-10-16T12:34:34.406Z</time>
      </trkpt>
      <trkpt lat="44.71529" lon="3.82507">
        <ele>1005.5505371094</ele>
        <time>2020-10-16T12:34:35.051Z</time>
      </trkpt>
      <trkpt lat="44.71554" lon="3.82504">
        <ele>1005.8579101562</ele>
        <time>2020-10-16T12:34:35.701Z</time>
      </trkpt>
      <trkpt lat="44.7157" lon="3.825">
        <ele>1006.1910400391</ele>
        <time>2020-10-16T12:34:36.354Z</time>
      </trkpt>
      <trkpt lat="44.71605" lon="3.82492">
        <ele>1007.2310791016</ele>
        <time>2020-10-16T12:34:37.014Z</time>
      </trkpt>
      <trkpt lat="44.7163" lon="3.82486">
        <ele>1007.9078369141</ele>
        <time>2020-10-16T12:34:37.679Z</time>
      </trkpt>
      <trkpt lat="44.71639" lon="3.82484">
        <ele>1007.8602905273</ele>
        <time>2020-10-16T12:34:38.346Z</time>
      </trkpt>
      <trkpt lat="44.7165" lon="3.82478">
        <ele>1007.9414672852</ele>
        <time>2020-10-16T12:34:39.015Z</time>
      </trkpt>
      <trkpt lat="44.71666" lon="3.82477">
        <ele>1007.6044311523</ele>
        <time>2020-10-16T12:34:39.688Z</time>
      </trkpt>
      <trkpt lat="44.71679" lon="3.82485">
        <ele>1006.8508300781</ele>
        <time>2020-10-16T12:34:40.363Z</time>
      </trkpt>
      <trkpt lat="44.7169" lon="3.82496">
        <ele>1005.8930053711</ele>
        <time>2020-10-16T12:34:41.041Z</time>
      </trkpt>
      <trkpt lat="44.71698" lon="3.82505">
        <ele>1005.1979980469</ele>
        <time>2020-10-16T12:34:41.721Z</time>
      </trkpt>
      <trkpt lat="44.71705" lon="3.82505">
        <ele>1005.0121459961</ele>
        <time>2020-10-16T12:34:42.403Z</time>
      </trkpt>
      <trkpt lat="44.71716" lon="3.82506">
        <ele>1004.8018188477</ele>
        <time>2020-10-16T12:34:43.087Z</time>
      </trkpt>
      <trkpt lat="44.71725" lon="3.82504">
        <ele>1004.8145141602</ele>
        <time>2020-10-16T12:34:43.773Z</time>
      </trkpt>
      <trkpt lat="44.71744" lon="3.82497">
        <ele>1005.0524291992</ele>
        <time>2020-10-16T12:34:44.463Z</time>
      </trkpt>
      <trkpt lat="44.71755" lon="3.82488">
        <ele>1005.396484375</ele>
        <time>2020-10-16T12:34:45.155Z</time>
      </trkpt>
      <trkpt lat="44.71767" lon="3.82477">
        <ele>1005.3586425781</ele>
        <time>2020-10-16T12:34:45.850Z</time>
      </trkpt>
      <trkpt lat="44.7178" lon="3.82464">
        <ele>1005.3336791992</ele>
        <time>2020-10-16T12:34:46.548Z</time>
      </trkpt>
      <trkpt lat="44.71791" lon="3.82456">
        <ele>1005.0965576172</ele>
        <time>2020-10-16T12:34:47.249Z</time>
      </trkpt>
      <trkpt lat="44.71817" lon="3.82439">
        <ele>1004.9449462891</ele>
        <time>2020-10-16T12:34:47.955Z</time>
      </trkpt>
      <trkpt lat="44.71832" lon="3.82425">
        <ele>1005.5153198242</ele>
        <time>2020-10-16T12:34:48.665Z</time>
      </trkpt>
      <trkpt lat="44.71846" lon="3.82418">
        <ele>1005.5972900391</ele>
        <time>2020-10-16T12:34:49.378Z</time>
      </trkpt>
      <trkpt lat="44.71864" lon="3.82408">
        <ele>1004.9396362305</ele>
        <time>2020-10-16T12:34:50.095Z</time>
      </trkpt>
      <trkpt lat="44.71876" lon="3.82401">
        <ele>1004.2416381836</ele>
        <time>2020-10-16T12:34:50.814Z</time>
      </trkpt>
      <trkpt lat="44.71897" lon="3.82393">
        <ele>1002.3317871094</ele>
        <time>2020-10-16T12:34:51.538Z</time>
      </trkpt>
      <trkpt lat="44.71909" lon="3.8239">
        <ele>1001.1626586914</ele>
        <time>2020-10-16T12:34:52.264Z</time>
      </trkpt>
      <trkpt lat="44.71925" lon="3.82385">
        <ele>999.34655761719</ele>
        <time>2020-10-16T12:34:52.994Z</time>
      </trkpt>
      <trkpt lat="44.71961" lon="3.82364">
        <ele>995.92663574219</ele>
        <time>2020-10-16T12:34:53.731Z</time>
      </trkpt>
      <trkpt lat="44.71968" lon="3.82359">
        <ele>995.46118164062</ele>
        <time>2020-10-16T12:34:54.470Z</time>
      </trkpt>
      <trkpt lat="44.71974" lon="3.82352">
        <ele>995.34991455078</ele>
        <time>2020-10-16T12:34:55.210Z</time>
      </trkpt>
      <trkpt lat="44.71983" lon="3.8234">
        <ele>995.53271484375</ele>
        <time>2020-10-16T12:34:55.953Z</time>
      </trkpt>
      <trkpt lat="44.71998" lon="3.82317">
        <ele>995.95629882812</ele>
        <time>2020-10-16T12:34:56.700Z</time>
      </trkpt>
      <trkpt lat="44.72012" lon="3.82304">
        <ele>995.14709472656</ele>
        <time>2020-10-16T12:34:57.451Z</time>
      </trkpt>
      <trkpt lat="44.72019" lon="3.823">
        <ele>994.54071044922</ele>
        <time>2020-10-16T12:34:58.203Z</time>
      </trkpt>
      <trkpt lat="44.72023" lon="3.823">
        <ele>994.04016113281</ele>
        <time>2020-10-16T12:34:58.956Z</time>
      </trkpt>
      <trkpt lat="44.72028" lon="3.82302">
        <ele>993.3310546875</ele>
        <time>2020-10-16T12:34:59.710Z</time>
      </trkpt>
      <trkpt lat="44.72032" lon="3.82305">
        <ele>992.60198974609</ele>
        <time>2020-10-16T12:35:00.465Z</time>
      </trkpt>
      <trkpt lat="44.72036" lon="3.82312">
        <ele>991.70336914062</ele>
        <time>2020-10-16T12:35:01.221Z</time>
      </trkpt>
      <trkpt lat="44.72039" lon="3.82319">
        <ele>991.07305908203</ele>
        <time>2020-10-16T12:35:01.978Z</time>
      </trkpt>
      <trkpt lat="44.72042" lon="3.82334">
        <ele>990.05383300781</ele>
        <time>2020-10-16T12:35:02.738Z</time>
      </trkpt>
      <trkpt lat="44.72044" lon="3.82346">
        <ele>989.23327636719</ele>
        <time>2020-10-16T12:35:03.499Z</time>
      </trkpt>
      <trkpt lat="44.72047" lon="3.82354">
        <ele>988.60003662109</ele>
        <time>2020-10-16T12:35:04.262Z</time>
      </trkpt>
      <trkpt lat="44.72051" lon="3.82362">
        <ele>987.93560791016</ele>
        <time>2020-10-16T12:35:05.026Z</time>
      </trkpt>
      <trkpt lat="44.7207" lon="3.82381">
        <ele>985.85089111328</ele>
        <time>2020-10-16T12:35:05.795Z</time>
      </trkpt>
      <trkpt lat="44.72077" lon="3.8239">
        <ele>984.97570800781</ele>
        <time>2020-10-16T12:35:06.566Z</time>
      </trkpt>
      <trkpt lat="44.72087" lon="3.82407">
        <ele>983.56323242188</ele>
        <time>2020-10-16T12:35:07.340Z</time>
      </trkpt>
      <trkpt lat="44.72096" lon="3.82427">
        <ele>982.06207275391</ele>
        <time>2020-10-16T12:35:08.117Z</time>
      </trkpt>
      <trkpt lat="44.72101" lon="3.82434">
        <ele>981.41552734375</ele>
        <time>2020-10-16T12:35:08.896Z</time>
      </trkpt>
      <trkpt lat="44.72106" lon="3.82438">
        <ele>980.88555908203</ele>
        <time>2020-10-16T12:35:09.676Z</time>
      </trkpt>
      <trkpt lat="44.72112" lon="3.8244">
        <ele>980.43719482422</ele>
        <time>2020-10-16T12:35:10.457Z</time>
      </trkpt>
      <trkpt lat="44.72118" lon="3.82441">
        <ele>980.03564453125</ele>
        <time>2020-10-16T12:35:11.239Z</time>
      </trkpt>
      <trkpt lat="44.72138" lon="3.82441">
        <ele>979.29797363281</ele>
        <time>2020-10-16T12:35:12.025Z</time>
      </trkpt>
      <trkpt lat="44.72163" lon="3.82445">
        <ele>978.30902099609</ele>
        <time>2020-10-16T12:35:12.816Z</time>
      </trkpt>
      <trkpt lat="44.72175" lon="3.82447">
        <ele>977.84320068359</ele>
        <time>2020-10-16T12:35:13.610Z</time>
      </trkpt>
      <trkpt lat="44.72193" lon="3.82448">
        <ele>977.20422363281</ele>
        <time>2020-10-16T12:35:14.407Z</time>
      </trkpt>
      <trkpt lat="44.72206" lon="3.82448">
        <ele>976.94195556641</ele>
        <time>2020-10-16T12:35:15.207Z</time>
      </trkpt>
      <trkpt lat="44.72226" lon="3.82446">
        <ele>976.17755126953</ele>
        <time>2020-10-16T12:35:16.011Z</time>
      </trkpt>
      <trkpt lat="44.72246" lon="3.82442">
        <ele>975.26043701172</ele>
        <time>2020-10-16T12:35:16.819Z</time>
      </trkpt>
      <trkpt lat="44.72284" lon="3.82438">
        <ele>973.26354980469</ele>
        <time>2020-10-16T12:35:17.635Z</time>
      </trkpt>
      <trkpt lat="44.72323" lon="3.8243">
        <ele>973.74652099609</ele>
        <time>2020-10-16T12:35:18.458Z</time>
      </trkpt>
      <trkpt lat="44.72354" lon="3.82423">
        <ele>974.34106445312</ele>
        <time>2020-10-16T12:35:19.288Z</time>
      </trkpt>
      <trkpt lat="44.7236" lon="3.82422">
        <ele>973.86059570312</ele>
        <time>2020-10-16T12:35:20.119Z</time>
      </trkpt>
      <trkpt lat="44.72366" lon="3.82423">
        <ele>973.33294677734</ele>
        <time>2020-10-16T12:35:20.951Z</time>
      </trkpt>
      <trkpt lat="44.72373" lon="3.82425">
        <ele>972.66278076172</ele>
        <time>2020-10-16T12:35:21.785Z</time>
      </trkpt>
      <trkpt lat="44.72397" lon="3.82435">
        <ele>969.79943847656</ele>
        <time>2020-10-16T12:35:22.624Z</time>
      </trkpt>
      <trkpt lat="44.72402" lon="3.82436">
        <ele>969.16589355469</ele>
        <time>2020-10-16T12:35:23.464Z</time>
      </trkpt>
      <trkpt lat="44.72407" lon="3.82435">
        <ele>968.65081787109</ele>
        <time>2020-10-16T12:35:24.304Z</time>
      </trkpt>
      <trkpt lat="44.7241" lon="3.82432">
        <ele>968.28784179688</ele>
        <time>2020-10-16T12:35:25.145Z</time>
      </trkpt>
      <trkpt lat="44.72412" lon="3.82427">
        <ele>967.97473144531</ele>
        <time>2020-10-16T12:35:25.987Z</time>
      </trkpt>
      <trkpt lat="44.72416" lon="3.82416">
        <ele>967.50207519531</ele>
        <time>2020-10-16T12:35:26.831Z</time>
      </trkpt>
      <trkpt lat="44.7242" lon="3.82406">
        <ele>967.09875488281</ele>
        <time>2020-10-16T12:35:27.676Z</time>
      </trkpt>
      <trkpt lat="44.72423" lon="3.82399">
        <ele>966.68096923828</ele>
        <time>2020-10-16T12:35:28.523Z</time>
      </trkpt>
      <trkpt lat="44.72427" lon="3.82395">
        <ele>966.17944335938</ele>
        <time>2020-10-16T12:35:29.371Z</time>
      </trkpt>
      <trkpt lat="44.72434" lon="3.82392">
        <ele>965.37066650391</ele>
        <time>2020-10-16T12:35:30.220Z</time>
      </trkpt>
      <trkpt lat="44.72447" lon="3.82388">
        <ele>963.78942871094</ele>
        <time>2020-10-16T12:35:31.072Z</time>
      </trkpt>
      <trkpt lat="44.72454" lon="3.82384">
        <ele>962.99188232422</ele>
        <time>2020-10-16T12:35:31.925Z</time>
      </trkpt>
      <trkpt lat="44.72461" lon="3.82377">
        <ele>962.66015625</ele>
        <time>2020-10-16T12:35:32.780Z</time>
      </trkpt>
      <trkpt lat="44.72468" lon="3.82368">
        <ele>962.27392578125</ele>
        <time>2020-10-16T12:35:33.637Z</time>
      </trkpt>
      <trkpt lat="44.72475" lon="3.82364">
        <ele>961.71527099609</ele>
        <time>2020-10-16T12:35:34.495Z</time>
      </trkpt>
      <trkpt lat="44.72482" lon="3.82363">
        <ele>961.11285400391</ele>
        <time>2020-10-16T12:35:35.355Z</time>
      </trkpt>
      <trkpt lat="44.72491" lon="3.82363">
        <ele>960.49365234375</ele>
        <time>2020-10-16T12:35:36.217Z</time>
      </trkpt>
      <trkpt lat="44.72505" lon="3.82365">
        <ele>959.5849609375</ele>
        <time>2020-10-16T12:35:37.081Z</time>
      </trkpt>
      <trkpt lat="44.72508" lon="3.82367">
        <ele>959.35382080078</ele>
        <time>2020-10-16T12:35:37.946Z</time>
      </trkpt>
      <trkpt lat="44.72513" lon="3.82369">
        <ele>959.08990478516</ele>
        <time>2020-10-16T12:35:38.812Z</time>
      </trkpt>
      <trkpt lat="44.72516" lon="3.82371">
        <ele>958.91094970703</ele>
        <time>2020-10-16T12:35:39.679Z</time>
      </trkpt>
      <trkpt lat="44.7252" lon="3.82371">
        <ele>958.64031982422</ele>
        <time>2020-10-16T12:35:40.546Z</time>
      </trkpt>
      <trkpt lat="44.72522" lon="3.82369">
        <ele>958.41424560547</ele>
        <time>2020-10-16T12:35:41.414Z</time>
      </trkpt>
      <trkpt lat="44.72524" lon="3.82365">
        <ele>958.17785644531</ele>
        <time>2020-10-16T12:35:42.283Z</time>
      </trkpt>
      <trkpt lat="44.72525" lon="3.82355">
        <ele>957.87591552734</ele>
        <time>2020-10-16T12:35:43.153Z</time>
      </trkpt>
      <trkpt lat="44.7253" lon="3.82294">
        <ele>958.28112792969</ele>
        <time>2020-10-16T12:35:44.032Z</time>
      </trkpt>
      <trkpt lat="44.72535" lon="3.82231">
        <ele>958.61535644531</ele>
        <time>2020-10-16T12:35:44.920Z</time>
      </trkpt>
      <trkpt lat="44.7254" lon="3.82167">
        <ele>959.11907958984</ele>
        <time>2020-10-16T12:35:45.817Z</time>
      </trkpt>
      <trkpt lat="44.72549" lon="3.82061">
        <ele>957.65557861328</ele>
        <time>2020-10-16T12:35:46.729Z</time>
      </trkpt>
      <trkpt lat="44.7255" lon="3.82038">
        <ele>956.78033447266</ele>
        <time>2020-10-16T12:35:47.645Z</time>
      </trkpt>
      <trkpt lat="44.7255" lon="3.82014">
        <ele>956.05078125</ele>
        <time>2020-10-16T12:35:48.564Z</time>
      </trkpt>
      <trkpt lat="44.72547" lon="3.81981">
        <ele>955.44635009766</ele>
        <time>2020-10-16T12:35:49.488Z</time>
      </trkpt>
      <trkpt lat="44.72543" lon="3.81961">
        <ele>955.18292236328</ele>
        <time>2020-10-16T12:35:50.415Z</time>
      </trkpt>
      <trkpt lat="44.72539" lon="3.81949">
        <ele>955.11883544922</ele>
        <time>2020-10-16T12:35:51.344Z</time>
      </trkpt>
      <trkpt lat="44.72536" lon="3.81939">
        <ele>955.19390869141</ele>
        <time>2020-10-16T12:35:52.274Z</time>
      </trkpt>
      <trkpt lat="44.72534" lon="3.8193">
        <ele>956.14135742188</ele>
        <time>2020-10-16T12:35:53.206Z</time>
      </trkpt>
      <trkpt lat="44.72535" lon="3.81925">
        <ele>956.58746337891</ele>
        <time>2020-10-16T12:35:54.138Z</time>
      </trkpt>
      <trkpt lat="44.72538" lon="3.81919">
        <ele>956.77435302734</ele>
        <time>2020-10-16T12:35:55.071Z</time>
      </trkpt>
      <trkpt lat="44.72562" lon="3.81904">
        <ele>956.26593017578</ele>
        <time>2020-10-16T12:35:56.010Z</time>
      </trkpt>
      <trkpt lat="44.72594" lon="3.81882">
        <ele>954.25427246094</ele>
        <time>2020-10-16T12:35:56.956Z</time>
      </trkpt>
      <trkpt lat="44.72603" lon="3.81875">
        <ele>953.39892578125</ele>
        <time>2020-10-16T12:35:57.904Z</time>
      </trkpt>
      <trkpt lat="44.72609" lon="3.81867">
        <ele>953.00793457031</ele>
        <time>2020-10-16T12:35:58.853Z</time>
      </trkpt>
      <trkpt lat="44.72612" lon="3.81859">
        <ele>952.91021728516</ele>
        <time>2020-10-16T12:35:59.804Z</time>
      </trkpt>
      <trkpt lat="44.72615" lon="3.81848">
        <ele>952.91674804688</ele>
        <time>2020-10-16T12:36:00.756Z</time>
      </trkpt>
      <trkpt lat="44.72616" lon="3.8184">
        <ele>953.00030517578</ele>
        <time>2020-10-16T12:36:01.710Z</time>
      </trkpt>
      <trkpt lat="44.72616" lon="3.81832">
        <ele>953.20965576172</ele>
        <time>2020-10-16T12:36:02.665Z</time>
      </trkpt>
      <trkpt lat="44.72615" lon="3.81823">
        <ele>953.56024169922</ele>
        <time>2020-10-16T12:36:03.621Z</time>
      </trkpt>
      <trkpt lat="44.72611" lon="3.81813">
        <ele>954.26171875</ele>
        <time>2020-10-16T12:36:04.579Z</time>
      </trkpt>
      <trkpt lat="44.72606" lon="3.81804">
        <ele>955.11859130859</ele>
        <time>2020-10-16T12:36:05.538Z</time>
      </trkpt>
      <trkpt lat="44.72601" lon="3.81795">
        <ele>956.07653808594</ele>
        <time>2020-10-16T12:36:06.499Z</time>
      </trkpt>
      <trkpt lat="44.72598" lon="3.81789">
        <ele>956.61584472656</ele>
        <time>2020-10-16T12:36:07.461Z</time>
      </trkpt>
      <trkpt lat="44.72593" lon="3.81773">
        <ele>957.60998535156</ele>
        <time>2020-10-16T12:36:08.425Z</time>
      </trkpt>
      <trkpt lat="44.72589" lon="3.81752">
        <ele>956.98260498047</ele>
        <time>2020-10-16T12:36:09.393Z</time>
      </trkpt>
      <trkpt lat="44.72586" lon="3.81727">
        <ele>956.74255371094</ele>
        <time>2020-10-16T12:36:10.364Z</time>
      </trkpt>
      <trkpt lat="44.72586" lon="3.81705">
        <ele>957.27258300781</ele>
        <time>2020-10-16T12:36:11.338Z</time>
      </trkpt>
      <trkpt lat="44.72586" lon="3.81692">
        <ele>957.58795166016</ele>
        <time>2020-10-16T12:36:12.314Z</time>
      </trkpt>
      <trkpt lat="44.72589" lon="3.81683">
        <ele>957.86376953125</ele>
        <time>2020-10-16T12:36:13.292Z</time>
      </trkpt>
      <trkpt lat="44.72594" lon="3.8168">
        <ele>957.81762695312</ele>
        <time>2020-10-16T12:36:14.271Z</time>
      </trkpt>
      <trkpt lat="44.72599" lon="3.81679">
        <ele>957.59509277344</ele>
        <time>2020-10-16T12:36:15.251Z</time>
      </trkpt>
      <trkpt lat="44.72605" lon="3.81682">
        <ele>957.15637207031</ele>
        <time>2020-10-16T12:36:16.232Z</time>
      </trkpt>
      <trkpt lat="44.72617" lon="3.81689">
        <ele>956.15399169922</ele>
        <time>2020-10-16T12:36:17.216Z</time>
      </trkpt>
      <trkpt lat="44.72631" lon="3.81695">
        <ele>955.35314941406</ele>
        <time>2020-10-16T12:36:18.203Z</time>
      </trkpt>
      <trkpt lat="44.72633" lon="3.81704">
        <ele>954.88317871094</ele>
        <time>2020-10-16T12:36:19.191Z</time>
      </trkpt>
      <trkpt lat="44.72641" lon="3.81711">
        <ele>954.21490478516</ele>
        <time>2020-10-16T12:36:20.181Z</time>
      </trkpt>
      <trkpt lat="44.72652" lon="3.81718">
        <ele>953.46112060547</ele>
        <time>2020-10-16T12:36:21.173Z</time>
      </trkpt>
      <trkpt lat="44.72666" lon="3.81726">
        <ele>952.66607666016</ele>
        <time>2020-10-16T12:36:22.168Z</time>
      </trkpt>
      <trkpt lat="44.72677" lon="3.8173">
        <ele>952.15972900391</ele>
        <time>2020-10-16T12:36:23.165Z</time>
      </trkpt>
      <trkpt lat="44.72689" lon="3.81734">
        <ele>951.67553710938</ele>
        <time>2020-10-16T12:36:24.165Z</time>
      </trkpt>
      <trkpt lat="44.72699" lon="3.81731">
        <ele>951.56890869141</ele>
        <time>2020-10-16T12:36:25.167Z</time>
      </trkpt>
      <trkpt lat="44.72703" lon="3.81725">
        <ele>951.83386230469</ele>
        <time>2020-10-16T12:36:26.170Z</time>
      </trkpt>
      <trkpt lat="44.72707" lon="3.81718">
        <ele>952.126953125</ele>
        <time>2020-10-16T12:36:27.174Z</time>
      </trkpt>
      <trkpt lat="44.72716" lon="3.81716">
        <ele>952.09356689453</ele>
        <time>2020-10-16T12:36:28.180Z</time>
      </trkpt>
      <trkpt lat="44.72724" lon="3.81717">
        <ele>951.80633544922</ele>
        <time>2020-10-16T12:36:29.188Z</time>
      </trkpt>
      <trkpt lat="44.72729" lon="3.8171">
        <ele>952.05187988281</ele>
        <time>2020-10-16T12:36:30.197Z</time>
      </trkpt>
      <trkpt lat="44.72741" lon="3.81697">
        <ele>952.25427246094</ele>
        <time>2020-10-16T12:36:31.209Z</time>
      </trkpt>
      <trkpt lat="44.72746" lon="3.81692">
        <ele>952.34338378906</ele>
        <time>2020-10-16T12:36:32.222Z</time>
      </trkpt>
      <trkpt lat="44.72751" lon="3.81684">
        <ele>952.55853271484</ele>
        <time>2020-10-16T12:36:33.237Z</time>
      </trkpt>
      <trkpt lat="44.72755" lon="3.81676">
        <ele>952.75048828125</ele>
        <time>2020-10-16T12:36:34.253Z</time>
      </trkpt>
      <trkpt lat="44.72759" lon="3.8167">
        <ele>952.873046875</ele>
        <time>2020-10-16T12:36:35.271Z</time>
      </trkpt>
      <trkpt lat="44.72771" lon="3.81654">
        <ele>952.35699462891</ele>
        <time>2020-10-16T12:36:36.292Z</time>
      </trkpt>
      <trkpt lat="44.72776" lon="3.8164">
        <ele>951.96801757812</ele>
        <time>2020-10-16T12:36:37.315Z</time>
      </trkpt>
      <trkpt lat="44.7278" lon="3.81625">
        <ele>951.61840820312</ele>
        <time>2020-10-16T12:36:38.340Z</time>
      </trkpt>
      <trkpt lat="44.72786" lon="3.81606">
        <ele>951.08673095703</ele>
        <time>2020-10-16T12:36:39.368Z</time>
      </trkpt>
      <trkpt lat="44.72788" lon="3.81592">
        <ele>950.89776611328</ele>
        <time>2020-10-16T12:36:40.398Z</time>
      </trkpt>
      <trkpt lat="44.72788" lon="3.81583">
        <ele>950.95245361328</ele>
        <time>2020-10-16T12:36:41.430Z</time>
      </trkpt>
      <trkpt lat="44.72787" lon="3.81575">
        <ele>951.02728271484</ele>
        <time>2020-10-16T12:36:42.463Z</time>
      </trkpt>
      <trkpt lat="44.72788" lon="3.8156">
        <ele>950.95837402344</ele>
        <time>2020-10-16T12:36:43.498Z</time>
      </trkpt>
      <trkpt lat="44.72788" lon="3.81547">
        <ele>950.95031738281</ele>
        <time>2020-10-16T12:36:44.535Z</time>
      </trkpt>
      <trkpt lat="44.72786" lon="3.8154">
        <ele>951.10601806641</ele>
        <time>2020-10-16T12:36:45.573Z</time>
      </trkpt>
      <trkpt lat="44.72779" lon="3.81533">
        <ele>951.72180175781</ele>
        <time>2020-10-16T12:36:46.613Z</time>
      </trkpt>
      <trkpt lat="44.72769" lon="3.81523">
        <ele>952.515625</ele>
        <time>2020-10-16T12:36:47.655Z</time>
      </trkpt>
      <trkpt lat="44.72764" lon="3.81515">
        <ele>952.93115234375</ele>
        <time>2020-10-16T12:36:48.698Z</time>
      </trkpt>
      <trkpt lat="44.7276" lon="3.81506">
        <ele>953.32568359375</ele>
        <time>2020-10-16T12:36:49.743Z</time>
      </trkpt>
      <trkpt lat="44.72756" lon="3.81493">
        <ele>953.61773681641</ele>
        <time>2020-10-16T12:36:50.790Z</time>
      </trkpt>
      <trkpt lat="44.72756" lon="3.81482">
        <ele>953.40368652344</ele>
        <time>2020-10-16T12:36:51.839Z</time>
      </trkpt>
      <trkpt lat="44.72757" lon="3.81472">
        <ele>953.09564208984</ele>
        <time>2020-10-16T12:36:52.889Z</time>
      </trkpt>
      <trkpt lat="44.72756" lon="3.81462">
        <ele>952.93237304688</ele>
        <time>2020-10-16T12:36:53.940Z</time>
      </trkpt>
      <trkpt lat="44.72754" lon="3.81446">
        <ele>952.73986816406</ele>
        <time>2020-10-16T12:36:54.994Z</time>
      </trkpt>
      <trkpt lat="44.72752" lon="3.81436">
        <ele>952.87835693359</ele>
        <time>2020-10-16T12:36:56.049Z</time>
      </trkpt>
      <trkpt lat="44.72749" lon="3.81427">
        <ele>953.38958740234</ele>
        <time>2020-10-16T12:36:57.106Z</time>
      </trkpt>
      <trkpt lat="44.72745" lon="3.81421">
        <ele>953.9677734375</ele>
        <time>2020-10-16T12:36:58.164Z</time>
      </trkpt>
      <trkpt lat="44.72741" lon="3.81416">
        <ele>954.55627441406</ele>
        <time>2020-10-16T12:36:59.223Z</time>
      </trkpt>
      <trkpt lat="44.72739" lon="3.81412">
        <ele>954.79638671875</ele>
        <time>2020-10-16T12:37:00.283Z</time>
      </trkpt>
      <trkpt lat="44.72741" lon="3.81407">
        <ele>954.72430419922</ele>
        <time>2020-10-16T12:37:01.343Z</time>
      </trkpt>
      <trkpt lat="44.72747" lon="3.81392">
        <ele>954.52838134766</ele>
        <time>2020-10-16T12:37:02.406Z</time>
      </trkpt>
      <trkpt lat="44.72749" lon="3.81388">
        <ele>954.44000244141</ele>
        <time>2020-10-16T12:37:03.470Z</time>
      </trkpt>
      <trkpt lat="44.72754" lon="3.81389">
        <ele>953.92193603516</ele>
        <time>2020-10-16T12:37:04.535Z</time>
      </trkpt>
      <trkpt lat="44.72761" lon="3.81393">
        <ele>953.18280029297</ele>
        <time>2020-10-16T12:37:05.601Z</time>
      </trkpt>
      <trkpt lat="44.72766" lon="3.81394">
        <ele>952.64233398438</ele>
        <time>2020-10-16T12:37:06.668Z</time>
      </trkpt>
      <trkpt lat="44.72769" lon="3.81389">
        <ele>952.55450439453</ele>
        <time>2020-10-16T12:37:07.736Z</time>
      </trkpt>
      <trkpt lat="44.72774" lon="3.81384">
        <ele>952.22570800781</ele>
        <time>2020-10-16T12:37:08.805Z</time>
      </trkpt>
      <trkpt lat="44.72782" lon="3.81379">
        <ele>951.6328125</ele>
        <time>2020-10-16T12:37:09.876Z</time>
      </trkpt>
      <trkpt lat="44.72789" lon="3.81373">
        <ele>951.20922851562</ele>
        <time>2020-10-16T12:37:10.948Z</time>
      </trkpt>
      <trkpt lat="44.72797" lon="3.81367">
        <ele>950.81329345703</ele>
        <time>2020-10-16T12:37:12.022Z</time>
      </trkpt>
      <trkpt lat="44.72805" lon="3.81356">
        <ele>950.88134765625</ele>
        <time>2020-10-16T12:37:13.099Z</time>
      </trkpt>
      <trkpt lat="44.72812" lon="3.81349">
        <ele>950.74627685547</ele>
        <time>2020-10-16T12:37:14.177Z</time>
      </trkpt>
      <trkpt lat="44.72821" lon="3.81338">
        <ele>950.57116699219</ele>
        <time>2020-10-16T12:37:15.258Z</time>
      </trkpt>
      <trkpt lat="44.72832" lon="3.81325">
        <ele>950.38842773438</ele>
        <time>2020-10-16T12:37:16.342Z</time>
      </trkpt>
      <trkpt lat="44.72841" lon="3.81315">
        <ele>950.07073974609</ele>
        <time>2020-10-16T12:37:17.428Z</time>
      </trkpt>
      <trkpt lat="44.72855" lon="3.81299">
        <ele>949.49792480469</ele>
        <time>2020-10-16T12:37:18.517Z</time>
      </trkpt>
      <trkpt lat="44.72859" lon="3.81293">
        <ele>949.31958007812</ele>
        <time>2020-10-16T12:37:19.608Z</time>
      </trkpt>
      <trkpt lat="44.7287" lon="3.81281">
        <ele>948.85314941406</ele>
        <time>2020-10-16T12:37:20.701Z</time>
      </trkpt>
      <trkpt lat="44.72878" lon="3.81272">
        <ele>948.39801025391</ele>
        <time>2020-10-16T12:37:21.796Z</time>
      </trkpt>
      <trkpt lat="44.72885" lon="3.81263">
        <ele>946.99291992188</ele>
        <time>2020-10-16T12:37:22.893Z</time>
      </trkpt>
      <trkpt lat="44.72893" lon="3.81254">
        <ele>945.55078125</ele>
        <time>2020-10-16T12:37:23.993Z</time>
      </trkpt>
      <trkpt lat="44.72899" lon="3.81245">
        <ele>944.35375976562</ele>
        <time>2020-10-16T12:37:25.094Z</time>
      </trkpt>
      <trkpt lat="44.72904" lon="3.81239">
        <ele>943.43090820312</ele>
        <time>2020-10-16T12:37:26.196Z</time>
      </trkpt>
      <trkpt lat="44.72907" lon="3.81228">
        <ele>942.31799316406</ele>
        <time>2020-10-16T12:37:27.300Z</time>
      </trkpt>
      <trkpt lat="44.72906" lon="3.8122">
        <ele>942</ele>
        <time>2020-10-16T12:37:28.405Z</time>
      </trkpt>
      <trkpt lat="44.72903" lon="3.81217">
        <ele>942</ele>
        <time>2020-10-16T12:37:29.511Z</time>
      </trkpt>
      <trkpt lat="44.72898" lon="3.81216">
        <ele>942</ele>
        <time>2020-10-16T12:37:30.618Z</time>
      </trkpt>
      <trkpt lat="44.72889" lon="3.81214">
        <ele>942.59826660156</ele>
        <time>2020-10-16T12:37:31.727Z</time>
      </trkpt>
      <trkpt lat="44.72874" lon="3.81213">
        <ele>943.79498291016</ele>
        <time>2020-10-16T12:37:32.839Z</time>
      </trkpt>
      <trkpt lat="44.72862" lon="3.81213">
        <ele>944.05841064453</ele>
        <time>2020-10-16T12:37:33.953Z</time>
      </trkpt>
      <trkpt lat="44.72855" lon="3.81216">
        <ele>944.275390625</ele>
        <time>2020-10-16T12:37:35.069Z</time>
      </trkpt>
      <trkpt lat="44.72849" lon="3.81217">
        <ele>944.3798828125</ele>
        <time>2020-10-16T12:37:36.186Z</time>
      </trkpt>
      <trkpt lat="44.72841" lon="3.81215">
        <ele>944.23034667969</ele>
        <time>2020-10-16T12:37:37.304Z</time>
      </trkpt>
      <trkpt lat="44.72832" lon="3.81216">
        <ele>944.27551269531</ele>
        <time>2020-10-16T12:37:38.424Z</time>
      </trkpt>
      <trkpt lat="44.72827" lon="3.81218">
        <ele>944.49389648438</ele>
        <time>2020-10-16T12:37:39.545Z</time>
      </trkpt>
      <trkpt lat="44.72804" lon="3.81223">
        <ele>946.06652832031</ele>
        <time>2020-10-16T12:37:40.671Z</time>
      </trkpt>
      <trkpt lat="44.72789" lon="3.81224">
        <ele>947.42431640625</ele>
        <time>2020-10-16T12:37:41.800Z</time>
      </trkpt>
      <trkpt lat="44.72772" lon="3.81224">
        <ele>949.44641113281</ele>
        <time>2020-10-16T12:37:42.932Z</time>
      </trkpt>
      <trkpt lat="44.72756" lon="3.81221">
        <ele>950.79742431641</ele>
        <time>2020-10-16T12:37:44.068Z</time>
      </trkpt>
      <trkpt lat="44.72733" lon="3.81218">
        <ele>953.04583740234</ele>
        <time>2020-10-16T12:37:45.208Z</time>
      </trkpt>
      <trkpt lat="44.72714" lon="3.81213">
        <ele>953.86761474609</ele>
        <time>2020-10-16T12:37:46.352Z</time>
      </trkpt>
      <trkpt lat="44.72695" lon="3.81209">
        <ele>954.87799072266</ele>
        <time>2020-10-16T12:37:47.500Z</time>
      </trkpt>
      <trkpt lat="44.72675" lon="3.81195">
        <ele>954.74768066406</ele>
        <time>2020-10-16T12:37:48.653Z</time>
      </trkpt>
      <trkpt lat="44.72665" lon="3.81182">
        <ele>954.20239257812</ele>
        <time>2020-10-16T12:37:49.808Z</time>
      </trkpt>
      <trkpt lat="44.72662" lon="3.81175">
        <ele>953.8623046875</ele>
        <time>2020-10-16T12:37:50.964Z</time>
      </trkpt>
      <trkpt lat="44.72654" lon="3.81163">
        <ele>953.40203857422</ele>
        <time>2020-10-16T12:37:52.123Z</time>
      </trkpt>
      <trkpt lat="44.72647" lon="3.81157">
        <ele>953.44464111328</ele>
        <time>2020-10-16T12:37:53.283Z</time>
      </trkpt>
      <trkpt lat="44.72633" lon="3.81151">
        <ele>953.95922851562</ele>
        <time>2020-10-16T12:37:54.446Z</time>
      </trkpt>
      <trkpt lat="44.72621" lon="3.81153">
        <ele>955.01116943359</ele>
        <time>2020-10-16T12:37:55.612Z</time>
      </trkpt>
      <trkpt lat="44.72612" lon="3.81158">
        <ele>956.38208007812</ele>
        <time>2020-10-16T12:37:56.780Z</time>
      </trkpt>
      <trkpt lat="44.726" lon="3.81161">
        <ele>957.90570068359</ele>
        <time>2020-10-16T12:37:57.950Z</time>
      </trkpt>
      <trkpt lat="44.72596" lon="3.81159">
        <ele>958.22186279297</ele>
        <time>2020-10-16T12:37:59.121Z</time>
      </trkpt>
      <trkpt lat="44.72591" lon="3.8116">
        <ele>958.82843017578</ele>
        <time>2020-10-16T12:38:00.293Z</time>
      </trkpt>
      <trkpt lat="44.72585" lon="3.81161">
        <ele>960.1611328125</ele>
        <time>2020-10-16T12:38:01.466Z</time>
      </trkpt>
      <trkpt lat="44.72577" lon="3.8116">
        <ele>961.35809326172</ele>
        <time>2020-10-16T12:38:02.641Z</time>
      </trkpt>
      <trkpt lat="44.72567" lon="3.81158">
        <ele>962.92578125</ele>
        <time>2020-10-16T12:38:03.818Z</time>
      </trkpt>
      <trkpt lat="44.72556" lon="3.8115">
        <ele>963.56945800781</ele>
        <time>2020-10-16T12:38:04.997Z</time>
      </trkpt>
      <trkpt lat="44.72547" lon="3.81138">
        <ele>963.42333984375</ele>
        <time>2020-10-16T12:38:06.179Z</time>
      </trkpt>
      <trkpt lat="44.7254" lon="3.81131">
        <ele>963.44219970703</ele>
        <time>2020-10-16T12:38:07.362Z</time>
      </trkpt>
      <trkpt lat="44.7253" lon="3.81117">
        <ele>962.017578125</ele>
        <time>2020-10-16T12:38:08.548Z</time>
      </trkpt>
      <trkpt lat="44.72525" lon="3.81112">
        <ele>961.29675292969</ele>
        <time>2020-10-16T12:38:09.736Z</time>
      </trkpt>
      <trkpt lat="44.72518" lon="3.81106">
        <ele>960.61224365234</ele>
        <time>2020-10-16T12:38:10.925Z</time>
      </trkpt>
      <trkpt lat="44.72514" lon="3.81101">
        <ele>961.13861083984</ele>
        <time>2020-10-16T12:38:12.115Z</time>
      </trkpt>
      <trkpt lat="44.72508" lon="3.81088">
        <ele>963.01025390625</ele>
        <time>2020-10-16T12:38:13.307Z</time>
      </trkpt>
      <trkpt lat="44.72506" lon="3.81084">
        <ele>963.60040283203</ele>
        <time>2020-10-16T12:38:14.500Z</time>
      </trkpt>
      <trkpt lat="44.72502" lon="3.81078">
        <ele>964.39752197266</ele>
        <time>2020-10-16T12:38:15.694Z</time>
      </trkpt>
      <trkpt lat="44.72496" lon="3.81077">
        <ele>964.65209960938</ele>
        <time>2020-10-16T12:38:16.890Z</time>
      </trkpt>
      <trkpt lat="44.72491" lon="3.81078">
        <ele>964.72528076172</ele>
        <time>2020-10-16T12:38:18.086Z</time>
      </trkpt>
      <trkpt lat="44.72488" lon="3.81072">
        <ele>965.51623535156</ele>
        <time>2020-10-16T12:38:19.283Z</time>
      </trkpt>
      <trkpt lat="44.72482" lon="3.81057">
        <ele>967.66442871094</ele>
        <time>2020-10-16T12:38:20.483Z</time>
      </trkpt>
      <trkpt lat="44.7248" lon="3.81051">
        <ele>968.60064697266</ele>
        <time>2020-10-16T12:38:21.684Z</time>
      </trkpt>
      <trkpt lat="44.7248" lon="3.81048">
        <ele>968.90765380859</ele>
        <time>2020-10-16T12:38:22.885Z</time>
      </trkpt>
      <trkpt lat="44.72479" lon="3.81045">
        <ele>969.38720703125</ele>
        <time>2020-10-16T12:38:24.087Z</time>
      </trkpt>
      <trkpt lat="44.72483" lon="3.81032">
        <ele>971.21179199219</ele>
        <time>2020-10-16T12:38:25.291Z</time>
      </trkpt>
      <trkpt lat="44.72491" lon="3.81032">
        <ele>971.04644775391</ele>
        <time>2020-10-16T12:38:26.496Z</time>
      </trkpt>
      <trkpt lat="44.72497" lon="3.81038">
        <ele>970.09729003906</ele>
        <time>2020-10-16T12:38:27.703Z</time>
      </trkpt>
      <trkpt lat="44.72505" lon="3.81047">
        <ele>968.74011230469</ele>
        <time>2020-10-16T12:38:28.912Z</time>
      </trkpt>
      <trkpt lat="44.72512" lon="3.81049">
        <ele>968.39916992188</ele>
        <time>2020-10-16T12:38:30.122Z</time>
      </trkpt>
      <trkpt lat="44.7252" lon="3.81049">
        <ele>968.23718261719</ele>
        <time>2020-10-16T12:38:31.334Z</time>
      </trkpt>
      <trkpt lat="44.72529" lon="3.8104">
        <ele>969.46594238281</ele>
        <time>2020-10-16T12:38:32.548Z</time>
      </trkpt>
      <trkpt lat="44.7254" lon="3.81029">
        <ele>970.58917236328</ele>
        <time>2020-10-16T12:38:33.765Z</time>
      </trkpt>
      <trkpt lat="44.72557" lon="3.8102">
        <ele>970.57537841797</ele>
        <time>2020-10-16T12:38:34.986Z</time>
      </trkpt>
      <trkpt lat="44.72578" lon="3.81014">
        <ele>969.90875244141</ele>
        <time>2020-10-16T12:38:36.211Z</time>
      </trkpt>
      <trkpt lat="44.72606" lon="3.81007">
        <ele>968.87713623047</ele>
        <time>2020-10-16T12:38:37.442Z</time>
      </trkpt>
      <trkpt lat="44.72622" lon="3.81003">
        <ele>968.49652099609</ele>
        <time>2020-10-16T12:38:38.676Z</time>
      </trkpt>
      <trkpt lat="44.72636" lon="3.81006">
        <ele>966.88470458984</ele>
        <time>2020-10-16T12:38:39.913Z</time>
      </trkpt>
      <trkpt lat="44.72663" lon="3.81006">
        <ele>965.16198730469</ele>
        <time>2020-10-16T12:38:41.155Z</time>
      </trkpt>
      <trkpt lat="44.72675" lon="3.81011">
        <ele>963.43096923828</ele>
        <time>2020-10-16T12:38:42.400Z</time>
      </trkpt>
      <trkpt lat="44.72694" lon="3.81008">
        <ele>962.84777832031</ele>
        <time>2020-10-16T12:38:43.648Z</time>
      </trkpt>
      <trkpt lat="44.72711" lon="3.80994">
        <ele>964.01684570312</ele>
        <time>2020-10-16T12:38:44.900Z</time>
      </trkpt>
      <trkpt lat="44.72738" lon="3.80972">
        <ele>965.45812988281</ele>
        <time>2020-10-16T12:38:46.158Z</time>
      </trkpt>
      <trkpt lat="44.72771" lon="3.80949">
        <ele>963.20745849609</ele>
        <time>2020-10-16T12:38:47.424Z</time>
      </trkpt>
      <trkpt lat="44.72827" lon="3.80916">
        <ele>960.86779785156</ele>
        <time>2020-10-16T12:38:48.702Z</time>
      </trkpt>
      <trkpt lat="44.7285" lon="3.809">
        <ele>959.90802001953</ele>
        <time>2020-10-16T12:38:49.985Z</time>
      </trkpt>
      <trkpt lat="44.72857" lon="3.80896">
        <ele>959.21923828125</ele>
        <time>2020-10-16T12:38:51.270Z</time>
      </trkpt>
      <trkpt lat="44.72896" lon="3.80876">
        <ele>957.70416259766</ele>
        <time>2020-10-16T12:38:52.563Z</time>
      </trkpt>
      <trkpt lat="44.72918" lon="3.80866">
        <ele>957.26708984375</ele>
        <time>2020-10-16T12:38:53.861Z</time>
      </trkpt>
      <trkpt lat="44.72941" lon="3.80855">
        <ele>956.74395751953</ele>
        <time>2020-10-16T12:38:55.163Z</time>
      </trkpt>
      <trkpt lat="44.72955" lon="3.80848">
        <ele>955.92169189453</ele>
        <time>2020-10-16T12:38:56.468Z</time>
      </trkpt>
      <trkpt lat="44.72968" lon="3.80845">
        <ele>954.99426269531</ele>
        <time>2020-10-16T12:38:57.776Z</time>
      </trkpt>
      <trkpt lat="44.72976" lon="3.80836">
        <ele>954.38305664062</ele>
        <time>2020-10-16T12:38:59.086Z</time>
      </trkpt>
      <trkpt lat="44.72979" lon="3.80835">
        <ele>954.15802001953</ele>
        <time>2020-10-16T12:39:00.397Z</time>
      </trkpt>
      <trkpt lat="44.72985" lon="3.80833">
        <ele>953.73663330078</ele>
        <time>2020-10-16T12:39:01.709Z</time>
      </trkpt>
      <trkpt lat="44.72996" lon="3.80822">
        <ele>953.00402832031</ele>
        <time>2020-10-16T12:39:03.024Z</time>
      </trkpt>
      <trkpt lat="44.73005" lon="3.80814">
        <ele>951.40277099609</ele>
        <time>2020-10-16T12:39:04.341Z</time>
      </trkpt>
      <trkpt lat="44.73011" lon="3.80798">
        <ele>948.97497558594</ele>
        <time>2020-10-16T12:39:05.660Z</time>
      </trkpt>
      <trkpt lat="44.7301" lon="3.80784">
        <ele>947.69873046875</ele>
        <time>2020-10-16T12:39:06.981Z</time>
      </trkpt>
      <trkpt lat="44.73005" lon="3.80776">
        <ele>947.92352294922</ele>
        <time>2020-10-16T12:39:08.304Z</time>
      </trkpt>
      <trkpt lat="44.72995" lon="3.80771">
        <ele>949.05596923828</ele>
        <time>2020-10-16T12:39:09.629Z</time>
      </trkpt>
      <trkpt lat="44.72985" lon="3.80768">
        <ele>950.45080566406</ele>
        <time>2020-10-16T12:39:10.956Z</time>
      </trkpt>
      <trkpt lat="44.72979" lon="3.80766">
        <ele>951.37091064453</ele>
        <time>2020-10-16T12:39:12.284Z</time>
      </trkpt>
      <trkpt lat="44.72975" lon="3.80757">
        <ele>951.33441162109</ele>
        <time>2020-10-16T12:39:13.614Z</time>
      </trkpt>
      <trkpt lat="44.72971" lon="3.80747">
        <ele>951.34191894531</ele>
        <time>2020-10-16T12:39:14.945Z</time>
      </trkpt>
      <trkpt lat="44.72964" lon="3.80745">
        <ele>952.38195800781</ele>
        <time>2020-10-16T12:39:16.278Z</time>
      </trkpt>
      <trkpt lat="44.72953" lon="3.80741">
        <ele>953.81170654297</ele>
        <time>2020-10-16T12:39:17.613Z</time>
      </trkpt>
      <trkpt lat="44.72947" lon="3.80743">
        <ele>954.38592529297</ele>
        <time>2020-10-16T12:39:18.949Z</time>
      </trkpt>
      <trkpt lat="44.72937" lon="3.80744">
        <ele>955.19946289062</ele>
        <time>2020-10-16T12:39:20.287Z</time>
      </trkpt>
      <trkpt lat="44.72928" lon="3.80738">
        <ele>955.40264892578</ele>
        <time>2020-10-16T12:39:21.627Z</time>
      </trkpt>
      <trkpt lat="44.72909" lon="3.80728">
        <ele>956.07489013672</ele>
        <time>2020-10-16T12:39:22.971Z</time>
      </trkpt>
      <trkpt lat="44.72897" lon="3.80716">
        <ele>956.10778808594</ele>
        <time>2020-10-16T12:39:24.318Z</time>
      </trkpt>
      <trkpt lat="44.72895" lon="3.80711">
        <ele>955.89630126953</ele>
        <time>2020-10-16T12:39:25.666Z</time>
      </trkpt>
      <trkpt lat="44.72892" lon="3.80709">
        <ele>955.89172363281</ele>
        <time>2020-10-16T12:39:27.015Z</time>
      </trkpt>
      <trkpt lat="44.72886" lon="3.80705">
        <ele>956.03778076172</ele>
        <time>2020-10-16T12:39:28.365Z</time>
      </trkpt>
      <trkpt lat="44.72879" lon="3.80701">
        <ele>956.21240234375</ele>
        <time>2020-10-16T12:39:29.717Z</time>
      </trkpt>
      <trkpt lat="44.72874" lon="3.80696">
        <ele>956.23077392578</ele>
        <time>2020-10-16T12:39:31.070Z</time>
      </trkpt>
      <trkpt lat="44.72873" lon="3.8069">
        <ele>955.94512939453</ele>
        <time>2020-10-16T12:39:32.424Z</time>
      </trkpt>
      <trkpt lat="44.72872" lon="3.80682">
        <ele>956.72454833984</ele>
        <time>2020-10-16T12:39:33.779Z</time>
      </trkpt>
      <trkpt lat="44.72873" lon="3.80675">
        <ele>957.58892822266</ele>
        <time>2020-10-16T12:39:35.135Z</time>
      </trkpt>
      <trkpt lat="44.72873" lon="3.80668">
        <ele>958.55163574219</ele>
        <time>2020-10-16T12:39:36.492Z</time>
      </trkpt>
      <trkpt lat="44.72877" lon="3.80661">
        <ele>959.17669677734</ele>
        <time>2020-10-16T12:39:37.850Z</time>
      </trkpt>
      <trkpt lat="44.72884" lon="3.80654">
        <ele>959.52716064453</ele>
        <time>2020-10-16T12:39:39.210Z</time>
      </trkpt>
      <trkpt lat="44.72893" lon="3.80645">
        <ele>960.06732177734</ele>
        <time>2020-10-16T12:39:40.572Z</time>
      </trkpt>
      <trkpt lat="44.72899" lon="3.80644">
        <ele>959.76434326172</ele>
        <time>2020-10-16T12:39:41.935Z</time>
      </trkpt>
      <trkpt lat="44.72908" lon="3.80644">
        <ele>959.21520996094</ele>
        <time>2020-10-16T12:39:43.300Z</time>
      </trkpt>
      <trkpt lat="44.72918" lon="3.80642">
        <ele>958.05645751953</ele>
        <time>2020-10-16T12:39:44.667Z</time>
      </trkpt>
      <trkpt lat="44.72921" lon="3.80639">
        <ele>957.84075927734</ele>
        <time>2020-10-16T12:39:46.035Z</time>
      </trkpt>
      <trkpt lat="44.72926" lon="3.80639">
        <ele>957.2578125</ele>
        <time>2020-10-16T12:39:47.404Z</time>
      </trkpt>
      <trkpt lat="44.72933" lon="3.80639">
        <ele>956.34539794922</ele>
        <time>2020-10-16T12:39:48.774Z</time>
      </trkpt>
      <trkpt lat="44.72937" lon="3.80639">
        <ele>955.77508544922</ele>
        <time>2020-10-16T12:39:50.145Z</time>
      </trkpt>
      <trkpt lat="44.72942" lon="3.80637">
        <ele>955.29333496094</ele>
        <time>2020-10-16T12:39:51.517Z</time>
      </trkpt>
      <trkpt lat="44.7295" lon="3.80633">
        <ele>954.53894042969</ele>
        <time>2020-10-16T12:39:52.891Z</time>
      </trkpt>
      <trkpt lat="44.72954" lon="3.80624">
        <ele>954.59600830078</ele>
        <time>2020-10-16T12:39:54.266Z</time>
      </trkpt>
      <trkpt lat="44.72954" lon="3.80611">
        <ele>955.5107421875</ele>
        <time>2020-10-16T12:39:55.643Z</time>
      </trkpt>
      <trkpt lat="44.72953" lon="3.80602">
        <ele>956.23083496094</ele>
        <time>2020-10-16T12:39:57.021Z</time>
      </trkpt>
      <trkpt lat="44.72948" lon="3.80594">
        <ele>956.92523193359</ele>
        <time>2020-10-16T12:39:58.401Z</time>
      </trkpt>
      <trkpt lat="44.72943" lon="3.80589">
        <ele>957.87860107422</ele>
        <time>2020-10-16T12:39:59.782Z</time>
      </trkpt>
      <trkpt lat="44.72936" lon="3.80582">
        <ele>958.958984375</ele>
        <time>2020-10-16T12:40:01.165Z</time>
      </trkpt>
      <trkpt lat="44.72934" lon="3.80578">
        <ele>959.30584716797</ele>
        <time>2020-10-16T12:40:02.549Z</time>
      </trkpt>
      <trkpt lat="44.7293" lon="3.80574">
        <ele>959.97308349609</ele>
        <time>2020-10-16T12:40:03.934Z</time>
      </trkpt>
      <trkpt lat="44.72923" lon="3.80568">
        <ele>961.11853027344</ele>
        <time>2020-10-16T12:40:05.320Z</time>
      </trkpt>
      <trkpt lat="44.72914" lon="3.80559">
        <ele>962.67614746094</ele>
        <time>2020-10-16T12:40:06.708Z</time>
      </trkpt>
      <trkpt lat="44.72907" lon="3.8054">
        <ele>963.93359375</ele>
        <time>2020-10-16T12:40:08.099Z</time>
      </trkpt>
      <trkpt lat="44.72898" lon="3.80523">
        <ele>965.38470458984</ele>
        <time>2020-10-16T12:40:09.494Z</time>
      </trkpt>
      <trkpt lat="44.72891" lon="3.80506">
        <ele>966.33258056641</ele>
        <time>2020-10-16T12:40:10.891Z</time>
      </trkpt>
      <trkpt lat="44.72883" lon="3.8048">
        <ele>967.36126708984</ele>
        <time>2020-10-16T12:40:12.292Z</time>
      </trkpt>
      <trkpt lat="44.7288" lon="3.80462">
        <ele>967.73205566406</ele>
        <time>2020-10-16T12:40:13.696Z</time>
      </trkpt>
      <trkpt lat="44.72879" lon="3.80442">
        <ele>967.74365234375</ele>
        <time>2020-10-16T12:40:15.103Z</time>
      </trkpt>
      <trkpt lat="44.72873" lon="3.80384">
        <ele>973.2255859375</ele>
        <time>2020-10-16T12:40:16.518Z</time>
      </trkpt>
      <trkpt lat="44.72875" lon="3.80373">
        <ele>973.83416748047</ele>
        <time>2020-10-16T12:40:17.935Z</time>
      </trkpt>
      <trkpt lat="44.7288" lon="3.80366">
        <ele>973.49713134766</ele>
        <time>2020-10-16T12:40:19.353Z</time>
      </trkpt>
      <trkpt lat="44.72892" lon="3.80364">
        <ele>971.32855224609</ele>
        <time>2020-10-16T12:40:20.774Z</time>
      </trkpt>
      <trkpt lat="44.72901" lon="3.80365">
        <ele>969.38238525391</ele>
        <time>2020-10-16T12:40:22.196Z</time>
      </trkpt>
      <trkpt lat="44.72922" lon="3.80371">
        <ele>964.87280273438</ele>
        <time>2020-10-16T12:40:23.623Z</time>
      </trkpt>
      <trkpt lat="44.7293" lon="3.80374">
        <ele>963.25170898438</ele>
        <time>2020-10-16T12:40:25.051Z</time>
      </trkpt>
      <trkpt lat="44.7294" lon="3.80379">
        <ele>960.93341064453</ele>
        <time>2020-10-16T12:40:26.482Z</time>
      </trkpt>
      <trkpt lat="44.72951" lon="3.8039">
        <ele>958.24700927734</ele>
        <time>2020-10-16T12:40:27.915Z</time>
      </trkpt>
      <trkpt lat="44.72958" lon="3.80399">
        <ele>957.65277099609</ele>
        <time>2020-10-16T12:40:29.350Z</time>
      </trkpt>
      <trkpt lat="44.72963" lon="3.80405">
        <ele>957.74139404297</ele>
        <time>2020-10-16T12:40:30.786Z</time>
      </trkpt>
      <trkpt lat="44.72968" lon="3.80409">
        <ele>957.93530273438</ele>
        <time>2020-10-16T12:40:32.224Z</time>
      </trkpt>
      <trkpt lat="44.72976" lon="3.80414">
        <ele>958.21496582031</ele>
        <time>2020-10-16T12:40:33.663Z</time>
      </trkpt>
      <trkpt lat="44.72984" lon="3.8042">
        <ele>958.44427490234</ele>
        <time>2020-10-16T12:40:35.104Z</time>
      </trkpt>
      <trkpt lat="44.72994" lon="3.80438">
        <ele>958.43304443359</ele>
        <time>2020-10-16T12:40:36.548Z</time>
      </trkpt>
      <trkpt lat="44.73" lon="3.80447">
        <ele>957.96301269531</ele>
        <time>2020-10-16T12:40:37.994Z</time>
      </trkpt>
      <trkpt lat="44.7301" lon="3.80465">
        <ele>956.82037353516</ele>
        <time>2020-10-16T12:40:39.443Z</time>
      </trkpt>
      <trkpt lat="44.73038" lon="3.80503">
        <ele>954.85980224609</ele>
        <time>2020-10-16T12:40:40.900Z</time>
      </trkpt>
      <trkpt lat="44.73053" lon="3.80521">
        <ele>954.70562744141</ele>
        <time>2020-10-16T12:40:42.361Z</time>
      </trkpt>
      <trkpt lat="44.73066" lon="3.80525">
        <ele>955.66229248047</ele>
        <time>2020-10-16T12:40:43.825Z</time>
      </trkpt>
      <trkpt lat="44.73083" lon="3.80534">
        <ele>956.28546142578</ele>
        <time>2020-10-16T12:40:45.292Z</time>
      </trkpt>
      <trkpt lat="44.73089" lon="3.80545">
        <ele>955.57342529297</ele>
        <time>2020-10-16T12:40:46.761Z</time>
      </trkpt>
      <trkpt lat="44.73092" lon="3.80558">
        <ele>954.06671142578</ele>
        <time>2020-10-16T12:40:48.232Z</time>
      </trkpt>
      <trkpt lat="44.73092" lon="3.80568">
        <ele>952.71313476562</ele>
        <time>2020-10-16T12:40:49.705Z</time>
      </trkpt>
      <trkpt lat="44.73091" lon="3.80577">
        <ele>951.46112060547</ele>
        <time>2020-10-16T12:40:51.179Z</time>
      </trkpt>
      <trkpt lat="44.73091" lon="3.80584">
        <ele>950.54327392578</ele>
        <time>2020-10-16T12:40:52.654Z</time>
      </trkpt>
      <trkpt lat="44.73095" lon="3.80594">
        <ele>949.70544433594</ele>
        <time>2020-10-16T12:40:54.131Z</time>
      </trkpt>
      <trkpt lat="44.73101" lon="3.806">
        <ele>949.60711669922</ele>
        <time>2020-10-16T12:40:55.609Z</time>
      </trkpt>
      <trkpt lat="44.73109" lon="3.80602">
        <ele>950.13677978516</ele>
        <time>2020-10-16T12:40:57.089Z</time>
      </trkpt>
      <trkpt lat="44.73121" lon="3.80609">
        <ele>950.70220947266</ele>
        <time>2020-10-16T12:40:58.571Z</time>
      </trkpt>
      <trkpt lat="44.7314" lon="3.80624">
        <ele>951.72235107422</ele>
        <time>2020-10-16T12:41:00.058Z</time>
      </trkpt>
      <trkpt lat="44.73154" lon="3.80632">
        <ele>952.49127197266</ele>
        <time>2020-10-16T12:41:01.548Z</time>
      </trkpt>
      <trkpt lat="44.73175" lon="3.80645">
        <ele>953.67712402344</ele>
        <time>2020-10-16T12:41:03.042Z</time>
      </trkpt>
      <trkpt lat="44.73192" lon="3.80657">
        <ele>954.51812744141</ele>
        <time>2020-10-16T12:41:04.540Z</time>
      </trkpt>
      <trkpt lat="44.73211" lon="3.80671">
        <ele>954.40850830078</ele>
        <time>2020-10-16T12:41:06.043Z</time>
      </trkpt>
      <trkpt lat="44.73221" lon="3.80678">
        <ele>953.49151611328</ele>
        <time>2020-10-16T12:41:07.548Z</time>
      </trkpt>
      <trkpt lat="44.73221" lon="3.80661">
        <ele>954.28625488281</ele>
        <time>2020-10-16T12:41:09.055Z</time>
      </trkpt>
      <trkpt lat="44.7322" lon="3.8064">
        <ele>955.35931396484</ele>
        <time>2020-10-16T12:41:10.565Z</time>
      </trkpt>
      <trkpt lat="44.73219" lon="3.80624">
        <ele>956.24176025391</ele>
        <time>2020-10-16T12:41:12.078Z</time>
      </trkpt>
      <trkpt lat="44.73218" lon="3.80607">
        <ele>957.37573242188</ele>
        <time>2020-10-16T12:41:13.593Z</time>
      </trkpt>
      <trkpt lat="44.73211" lon="3.80576">
        <ele>960.22845458984</ele>
        <time>2020-10-16T12:41:15.113Z</time>
      </trkpt>
      <trkpt lat="44.73205" lon="3.80552">
        <ele>962.42596435547</ele>
        <time>2020-10-16T12:41:16.636Z</time>
      </trkpt>
      <trkpt lat="44.73203" lon="3.80537">
        <ele>963.67041015625</ele>
        <time>2020-10-16T12:41:18.161Z</time>
      </trkpt>
      <trkpt lat="44.73198" lon="3.80519">
        <ele>965.16912841797</ele>
        <time>2020-10-16T12:41:19.689Z</time>
      </trkpt>
      <trkpt lat="44.73194" lon="3.80507">
        <ele>966.50518798828</ele>
        <time>2020-10-16T12:41:21.219Z</time>
      </trkpt>
      <trkpt lat="44.73191" lon="3.80495">
        <ele>967.54058837891</ele>
        <time>2020-10-16T12:41:22.751Z</time>
      </trkpt>
      <trkpt lat="44.73189" lon="3.80487">
        <ele>968.29278564453</ele>
        <time>2020-10-16T12:41:24.284Z</time>
      </trkpt>
      <trkpt lat="44.73187" lon="3.8048">
        <ele>968.89611816406</ele>
        <time>2020-10-16T12:41:25.818Z</time>
      </trkpt>
      <trkpt lat="44.73186" lon="3.80473">
        <ele>969.53942871094</ele>
        <time>2020-10-16T12:41:27.353Z</time>
      </trkpt>
      <trkpt lat="44.73183" lon="3.80465">
        <ele>970.30120849609</ele>
        <time>2020-10-16T12:41:28.889Z</time>
      </trkpt>
      <trkpt lat="44.73181" lon="3.80453">
        <ele>971.37182617188</ele>
        <time>2020-10-16T12:41:30.427Z</time>
      </trkpt>
      <trkpt lat="44.73178" lon="3.80431">
        <ele>973.62750244141</ele>
        <time>2020-10-16T12:41:31.968Z</time>
      </trkpt>
      <trkpt lat="44.73176" lon="3.8041">
        <ele>976.76324462891</ele>
        <time>2020-10-16T12:41:33.512Z</time>
      </trkpt>
      <trkpt lat="44.73175" lon="3.804">
        <ele>977.73779296875</ele>
        <time>2020-10-16T12:41:35.058Z</time>
      </trkpt>
      <trkpt lat="44.73173" lon="3.80389">
        <ele>978.98645019531</ele>
        <time>2020-10-16T12:41:36.605Z</time>
      </trkpt>
      <trkpt lat="44.73171" lon="3.80372">
        <ele>980.80383300781</ele>
        <time>2020-10-16T12:41:38.155Z</time>
      </trkpt>
      <trkpt lat="44.73169" lon="3.80359">
        <ele>982.14300537109</ele>
        <time>2020-10-16T12:41:39.707Z</time>
      </trkpt>
      <trkpt lat="44.73167" lon="3.80349">
        <ele>983.1875</ele>
        <time>2020-10-16T12:41:41.260Z</time>
      </trkpt>
      <trkpt lat="44.73163" lon="3.80345">
        <ele>983.9033203125</ele>
        <time>2020-10-16T12:41:42.814Z</time>
      </trkpt>
      <trkpt lat="44.73158" lon="3.80338">
        <ele>984.90472412109</ele>
        <time>2020-10-16T12:41:44.370Z</time>
      </trkpt>
      <trkpt lat="44.73156" lon="3.80333">
        <ele>985.52941894531</ele>
        <time>2020-10-16T12:41:45.926Z</time>
      </trkpt>
      <trkpt lat="44.73156" lon="3.80327">
        <ele>986.16735839844</ele>
        <time>2020-10-16T12:41:47.483Z</time>
      </trkpt>
      <trkpt lat="44.73157" lon="3.8032">
        <ele>986.79138183594</ele>
        <time>2020-10-16T12:41:49.041Z</time>
      </trkpt>
      <trkpt lat="44.73158" lon="3.8031">
        <ele>987.64013671875</ele>
        <time>2020-10-16T12:41:50.601Z</time>
      </trkpt>
      <trkpt lat="44.73161" lon="3.803">
        <ele>988.33276367188</ele>
        <time>2020-10-16T12:41:52.162Z</time>
      </trkpt>
      <trkpt lat="44.73163" lon="3.80296">
        <ele>988.62921142578</ele>
        <time>2020-10-16T12:41:53.724Z</time>
      </trkpt>
      <trkpt lat="44.73163" lon="3.8029">
        <ele>989.17663574219</ele>
        <time>2020-10-16T12:41:55.287Z</time>
      </trkpt>
      <trkpt lat="44.73164" lon="3.80283">
        <ele>989.75384521484</ele>
        <time>2020-10-16T12:41:56.851Z</time>
      </trkpt>
      <trkpt lat="44.73166" lon="3.80264">
        <ele>991.23876953125</ele>
        <time>2020-10-16T12:41:58.418Z</time>
      </trkpt>
      <trkpt lat="44.73164" lon="3.8025">
        <ele>992.20220947266</ele>
        <time>2020-10-16T12:41:59.987Z</time>
      </trkpt>
      <trkpt lat="44.73163" lon="3.80239">
        <ele>992.89361572266</ele>
        <time>2020-10-16T12:42:01.557Z</time>
      </trkpt>
      <trkpt lat="44.73161" lon="3.80225">
        <ele>993.91625976562</ele>
        <time>2020-10-16T12:42:03.129Z</time>
      </trkpt>
      <trkpt lat="44.73161" lon="3.80216">
        <ele>994.55908203125</ele>
        <time>2020-10-16T12:42:04.702Z</time>
      </trkpt>
      <trkpt lat="44.73161" lon="3.80208">
        <ele>995.14453125</ele>
        <time>2020-10-16T12:42:06.277Z</time>
      </trkpt>
      <trkpt lat="44.73159" lon="3.80204">
        <ele>995.60925292969</ele>
        <time>2020-10-16T12:42:07.852Z</time>
      </trkpt>
      <trkpt lat="44.73154" lon="3.80199">
        <ele>996.21343994141</ele>
        <time>2020-10-16T12:42:09.428Z</time>
      </trkpt>
      <trkpt lat="44.7315" lon="3.80191">
        <ele>997.01983642578</ele>
        <time>2020-10-16T12:42:11.006Z</time>
      </trkpt>
      <trkpt lat="44.73147" lon="3.80182">
        <ele>997.63879394531</ele>
        <time>2020-10-16T12:42:12.585Z</time>
      </trkpt>
      <trkpt lat="44.73147" lon="3.80171">
        <ele>998.03057861328</ele>
        <time>2020-10-16T12:42:14.166Z</time>
      </trkpt>
      <trkpt lat="44.73146" lon="3.80161">
        <ele>998.47045898438</ele>
        <time>2020-10-16T12:42:15.748Z</time>
      </trkpt>
      <trkpt lat="44.73145" lon="3.80152">
        <ele>998.86486816406</ele>
        <time>2020-10-16T12:42:17.332Z</time>
      </trkpt>
      <trkpt lat="44.73142" lon="3.80147">
        <ele>999.22991943359</ele>
        <time>2020-10-16T12:42:18.917Z</time>
      </trkpt>
      <trkpt lat="44.73141" lon="3.80138">
        <ele>999.59924316406</ele>
        <time>2020-10-16T12:42:20.503Z</time>
      </trkpt>
      <trkpt lat="44.73139" lon="3.80126">
        <ele>1000.1402587891</ele>
        <time>2020-10-16T12:42:22.091Z</time>
      </trkpt>
      <trkpt lat="44.73135" lon="3.80119">
        <ele>1000.6732177734</ele>
        <time>2020-10-16T12:42:23.680Z</time>
      </trkpt>
      <trkpt lat="44.73129" lon="3.80114">
        <ele>1001.1732177734</ele>
        <time>2020-10-16T12:42:25.270Z</time>
      </trkpt>
      <trkpt lat="44.73125" lon="3.80105">
        <ele>1001.8289794922</ele>
        <time>2020-10-16T12:42:26.862Z</time>
      </trkpt>
      <trkpt lat="44.73123" lon="3.80098">
        <ele>1001.9901123047</ele>
        <time>2020-10-16T12:42:28.455Z</time>
      </trkpt>
      <trkpt lat="44.73125" lon="3.80087">
        <ele>1002.063659668</ele>
        <time>2020-10-16T12:42:30.049Z</time>
      </trkpt>
      <trkpt lat="44.73126" lon="3.80079">
        <ele>1002.1120605469</ele>
        <time>2020-10-16T12:42:31.645Z</time>
      </trkpt>
      <trkpt lat="44.7313" lon="3.8007">
        <ele>1002.098449707</ele>
        <time>2020-10-16T12:42:33.242Z</time>
      </trkpt>
      <trkpt lat="44.73132" lon="3.80063">
        <ele>1002.1111450195</ele>
        <time>2020-10-16T12:42:34.840Z</time>
      </trkpt>
      <trkpt lat="44.73134" lon="3.80056">
        <ele>1002.0861816406</ele>
        <time>2020-10-16T12:42:36.439Z</time>
      </trkpt>
      <trkpt lat="44.73136" lon="3.80049">
        <ele>1002.1195678711</ele>
        <time>2020-10-16T12:42:38.039Z</time>
      </trkpt>
      <trkpt lat="44.73136" lon="3.80042">
        <ele>1002.204284668</ele>
        <time>2020-10-16T12:42:39.640Z</time>
      </trkpt>
      <trkpt lat="44.73135" lon="3.80035">
        <ele>1002.3721923828</ele>
        <time>2020-10-16T12:42:41.242Z</time>
      </trkpt>
      <trkpt lat="44.73132" lon="3.80028">
        <ele>1002.7536010742</ele>
        <time>2020-10-16T12:42:42.845Z</time>
      </trkpt>
      <trkpt lat="44.73127" lon="3.80018">
        <ele>1003.1532592773</ele>
        <time>2020-10-16T12:42:44.450Z</time>
      </trkpt>
      <trkpt lat="44.73124" lon="3.80005">
        <ele>1003.4482421875</ele>
        <time>2020-10-16T12:42:46.057Z</time>
      </trkpt>
      <trkpt lat="44.7312" lon="3.79992">
        <ele>1003.5021972656</ele>
        <time>2020-10-16T12:42:47.666Z</time>
      </trkpt>
      <trkpt lat="44.73117" lon="3.79984">
        <ele>1003.2242431641</ele>
        <time>2020-10-16T12:42:49.276Z</time>
      </trkpt>
      <trkpt lat="44.73117" lon="3.79973">
        <ele>1003.486328125</ele>
        <time>2020-10-16T12:42:50.888Z</time>
      </trkpt>
      <trkpt lat="44.73118" lon="3.79961">
        <ele>1003.8807983398</ele>
        <time>2020-10-16T12:42:52.502Z</time>
      </trkpt>
      <trkpt lat="44.73117" lon="3.79954">
        <ele>1003.9612426758</ele>
        <time>2020-10-16T12:42:54.117Z</time>
      </trkpt>
      <trkpt lat="44.73115" lon="3.79944">
        <ele>1003.7970581055</ele>
        <time>2020-10-16T12:42:55.733Z</time>
      </trkpt>
      <trkpt lat="44.73114" lon="3.79934">
        <ele>1003.9213256836</ele>
        <time>2020-10-16T12:42:57.351Z</time>
      </trkpt>
      <trkpt lat="44.73114" lon="3.79925">
        <ele>1004.0326538086</ele>
        <time>2020-10-16T12:42:58.970Z</time>
      </trkpt>
      <trkpt lat="44.73112" lon="3.79913">
        <ele>1003.8717651367</ele>
        <time>2020-10-16T12:43:00.591Z</time>
      </trkpt>
      <trkpt lat="44.73109" lon="3.79898">
        <ele>1003.5863647461</ele>
        <time>2020-10-16T12:43:02.214Z</time>
      </trkpt>
      <trkpt lat="44.73109" lon="3.79886">
        <ele>1003.6564331055</ele>
        <time>2020-10-16T12:43:03.839Z</time>
      </trkpt>
      <trkpt lat="44.73111" lon="3.79881">
        <ele>1004.0432739258</ele>
        <time>2020-10-16T12:43:05.465Z</time>
      </trkpt>
      <trkpt lat="44.73113" lon="3.79878">
        <ele>1004.4658203125</ele>
        <time>2020-10-16T12:43:07.091Z</time>
      </trkpt>
      <trkpt lat="44.73117" lon="3.79874">
        <ele>1005.2576904297</ele>
        <time>2020-10-16T12:43:08.718Z</time>
      </trkpt>
      <trkpt lat="44.73121" lon="3.79868">
        <ele>1005.8548583984</ele>
        <time>2020-10-16T12:43:10.346Z</time>
      </trkpt>
      <trkpt lat="44.73123" lon="3.79864">
        <ele>1006.0186767578</ele>
        <time>2020-10-16T12:43:11.975Z</time>
      </trkpt>
      <trkpt lat="44.73127" lon="3.79856">
        <ele>1006.5646972656</ele>
        <time>2020-10-16T12:43:13.605Z</time>
      </trkpt>
      <trkpt lat="44.73127" lon="3.7985">
        <ele>1007.0771484375</ele>
        <time>2020-10-16T12:43:15.236Z</time>
      </trkpt>
      <trkpt lat="44.73126" lon="3.79844">
        <ele>1007.400390625</ele>
        <time>2020-10-16T12:43:16.868Z</time>
      </trkpt>
      <trkpt lat="44.73124" lon="3.79837">
        <ele>1007.7227172852</ele>
        <time>2020-10-16T12:43:18.501Z</time>
      </trkpt>
      <trkpt lat="44.73123" lon="3.79825">
        <ele>1008.4562988281</ele>
        <time>2020-10-16T12:43:20.136Z</time>
      </trkpt>
      <trkpt lat="44.73122" lon="3.79816">
        <ele>1008.997253418</ele>
        <time>2020-10-16T12:43:21.772Z</time>
      </trkpt>
      <trkpt lat="44.7312" lon="3.79803">
        <ele>1009.7029418945</ele>
        <time>2020-10-16T12:43:23.410Z</time>
      </trkpt>
      <trkpt lat="44.73116" lon="3.79794">
        <ele>1009.8063964844</ele>
        <time>2020-10-16T12:43:25.050Z</time>
      </trkpt>
      <trkpt lat="44.73111" lon="3.79782">
        <ele>1009.9025878906</ele>
        <time>2020-10-16T12:43:26.692Z</time>
      </trkpt>
      <trkpt lat="44.73108" lon="3.79775">
        <ele>1009.9275512695</ele>
        <time>2020-10-16T12:43:28.335Z</time>
      </trkpt>
      <trkpt lat="44.73105" lon="3.79768">
        <ele>1009.8344116211</ele>
        <time>2020-10-16T12:43:29.979Z</time>
      </trkpt>
      <trkpt lat="44.73105" lon="3.79756">
        <ele>1010.3363647461</ele>
        <time>2020-10-16T12:43:31.625Z</time>
      </trkpt>
      <trkpt lat="44.73105" lon="3.79737">
        <ele>1011.7809448242</ele>
        <time>2020-10-16T12:43:33.273Z</time>
      </trkpt>
      <trkpt lat="44.73106" lon="3.79721">
        <ele>1012.9853515625</ele>
        <time>2020-10-16T12:43:34.924Z</time>
      </trkpt>
      <trkpt lat="44.73108" lon="3.79707">
        <ele>1014.3305053711</ele>
        <time>2020-10-16T12:43:36.577Z</time>
      </trkpt>
      <trkpt lat="44.7311" lon="3.79698">
        <ele>1015.3375854492</ele>
        <time>2020-10-16T12:43:38.231Z</time>
      </trkpt>
      <trkpt lat="44.73108" lon="3.79682">
        <ele>1015.9281005859</ele>
        <time>2020-10-16T12:43:39.887Z</time>
      </trkpt>
      <trkpt lat="44.73104" lon="3.79669">
        <ele>1015.4296264648</ele>
        <time>2020-10-16T12:43:41.545Z</time>
      </trkpt>
      <trkpt lat="44.731" lon="3.7965">
        <ele>1014.8267822266</ele>
        <time>2020-10-16T12:43:43.206Z</time>
      </trkpt>
      <trkpt lat="44.73097" lon="3.79636">
        <ele>1014.3076782227</ele>
        <time>2020-10-16T12:43:44.869Z</time>
      </trkpt>
      <trkpt lat="44.73097" lon="3.79624">
        <ele>1014.3508911133</ele>
        <time>2020-10-16T12:43:46.534Z</time>
      </trkpt>
      <trkpt lat="44.73097" lon="3.79612">
        <ele>1014.3634643555</ele>
        <time>2020-10-16T12:43:48.201Z</time>
      </trkpt>
      <trkpt lat="44.73097" lon="3.79595">
        <ele>1014.842956543</ele>
        <time>2020-10-16T12:43:49.870Z</time>
      </trkpt>
      <trkpt lat="44.73097" lon="3.79582">
        <ele>1015.3876953125</ele>
        <time>2020-10-16T12:43:51.541Z</time>
      </trkpt>
      <trkpt lat="44.73095" lon="3.79571">
        <ele>1015.4834594727</ele>
        <time>2020-10-16T12:43:53.214Z</time>
      </trkpt>
      <trkpt lat="44.73094" lon="3.79563">
        <ele>1015.4577026367</ele>
        <time>2020-10-16T12:43:54.888Z</time>
      </trkpt>
      <trkpt lat="44.73092" lon="3.79551">
        <ele>1015.4869384766</ele>
        <time>2020-10-16T12:43:56.563Z</time>
      </trkpt>
      <trkpt lat="44.73091" lon="3.79538">
        <ele>1015.6447143555</ele>
        <time>2020-10-16T12:43:58.240Z</time>
      </trkpt>
      <trkpt lat="44.73088" lon="3.79529">
        <ele>1015.4885253906</ele>
        <time>2020-10-16T12:43:59.919Z</time>
      </trkpt>
      <trkpt lat="44.73087" lon="3.79516">
        <ele>1016.1101074219</ele>
        <time>2020-10-16T12:44:01.600Z</time>
      </trkpt>
      <trkpt lat="44.73086" lon="3.79498">
        <ele>1017.9658813477</ele>
        <time>2020-10-16T12:44:03.283Z</time>
      </trkpt>
      <trkpt lat="44.73083" lon="3.79472">
        <ele>1019.979309082</ele>
        <time>2020-10-16T12:44:04.970Z</time>
      </trkpt>
      <trkpt lat="44.73075" lon="3.79429">
        <ele>1022.8854980469</ele>
        <time>2020-10-16T12:44:06.663Z</time>
      </trkpt>
      <trkpt lat="44.73071" lon="3.7941">
        <ele>1025.3088378906</ele>
        <time>2020-10-16T12:44:08.359Z</time>
      </trkpt>
      <trkpt lat="44.73068" lon="3.79402">
        <ele>1026.2004394531</ele>
        <time>2020-10-16T12:44:10.056Z</time>
      </trkpt>
      <trkpt lat="44.73066" lon="3.79399">
        <ele>1026.4676513672</ele>
        <time>2020-10-16T12:44:11.754Z</time>
      </trkpt>
      <trkpt lat="44.73064" lon="3.79388">
        <ele>1027.8948974609</ele>
        <time>2020-10-16T12:44:13.454Z</time>
      </trkpt>
      <trkpt lat="44.73066" lon="3.79375">
        <ele>1028.7193603516</ele>
        <time>2020-10-16T12:44:15.155Z</time>
      </trkpt>
      <trkpt lat="44.7307" lon="3.79356">
        <ele>1028.7937011719</ele>
        <time>2020-10-16T12:44:16.859Z</time>
      </trkpt>
      <trkpt lat="44.73073" lon="3.79343">
        <ele>1029.5831298828</ele>
        <time>2020-10-16T12:44:18.565Z</time>
      </trkpt>
      <trkpt lat="44.73078" lon="3.79327">
        <ele>1030.5472412109</ele>
        <time>2020-10-16T12:44:20.274Z</time>
      </trkpt>
      <trkpt lat="44.73083" lon="3.79313">
        <ele>1031.0350341797</ele>
        <time>2020-10-16T12:44:21.985Z</time>
      </trkpt>
      <trkpt lat="44.73086" lon="3.79302">
        <ele>1030.779296875</ele>
        <time>2020-10-16T12:44:23.698Z</time>
      </trkpt>
      <trkpt lat="44.73089" lon="3.7929">
        <ele>1030.4201660156</ele>
        <time>2020-10-16T12:44:25.413Z</time>
      </trkpt>
      <trkpt lat="44.73091" lon="3.79278">
        <ele>1030.1435546875</ele>
        <time>2020-10-16T12:44:27.129Z</time>
      </trkpt>
      <trkpt lat="44.73095" lon="3.79267">
        <ele>1030.1857910156</ele>
        <time>2020-10-16T12:44:28.847Z</time>
      </trkpt>
      <trkpt lat="44.73098" lon="3.79258">
        <ele>1030.6877441406</ele>
        <time>2020-10-16T12:44:30.566Z</time>
      </trkpt>
      <trkpt lat="44.731" lon="3.79247">
        <ele>1031.4564208984</ele>
        <time>2020-10-16T12:44:32.287Z</time>
      </trkpt>
      <trkpt lat="44.73102" lon="3.79234">
        <ele>1032.3375244141</ele>
        <time>2020-10-16T12:44:34.010Z</time>
      </trkpt>
      <trkpt lat="44.73104" lon="3.79224">
        <ele>1032.9963378906</ele>
        <time>2020-10-16T12:44:35.734Z</time>
      </trkpt>
      <trkpt lat="44.73107" lon="3.79209">
        <ele>1033.8953857422</ele>
        <time>2020-10-16T12:44:37.461Z</time>
      </trkpt>
      <trkpt lat="44.73111" lon="3.79193">
        <ele>1034.7446289062</ele>
        <time>2020-10-16T12:44:39.190Z</time>
      </trkpt>
      <trkpt lat="44.73115" lon="3.79175">
        <ele>1035.6934814453</ele>
        <time>2020-10-16T12:44:40.922Z</time>
      </trkpt>
      <trkpt lat="44.73116" lon="3.79162">
        <ele>1036.6549072266</ele>
        <time>2020-10-16T12:44:42.656Z</time>
      </trkpt>
      <trkpt lat="44.73116" lon="3.79155">
        <ele>1037.2376708984</ele>
        <time>2020-10-16T12:44:44.391Z</time>
      </trkpt>
      <trkpt lat="44.73116" lon="3.79142">
        <ele>1038.2843017578</ele>
        <time>2020-10-16T12:44:46.127Z</time>
      </trkpt>
      <trkpt lat="44.73117" lon="3.79126">
        <ele>1039.5424804688</ele>
        <time>2020-10-16T12:44:47.866Z</time>
      </trkpt>
      <trkpt lat="44.73119" lon="3.79107">
        <ele>1041.0422363281</ele>
        <time>2020-10-16T12:44:49.608Z</time>
      </trkpt>
      <trkpt lat="44.73117" lon="3.79087">
        <ele>1040.8424072266</ele>
        <time>2020-10-16T12:44:51.352Z</time>
      </trkpt>
      <trkpt lat="44.73115" lon="3.79069">
        <ele>1040.5621337891</ele>
        <time>2020-10-16T12:44:53.099Z</time>
      </trkpt>
      <trkpt lat="44.73114" lon="3.7906">
        <ele>1040.3349609375</ele>
        <time>2020-10-16T12:44:54.847Z</time>
      </trkpt>
      <trkpt lat="44.73116" lon="3.79048">
        <ele>1039.6708984375</ele>
        <time>2020-10-16T12:44:56.597Z</time>
      </trkpt>
      <trkpt lat="44.73118" lon="3.79039">
        <ele>1039.0709228516</ele>
        <time>2020-10-16T12:44:58.348Z</time>
      </trkpt>
      <trkpt lat="44.73118" lon="3.79029">
        <ele>1038.6402587891</ele>
        <time>2020-10-16T12:45:00.101Z</time>
      </trkpt>
      <trkpt lat="44.73118" lon="3.79016">
        <ele>1038.2741699219</ele>
        <time>2020-10-16T12:45:01.856Z</time>
      </trkpt>
      <trkpt lat="44.73117" lon="3.79004">
        <ele>1038.1762695312</ele>
        <time>2020-10-16T12:45:03.612Z</time>
      </trkpt>
      <trkpt lat="44.73116" lon="3.7899">
        <ele>1038.0816650391</ele>
        <time>2020-10-16T12:45:05.370Z</time>
      </trkpt>
      <trkpt lat="44.73112" lon="3.78977">
        <ele>1038.2879638672</ele>
        <time>2020-10-16T12:45:07.130Z</time>
      </trkpt>
      <trkpt lat="44.73108" lon="3.78957">
        <ele>1038.5747070312</ele>
        <time>2020-10-16T12:45:08.893Z</time>
      </trkpt>
      <trkpt lat="44.73105" lon="3.78941">
        <ele>1038.7590332031</ele>
        <time>2020-10-16T12:45:10.659Z</time>
      </trkpt>
      <trkpt lat="44.73103" lon="3.78921">
        <ele>1039.2230224609</ele>
        <time>2020-10-16T12:45:12.428Z</time>
      </trkpt>
      <trkpt lat="44.73103" lon="3.78894">
        <ele>1039.8387451172</ele>
        <time>2020-10-16T12:45:14.200Z</time>
      </trkpt>
      <trkpt lat="44.73103" lon="3.78881">
        <ele>1040.0727539062</ele>
        <time>2020-10-16T12:45:15.974Z</time>
      </trkpt>
      <trkpt lat="44.73108" lon="3.78864">
        <ele>1039.7731933594</ele>
        <time>2020-10-16T12:45:17.751Z</time>
      </trkpt>
      <trkpt lat="44.73111" lon="3.78852">
        <ele>1039.5411376953</ele>
        <time>2020-10-16T12:45:19.530Z</time>
      </trkpt>
      <trkpt lat="44.7312" lon="3.78832">
        <ele>1039.9934082031</ele>
        <time>2020-10-16T12:45:21.312Z</time>
      </trkpt>
      <trkpt lat="44.73125" lon="3.78819">
        <ele>1040.7492675781</ele>
        <time>2020-10-16T12:45:23.096Z</time>
      </trkpt>
      <trkpt lat="44.73129" lon="3.78806">
        <ele>1041.6330566406</ele>
        <time>2020-10-16T12:45:24.882Z</time>
      </trkpt>
      <trkpt lat="44.73134" lon="3.78778">
        <ele>1043.3581542969</ele>
        <time>2020-10-16T12:45:26.672Z</time>
      </trkpt>
      <trkpt lat="44.73144" lon="3.78731">
        <ele>1043.7554931641</ele>
        <time>2020-10-16T12:45:28.469Z</time>
      </trkpt>
      <trkpt lat="44.7315" lon="3.787">
        <ele>1044.9350585938</ele>
        <time>2020-10-16T12:45:30.271Z</time>
      </trkpt>
      <trkpt lat="44.73154" lon="3.78683">
        <ele>1045.8634033203</ele>
        <time>2020-10-16T12:45:32.075Z</time>
      </trkpt>
      <trkpt lat="44.73158" lon="3.78648">
        <ele>1046.1568603516</ele>
        <time>2020-10-16T12:45:33.884Z</time>
      </trkpt>
      <trkpt lat="44.73162" lon="3.7862">
        <ele>1046.0258789062</ele>
        <time>2020-10-16T12:45:35.697Z</time>
      </trkpt>
      <trkpt lat="44.73168" lon="3.78587">
        <ele>1046.3701171875</ele>
        <time>2020-10-16T12:45:37.515Z</time>
      </trkpt>
      <trkpt lat="44.73173" lon="3.78556">
        <ele>1046.5629882812</ele>
        <time>2020-10-16T12:45:39.338Z</time>
      </trkpt>
      <trkpt lat="44.73178" lon="3.78536">
        <ele>1046.1989746094</ele>
        <time>2020-10-16T12:45:41.164Z</time>
      </trkpt>
      <trkpt lat="44.7318" lon="3.78519">
        <ele>1045.9616699219</ele>
        <time>2020-10-16T12:45:42.992Z</time>
      </trkpt>
      <trkpt lat="44.73183" lon="3.78496">
        <ele>1045.1831054688</ele>
        <time>2020-10-16T12:45:44.824Z</time>
      </trkpt>
      <trkpt lat="44.73185" lon="3.78472">
        <ele>1044.7486572266</ele>
        <time>2020-10-16T12:45:46.659Z</time>
      </trkpt>
      <trkpt lat="44.73186" lon="3.7846">
        <ele>1044.5775146484</ele>
        <time>2020-10-16T12:45:48.496Z</time>
      </trkpt>
      <trkpt lat="44.7318" lon="3.78444">
        <ele>1044.7670898438</ele>
        <time>2020-10-16T12:45:50.335Z</time>
      </trkpt>
      <trkpt lat="44.73178" lon="3.78428">
        <ele>1044.5487060547</ele>
        <time>2020-10-16T12:45:52.177Z</time>
      </trkpt>
      <trkpt lat="44.73179" lon="3.78418">
        <ele>1044.0494384766</ele>
        <time>2020-10-16T12:45:54.020Z</time>
      </trkpt>
      <trkpt lat="44.73181" lon="3.78409">
        <ele>1043.7657470703</ele>
        <time>2020-10-16T12:45:55.865Z</time>
      </trkpt>
      <trkpt lat="44.73181" lon="3.78398">
        <ele>1043.6090087891</ele>
        <time>2020-10-16T12:45:57.711Z</time>
      </trkpt>
      <trkpt lat="44.73181" lon="3.78389">
        <ele>1043.5026855469</ele>
        <time>2020-10-16T12:45:59.558Z</time>
      </trkpt>
      <trkpt lat="44.73181" lon="3.78366">
        <ele>1043.2471923828</ele>
        <time>2020-10-16T12:46:01.409Z</time>
      </trkpt>
      <trkpt lat="44.73179" lon="3.7834">
        <ele>1043.5428466797</ele>
        <time>2020-10-16T12:46:03.263Z</time>
      </trkpt>
      <trkpt lat="44.7318" lon="3.78326">
        <ele>1043.9283447266</ele>
        <time>2020-10-16T12:46:05.119Z</time>
      </trkpt>
      <trkpt lat="44.73184" lon="3.78308">
        <ele>1044.4102783203</ele>
        <time>2020-10-16T12:46:06.978Z</time>
      </trkpt>
      <trkpt lat="44.73187" lon="3.78298">
        <ele>1044.6716308594</ele>
        <time>2020-10-16T12:46:08.839Z</time>
      </trkpt>
      <trkpt lat="44.73197" lon="3.78274">
        <ele>1045.1654052734</ele>
        <time>2020-10-16T12:46:10.704Z</time>
      </trkpt>
      <trkpt lat="44.73201" lon="3.78261">
        <ele>1045.4681396484</ele>
        <time>2020-10-16T12:46:12.571Z</time>
      </trkpt>
      <trkpt lat="44.73203" lon="3.7825">
        <ele>1045.5965576172</ele>
        <time>2020-10-16T12:46:14.439Z</time>
      </trkpt>
      <trkpt lat="44.73205" lon="3.78233">
        <ele>1045.8668212891</ele>
        <time>2020-10-16T12:46:16.310Z</time>
      </trkpt>
      <trkpt lat="44.73207" lon="3.78217">
        <ele>1046.0906982422</ele>
        <time>2020-10-16T12:46:18.183Z</time>
      </trkpt>
      <trkpt lat="44.73209" lon="3.78206">
        <ele>1046.2379150391</ele>
        <time>2020-10-16T12:46:20.058Z</time>
      </trkpt>
      <trkpt lat="44.73207" lon="3.78189">
        <ele>1046.7547607422</ele>
        <time>2020-10-16T12:46:21.935Z</time>
      </trkpt>
      <trkpt lat="44.73206" lon="3.7817">
        <ele>1047.5201416016</ele>
        <time>2020-10-16T12:46:23.815Z</time>
      </trkpt>
      <trkpt lat="44.73206" lon="3.78151">
        <ele>1048.2203369141</ele>
        <time>2020-10-16T12:46:25.698Z</time>
      </trkpt>
      <trkpt lat="44.73207" lon="3.7814">
        <ele>1048.5715332031</ele>
        <time>2020-10-16T12:46:27.582Z</time>
      </trkpt>
      <trkpt lat="44.73211" lon="3.7813">
        <ele>1048.6854248047</ele>
        <time>2020-10-16T12:46:29.468Z</time>
      </trkpt>
      <trkpt lat="44.73218" lon="3.78117">
        <ele>1048.7796630859</ele>
        <time>2020-10-16T12:46:31.356Z</time>
      </trkpt>
      <trkpt lat="44.73222" lon="3.781">
        <ele>1049.5806884766</ele>
        <time>2020-10-16T12:46:33.247Z</time>
      </trkpt>
      <trkpt lat="44.73226" lon="3.78083">
        <ele>1050.2436523438</ele>
        <time>2020-10-16T12:46:35.140Z</time>
      </trkpt>
      <trkpt lat="44.73233" lon="3.78061">
        <ele>1051.078125</ele>
        <time>2020-10-16T12:46:37.037Z</time>
      </trkpt>
      <trkpt lat="44.73238" lon="3.78049">
        <ele>1051.3787841797</ele>
        <time>2020-10-16T12:46:38.936Z</time>
      </trkpt>
      <trkpt lat="44.73245" lon="3.78025">
        <ele>1051.8757324219</ele>
        <time>2020-10-16T12:46:40.838Z</time>
      </trkpt>
      <trkpt lat="44.73249" lon="3.78014">
        <ele>1052.1114501953</ele>
        <time>2020-10-16T12:46:42.742Z</time>
      </trkpt>
      <trkpt lat="44.73249" lon="3.78012">
        <ele>1052.1575927734</ele>
        <time>2020-10-16T12:46:44.646Z</time>
      </trkpt>
      <trkpt lat="44.73251" lon="3.78001">
        <ele>1052.4533691406</ele>
        <time>2020-10-16T12:46:46.552Z</time>
      </trkpt>
      <trkpt lat="44.73268" lon="3.78007">
        <ele>1051.447265625</ele>
        <time>2020-10-16T12:46:48.461Z</time>
      </trkpt>
      <trkpt lat="44.73281" lon="3.78016">
        <ele>1050.5268554688</ele>
        <time>2020-10-16T12:46:50.373Z</time>
      </trkpt>
      <trkpt lat="44.73288" lon="3.78019">
        <ele>1049.9949951172</ele>
        <time>2020-10-16T12:46:52.287Z</time>
      </trkpt>
      <trkpt lat="44.73296" lon="3.7802">
        <ele>1049.6856689453</ele>
        <time>2020-10-16T12:46:54.202Z</time>
      </trkpt>
      <trkpt lat="44.73303" lon="3.7802">
        <ele>1049.4613037109</ele>
        <time>2020-10-16T12:46:56.119Z</time>
      </trkpt>
      <trkpt lat="44.73303" lon="3.7802">
        <ele>1049.4443359375</ele>
        <time>2020-10-16T12:46:58.036Z</time>
      </trkpt>
      <trkpt lat="44.73312" lon="3.78017">
        <ele>1049.169921875</ele>
        <time>2020-10-16T12:46:59.955Z</time>
      </trkpt>
      <trkpt lat="44.73331" lon="3.7801">
        <ele>1048.5433349609</ele>
        <time>2020-10-16T12:47:01.878Z</time>
      </trkpt>
      <trkpt lat="44.73347" lon="3.7801">
        <ele>1048.0015869141</ele>
        <time>2020-10-16T12:47:03.804Z</time>
      </trkpt>
      <trkpt lat="44.73351" lon="3.7801">
        <ele>1047.8485107422</ele>
        <time>2020-10-16T12:47:05.730Z</time>
      </trkpt>
      <trkpt lat="44.73389" lon="3.78016">
        <ele>1046.8500976562</ele>
        <time>2020-10-16T12:47:07.664Z</time>
      </trkpt>
      <trkpt lat="44.73411" lon="3.78023">
        <ele>1046.037109375</ele>
        <time>2020-10-16T12:47:09.603Z</time>
      </trkpt>
      <trkpt lat="44.73423" lon="3.78026">
        <ele>1045.7413330078</ele>
        <time>2020-10-16T12:47:11.544Z</time>
      </trkpt>
      <trkpt lat="44.73437" lon="3.78028">
        <ele>1045.4180908203</ele>
        <time>2020-10-16T12:47:13.488Z</time>
      </trkpt>
      <trkpt lat="44.73474" lon="3.78029">
        <ele>1043.0794677734</ele>
        <time>2020-10-16T12:47:15.439Z</time>
      </trkpt>
      <trkpt lat="44.73496" lon="3.78029">
        <ele>1040.6746826172</ele>
        <time>2020-10-16T12:47:17.395Z</time>
      </trkpt>
      <trkpt lat="44.73508" lon="3.78025">
        <ele>1039.2780761719</ele>
        <time>2020-10-16T12:47:19.353Z</time>
      </trkpt>
      <trkpt lat="44.73521" lon="3.78025">
        <ele>1037.9099121094</ele>
        <time>2020-10-16T12:47:21.314Z</time>
      </trkpt>
      <trkpt lat="44.7353" lon="3.78028">
        <ele>1037.0202636719</ele>
        <time>2020-10-16T12:47:23.277Z</time>
      </trkpt>
      <trkpt lat="44.73541" lon="3.78031">
        <ele>1035.8729248047</ele>
        <time>2020-10-16T12:47:25.242Z</time>
      </trkpt>
      <trkpt lat="44.73546" lon="3.78031">
        <ele>1035.0322265625</ele>
        <time>2020-10-16T12:47:27.208Z</time>
      </trkpt>
      <trkpt lat="44.73555" lon="3.78029">
        <ele>1034.5655517578</ele>
        <time>2020-10-16T12:47:29.176Z</time>
      </trkpt>
      <trkpt lat="44.73578" lon="3.78022">
        <ele>1033.5393066406</ele>
        <time>2020-10-16T12:47:31.148Z</time>
      </trkpt>
      <trkpt lat="44.73583" lon="3.78019">
        <ele>1033.2578125</ele>
        <time>2020-10-16T12:47:33.121Z</time>
      </trkpt>
      <trkpt lat="44.7359" lon="3.78014">
        <ele>1032.8354492188</ele>
        <time>2020-10-16T12:47:35.096Z</time>
      </trkpt>
      <trkpt lat="44.73595" lon="3.78011">
        <ele>1032.5256347656</ele>
        <time>2020-10-16T12:47:37.072Z</time>
      </trkpt>
      <trkpt lat="44.736" lon="3.78011">
        <ele>1032.259765625</ele>
        <time>2020-10-16T12:47:39.049Z</time>
      </trkpt>
      <trkpt lat="44.73605" lon="3.78012">
        <ele>1031.9344482422</ele>
        <time>2020-10-16T12:47:41.027Z</time>
      </trkpt>
      <trkpt lat="44.73616" lon="3.78016">
        <ele>1031.2458496094</ele>
        <time>2020-10-16T12:47:43.007Z</time>
      </trkpt>
      <trkpt lat="44.73623" lon="3.78017">
        <ele>1030.7238769531</ele>
        <time>2020-10-16T12:47:44.989Z</time>
      </trkpt>
      <trkpt lat="44.73635" lon="3.78017">
        <ele>1029.7718505859</ele>
        <time>2020-10-16T12:47:46.973Z</time>
      </trkpt>
      <trkpt lat="44.73645" lon="3.78015">
        <ele>1028.9176025391</ele>
        <time>2020-10-16T12:47:48.959Z</time>
      </trkpt>
      <trkpt lat="44.73658" lon="3.78009">
        <ele>1027.7567138672</ele>
        <time>2020-10-16T12:47:50.948Z</time>
      </trkpt>
      <trkpt lat="44.73676" lon="3.78">
        <ele>1026.1170654297</ele>
        <time>2020-10-16T12:47:52.941Z</time>
      </trkpt>
      <trkpt lat="44.73686" lon="3.77997">
        <ele>1025.5373535156</ele>
        <time>2020-10-16T12:47:54.936Z</time>
      </trkpt>
      <trkpt lat="44.73695" lon="3.77997">
        <ele>1025.1879882812</ele>
        <time>2020-10-16T12:47:56.933Z</time>
      </trkpt>
      <trkpt lat="44.73699" lon="3.77998">
        <ele>1025.0073242188</ele>
        <time>2020-10-16T12:47:58.930Z</time>
      </trkpt>
      <trkpt lat="44.73708" lon="3.78">
        <ele>1024.6015625</ele>
        <time>2020-10-16T12:48:00.929Z</time>
      </trkpt>
      <trkpt lat="44.73719" lon="3.78003">
        <ele>1023.92578125</ele>
        <time>2020-10-16T12:48:02.931Z</time>
      </trkpt>
      <trkpt lat="44.73727" lon="3.78009">
        <ele>1023.3375244141</ele>
        <time>2020-10-16T12:48:04.934Z</time>
      </trkpt>
      <trkpt lat="44.73736" lon="3.78018">
        <ele>1022.6209716797</ele>
        <time>2020-10-16T12:48:06.939Z</time>
      </trkpt>
      <trkpt lat="44.73745" lon="3.78027">
        <ele>1022.016418457</ele>
        <time>2020-10-16T12:48:08.947Z</time>
      </trkpt>
      <trkpt lat="44.73774" lon="3.78045">
        <ele>1020.6527099609</ele>
        <time>2020-10-16T12:48:10.961Z</time>
      </trkpt>
      <trkpt lat="44.73786" lon="3.78052">
        <ele>1020.0629882812</ele>
        <time>2020-10-16T12:48:12.978Z</time>
      </trkpt>
      <trkpt lat="44.73792" lon="3.78054">
        <ele>1019.6904907227</ele>
        <time>2020-10-16T12:48:14.996Z</time>
      </trkpt>
      <trkpt lat="44.73798" lon="3.78055">
        <ele>1019.2691040039</ele>
        <time>2020-10-16T12:48:17.015Z</time>
      </trkpt>
      <trkpt lat="44.73817" lon="3.78051">
        <ele>1017.8781738281</ele>
        <time>2020-10-16T12:48:19.038Z</time>
      </trkpt>
      <trkpt lat="44.73836" lon="3.78049">
        <ele>1017.0114746094</ele>
        <time>2020-10-16T12:48:21.065Z</time>
      </trkpt>
      <trkpt lat="44.73845" lon="3.78052">
        <ele>1016.4825439453</ele>
        <time>2020-10-16T12:48:23.094Z</time>
      </trkpt>
      <trkpt lat="44.73857" lon="3.78058">
        <ele>1015.7934570312</ele>
        <time>2020-10-16T12:48:25.125Z</time>
      </trkpt>
      <trkpt lat="44.73872" lon="3.78066">
        <ele>1014.8947753906</ele>
        <time>2020-10-16T12:48:27.159Z</time>
      </trkpt>
      <trkpt lat="44.73893" lon="3.78076">
        <ele>1013.8915405273</ele>
        <time>2020-10-16T12:48:29.198Z</time>
      </trkpt>
      <trkpt lat="44.73899" lon="3.78081">
        <ele>1013.5343017578</ele>
        <time>2020-10-16T12:48:31.238Z</time>
      </trkpt>
      <trkpt lat="44.73917" lon="3.78092">
        <ele>1012.6344604492</ele>
        <time>2020-10-16T12:48:33.282Z</time>
      </trkpt>
      <trkpt lat="44.7394" lon="3.78102">
        <ele>1011.5700683594</ele>
        <time>2020-10-16T12:48:35.331Z</time>
      </trkpt>
      <trkpt lat="44.73963" lon="3.78112">
        <ele>1009.8956298828</ele>
        <time>2020-10-16T12:48:37.385Z</time>
      </trkpt>
      <trkpt lat="44.73993" lon="3.78121">
        <ele>1007.2366943359</ele>
        <time>2020-10-16T12:48:39.445Z</time>
      </trkpt>
      <trkpt lat="44.74008" lon="3.78126">
        <ele>1005.8001098633</ele>
        <time>2020-10-16T12:48:41.508Z</time>
      </trkpt>
      <trkpt lat="44.74022" lon="3.78133">
        <ele>1004.4588623047</ele>
        <time>2020-10-16T12:48:43.574Z</time>
      </trkpt>
      <trkpt lat="44.74029" lon="3.78135">
        <ele>1003.783996582</ele>
        <time>2020-10-16T12:48:45.641Z</time>
      </trkpt>
      <trkpt lat="44.74049" lon="3.78136">
        <ele>1001.7072753906</ele>
        <time>2020-10-16T12:48:47.712Z</time>
      </trkpt>
      <trkpt lat="44.74072" lon="3.78132">
        <ele>999.24139404297</ele>
        <time>2020-10-16T12:48:49.788Z</time>
      </trkpt>
      <trkpt lat="44.7409" lon="3.78123">
        <ele>997.52825927734</ele>
        <time>2020-10-16T12:48:51.868Z</time>
      </trkpt>
      <trkpt lat="44.74105" lon="3.78113">
        <ele>996.39739990234</ele>
        <time>2020-10-16T12:48:53.951Z</time>
      </trkpt>
      <trkpt lat="44.74123" lon="3.78106">
        <ele>994.796875</ele>
        <time>2020-10-16T12:48:56.038Z</time>
      </trkpt>
      <trkpt lat="44.74127" lon="3.78106">
        <ele>994.38995361328</ele>
        <time>2020-10-16T12:48:58.126Z</time>
      </trkpt>
      <trkpt lat="44.74135" lon="3.78107">
        <ele>993.66375732422</ele>
        <time>2020-10-16T12:49:00.215Z</time>
      </trkpt>
      <trkpt lat="44.74142" lon="3.78113">
        <ele>992.806640625</ele>
        <time>2020-10-16T12:49:02.306Z</time>
      </trkpt>
      <trkpt lat="44.74154" lon="3.78129">
        <ele>991.01336669922</ele>
        <time>2020-10-16T12:49:04.400Z</time>
      </trkpt>
      <trkpt lat="44.7416" lon="3.78133">
        <ele>990.34918212891</ele>
        <time>2020-10-16T12:49:06.496Z</time>
      </trkpt>
      <trkpt lat="44.74169" lon="3.78136">
        <ele>989.45324707031</ele>
        <time>2020-10-16T12:49:08.593Z</time>
      </trkpt>
      <trkpt lat="44.74177" lon="3.78137">
        <ele>988.76434326172</ele>
        <time>2020-10-16T12:49:10.692Z</time>
      </trkpt>
      <trkpt lat="44.7418" lon="3.78139">
        <ele>988.34332275391</ele>
        <time>2020-10-16T12:49:12.792Z</time>
      </trkpt>
      <trkpt lat="44.74181" lon="3.78143">
        <ele>988.12878417969</ele>
        <time>2020-10-16T12:49:14.892Z</time>
      </trkpt>
      <trkpt lat="44.7418" lon="3.78149">
        <ele>987.88604736328</ele>
        <time>2020-10-16T12:49:16.993Z</time>
      </trkpt>
      <trkpt lat="44.74179" lon="3.78155">
        <ele>987.72869873047</ele>
        <time>2020-10-16T12:49:19.095Z</time>
      </trkpt>
      <trkpt lat="44.74181" lon="3.78164">
        <ele>987.08251953125</ele>
        <time>2020-10-16T12:49:21.199Z</time>
      </trkpt>
      <trkpt lat="44.74188" lon="3.78169">
        <ele>986.30963134766</ele>
        <time>2020-10-16T12:49:23.304Z</time>
      </trkpt>
      <trkpt lat="44.74226" lon="3.78188">
        <ele>982.92175292969</ele>
        <time>2020-10-16T12:49:25.417Z</time>
      </trkpt>
      <trkpt lat="44.7427" lon="3.7821">
        <ele>980.31164550781</ele>
        <time>2020-10-16T12:49:27.540Z</time>
      </trkpt>
      <trkpt lat="44.74304" lon="3.78227">
        <ele>979.45733642578</ele>
        <time>2020-10-16T12:49:29.670Z</time>
      </trkpt>
      <trkpt lat="44.74329" lon="3.78241">
        <ele>979.71630859375</ele>
        <time>2020-10-16T12:49:31.805Z</time>
      </trkpt>
      <trkpt lat="44.74339" lon="3.78248">
        <ele>979.80938720703</ele>
        <time>2020-10-16T12:49:33.942Z</time>
      </trkpt>
      <trkpt lat="44.74338" lon="3.7823">
        <ele>980.21478271484</ele>
        <time>2020-10-16T12:49:36.082Z</time>
      </trkpt>
      <trkpt lat="44.74346" lon="3.78205">
        <ele>981.00653076172</ele>
        <time>2020-10-16T12:49:38.226Z</time>
      </trkpt>
      <trkpt lat="44.74355" lon="3.78188">
        <ele>981.62384033203</ele>
        <time>2020-10-16T12:49:40.373Z</time>
      </trkpt>
      <trkpt lat="44.74363" lon="3.78176">
        <ele>981.70654296875</ele>
        <time>2020-10-16T12:49:42.522Z</time>
      </trkpt>
      <trkpt lat="44.74365" lon="3.7816">
        <ele>981.3271484375</ele>
        <time>2020-10-16T12:49:44.674Z</time>
      </trkpt>
      <trkpt lat="44.74365" lon="3.78149">
        <ele>981.06237792969</ele>
        <time>2020-10-16T12:49:46.827Z</time>
      </trkpt>
      <trkpt lat="44.74364" lon="3.78135">
        <ele>980.73492431641</ele>
        <time>2020-10-16T12:49:48.982Z</time>
      </trkpt>
      <trkpt lat="44.74376" lon="3.78112">
        <ele>980.39770507812</ele>
        <time>2020-10-16T12:49:51.141Z</time>
      </trkpt>
      <trkpt lat="44.74386" lon="3.78089">
        <ele>980.177734375</ele>
        <time>2020-10-16T12:49:53.304Z</time>
      </trkpt>
      <trkpt lat="44.74399" lon="3.78083">
        <ele>980.77740478516</ele>
        <time>2020-10-16T12:49:55.470Z</time>
      </trkpt>
      <trkpt lat="44.74415" lon="3.78083">
        <ele>981.89831542969</ele>
        <time>2020-10-16T12:49:57.639Z</time>
      </trkpt>
      <trkpt lat="44.74423" lon="3.78075">
        <ele>982.01977539062</ele>
        <time>2020-10-16T12:49:59.810Z</time>
      </trkpt>
      <trkpt lat="44.74431" lon="3.78048">
        <ele>980.55621337891</ele>
        <time>2020-10-16T12:50:01.985Z</time>
      </trkpt>
      <trkpt lat="44.74444" lon="3.78028">
        <ele>979.81323242188</ele>
        <time>2020-10-16T12:50:04.164Z</time>
      </trkpt>
      <trkpt lat="44.74452" lon="3.78011">
        <ele>979.03033447266</ele>
        <time>2020-10-16T12:50:06.346Z</time>
      </trkpt>
      <trkpt lat="44.74458" lon="3.77996">
        <ele>977.39233398438</ele>
        <time>2020-10-16T12:50:08.530Z</time>
      </trkpt>
      <trkpt lat="44.74467" lon="3.77979">
        <ele>975.32891845703</ele>
        <time>2020-10-16T12:50:10.717Z</time>
      </trkpt>
      <trkpt lat="44.74479" lon="3.77972">
        <ele>974.1337890625</ele>
        <time>2020-10-16T12:50:12.907Z</time>
      </trkpt>
      <trkpt lat="44.74498" lon="3.77967">
        <ele>973.75408935547</ele>
        <time>2020-10-16T12:50:15.101Z</time>
      </trkpt>
      <trkpt lat="44.74517" lon="3.77959">
        <ele>974.00915527344</ele>
        <time>2020-10-16T12:50:17.299Z</time>
      </trkpt>
      <trkpt lat="44.74527" lon="3.77944">
        <ele>973.88708496094</ele>
        <time>2020-10-16T12:50:19.500Z</time>
      </trkpt>
      <trkpt lat="44.74541" lon="3.77927">
        <ele>972.60302734375</ele>
        <time>2020-10-16T12:50:21.704Z</time>
      </trkpt>
      <trkpt lat="44.7456" lon="3.77914">
        <ele>969.53234863281</ele>
        <time>2020-10-16T12:50:23.913Z</time>
      </trkpt>
      <trkpt lat="44.7458" lon="3.77895">
        <ele>965.98120117188</ele>
        <time>2020-10-16T12:50:26.126Z</time>
      </trkpt>
      <trkpt lat="44.746" lon="3.77874">
        <ele>965.47601318359</ele>
        <time>2020-10-16T12:50:28.344Z</time>
      </trkpt>
      <trkpt lat="44.74612" lon="3.77858">
        <ele>965.13922119141</ele>
        <time>2020-10-16T12:50:30.566Z</time>
      </trkpt>
      <trkpt lat="44.74632" lon="3.77829">
        <ele>962.63366699219</ele>
        <time>2020-10-16T12:50:32.793Z</time>
      </trkpt>
      <trkpt lat="44.74651" lon="3.77804">
        <ele>959.87908935547</ele>
        <time>2020-10-16T12:50:35.026Z</time>
      </trkpt>
      <trkpt lat="44.74653" lon="3.77801">
        <ele>959.6845703125</ele>
        <time>2020-10-16T12:50:37.259Z</time>
      </trkpt>
      <trkpt lat="44.74669" lon="3.77782">
        <ele>958.35321044922</ele>
        <time>2020-10-16T12:50:39.497Z</time>
      </trkpt>
      <trkpt lat="44.74677" lon="3.77772">
        <ele>957.71221923828</ele>
        <time>2020-10-16T12:50:41.736Z</time>
      </trkpt>
      <trkpt lat="44.74683" lon="3.77769">
        <ele>957.69030761719</ele>
        <time>2020-10-16T12:50:43.977Z</time>
      </trkpt>
      <trkpt lat="44.74706" lon="3.77765">
        <ele>956.67974853516</ele>
        <time>2020-10-16T12:50:46.223Z</time>
      </trkpt>
      <trkpt lat="44.74704" lon="3.7775">
        <ele>956.98132324219</ele>
        <time>2020-10-16T12:50:48.471Z</time>
      </trkpt>
      <trkpt lat="44.74696" lon="3.77737">
        <ele>957.79241943359</ele>
        <time>2020-10-16T12:50:50.721Z</time>
      </trkpt>
      <trkpt lat="44.74697" lon="3.77718">
        <ele>957.71600341797</ele>
        <time>2020-10-16T12:50:52.974Z</time>
      </trkpt>
      <trkpt lat="44.74697" lon="3.77703">
        <ele>957.728515625</ele>
        <time>2020-10-16T12:50:55.229Z</time>
      </trkpt>
      <trkpt lat="44.74699" lon="3.77687">
        <ele>957.54718017578</ele>
        <time>2020-10-16T12:50:57.486Z</time>
      </trkpt>
      <trkpt lat="44.74707" lon="3.77676">
        <ele>956.96270751953</ele>
        <time>2020-10-16T12:50:59.746Z</time>
      </trkpt>
      <trkpt lat="44.74711" lon="3.77665">
        <ele>956.43933105469</ele>
        <time>2020-10-16T12:51:02.007Z</time>
      </trkpt>
      <trkpt lat="44.74712" lon="3.77652">
        <ele>956.72497558594</ele>
        <time>2020-10-16T12:51:04.270Z</time>
      </trkpt>
      <trkpt lat="44.7471" lon="3.77635">
        <ele>957.79095458984</ele>
        <time>2020-10-16T12:51:06.536Z</time>
      </trkpt>
      <trkpt lat="44.74713" lon="3.77616">
        <ele>957.81915283203</ele>
        <time>2020-10-16T12:51:08.805Z</time>
      </trkpt>
      <trkpt lat="44.74714" lon="3.77589">
        <ele>957.07037353516</ele>
        <time>2020-10-16T12:51:11.077Z</time>
      </trkpt>
      <trkpt lat="44.74709" lon="3.77571">
        <ele>956.39324951172</ele>
        <time>2020-10-16T12:51:13.352Z</time>
      </trkpt>
      <trkpt lat="44.74702" lon="3.77554">
        <ele>956.37927246094</ele>
        <time>2020-10-16T12:51:15.630Z</time>
      </trkpt>
      <trkpt lat="44.74696" lon="3.77541">
        <ele>956.71185302734</ele>
        <time>2020-10-16T12:51:17.910Z</time>
      </trkpt>
      <trkpt lat="44.74686" lon="3.7753">
        <ele>958.46856689453</ele>
        <time>2020-10-16T12:51:20.193Z</time>
      </trkpt>
      <trkpt lat="44.7468" lon="3.77524">
        <ele>959.70745849609</ele>
        <time>2020-10-16T12:51:22.477Z</time>
      </trkpt>
      <trkpt lat="44.74673" lon="3.77508">
        <ele>960.21905517578</ele>
        <time>2020-10-16T12:51:24.764Z</time>
      </trkpt>
      <trkpt lat="44.74672" lon="3.77499">
        <ele>959.78997802734</ele>
        <time>2020-10-16T12:51:27.052Z</time>
      </trkpt>
      <trkpt lat="44.74674" lon="3.77493">
        <ele>959.01458740234</ele>
        <time>2020-10-16T12:51:29.341Z</time>
      </trkpt>
      <trkpt lat="44.74666" lon="3.77486">
        <ele>960.53125</ele>
        <time>2020-10-16T12:51:31.632Z</time>
      </trkpt>
      <trkpt lat="44.7466" lon="3.77474">
        <ele>961.47076416016</ele>
        <time>2020-10-16T12:51:33.925Z</time>
      </trkpt>
      <trkpt lat="44.74655" lon="3.7746">
        <ele>962.41235351562</ele>
        <time>2020-10-16T12:51:36.220Z</time>
      </trkpt>
      <trkpt lat="44.74647" lon="3.77444">
        <ele>963.92266845703</ele>
        <time>2020-10-16T12:51:38.518Z</time>
      </trkpt>
      <trkpt lat="44.74642" lon="3.77431">
        <ele>964.83416748047</ele>
        <time>2020-10-16T12:51:40.818Z</time>
      </trkpt>
      <trkpt lat="44.74644" lon="3.77426">
        <ele>964.26831054688</ele>
        <time>2020-10-16T12:51:43.119Z</time>
      </trkpt>
      <trkpt lat="44.74655" lon="3.77415">
        <ele>961.94409179688</ele>
        <time>2020-10-16T12:51:45.423Z</time>
      </trkpt>
      <trkpt lat="44.74662" lon="3.77418">
        <ele>960.56549072266</ele>
        <time>2020-10-16T12:51:47.728Z</time>
      </trkpt>
      <trkpt lat="44.74668" lon="3.77413">
        <ele>959.33874511719</ele>
        <time>2020-10-16T12:51:50.034Z</time>
      </trkpt>
      <trkpt lat="44.74677" lon="3.77421">
        <ele>957.88433837891</ele>
        <time>2020-10-16T12:51:52.343Z</time>
      </trkpt>
      <trkpt lat="44.74679" lon="3.7742">
        <ele>957.45831298828</ele>
        <time>2020-10-16T12:51:54.652Z</time>
      </trkpt>
      <trkpt lat="44.74681" lon="3.77418">
        <ele>956.9052734375</ele>
        <time>2020-10-16T12:51:56.962Z</time>
      </trkpt>
      <trkpt lat="44.74686" lon="3.77421">
        <ele>956.16412353516</ele>
        <time>2020-10-16T12:51:59.273Z</time>
      </trkpt>
      <trkpt lat="44.74693" lon="3.77427">
        <ele>954.95983886719</ele>
        <time>2020-10-16T12:52:01.585Z</time>
      </trkpt>
      <trkpt lat="44.74697" lon="3.77432">
        <ele>954.16125488281</ele>
        <time>2020-10-16T12:52:03.898Z</time>
      </trkpt>
      <trkpt lat="44.74706" lon="3.77435">
        <ele>953.42639160156</ele>
        <time>2020-10-16T12:52:06.213Z</time>
      </trkpt>
      <trkpt lat="44.7472" lon="3.77438">
        <ele>953.55987548828</ele>
        <time>2020-10-16T12:52:08.531Z</time>
      </trkpt>
      <trkpt lat="44.74732" lon="3.7744">
        <ele>953.81414794922</ele>
        <time>2020-10-16T12:52:10.852Z</time>
      </trkpt>
      <trkpt lat="44.74742" lon="3.7744">
        <ele>954.19036865234</ele>
        <time>2020-10-16T12:52:13.175Z</time>
      </trkpt>
      <trkpt lat="44.74744" lon="3.7744">
        <ele>954.23693847656</ele>
        <time>2020-10-16T12:52:15.498Z</time>
      </trkpt>
      <trkpt lat="44.74748" lon="3.77444">
        <ele>954.09020996094</ele>
        <time>2020-10-16T12:52:17.822Z</time>
      </trkpt>
      <trkpt lat="44.74755" lon="3.77452">
        <ele>953.65673828125</ele>
        <time>2020-10-16T12:52:20.148Z</time>
      </trkpt>
      <trkpt lat="44.74761" lon="3.7746">
        <ele>953.23156738281</ele>
        <time>2020-10-16T12:52:22.475Z</time>
      </trkpt>
      <trkpt lat="44.74771" lon="3.77464">
        <ele>953.23138427734</ele>
        <time>2020-10-16T12:52:24.804Z</time>
      </trkpt>
      <trkpt lat="44.7478" lon="3.7747">
        <ele>953.07055664062</ele>
        <time>2020-10-16T12:52:27.135Z</time>
      </trkpt>
      <trkpt lat="44.74788" lon="3.77476">
        <ele>952.79229736328</ele>
        <time>2020-10-16T12:52:29.468Z</time>
      </trkpt>
      <trkpt lat="44.74794" lon="3.77489">
        <ele>951.85345458984</ele>
        <time>2020-10-16T12:52:31.803Z</time>
      </trkpt>
      <trkpt lat="44.74805" lon="3.77501">
        <ele>951.15277099609</ele>
        <time>2020-10-16T12:52:34.141Z</time>
      </trkpt>
      <trkpt lat="44.74813" lon="3.77514">
        <ele>950.25256347656</ele>
        <time>2020-10-16T12:52:36.482Z</time>
      </trkpt>
      <trkpt lat="44.74822" lon="3.77536">
        <ele>949.09143066406</ele>
        <time>2020-10-16T12:52:38.826Z</time>
      </trkpt>
      <trkpt lat="44.74825" lon="3.77548">
        <ele>948.61639404297</ele>
        <time>2020-10-16T12:52:41.172Z</time>
      </trkpt>
      <trkpt lat="44.74829" lon="3.77558">
        <ele>948.25512695312</ele>
        <time>2020-10-16T12:52:43.520Z</time>
      </trkpt>
      <trkpt lat="44.74835" lon="3.7757">
        <ele>947.81707763672</ele>
        <time>2020-10-16T12:52:45.870Z</time>
      </trkpt>
      <trkpt lat="44.74839" lon="3.77583">
        <ele>947.40539550781</ele>
        <time>2020-10-16T12:52:48.222Z</time>
      </trkpt>
      <trkpt lat="44.74843" lon="3.77593">
        <ele>947.10223388672</ele>
        <time>2020-10-16T12:52:50.575Z</time>
      </trkpt>
      <trkpt lat="44.74853" lon="3.77597">
        <ele>947.07263183594</ele>
        <time>2020-10-16T12:52:52.930Z</time>
      </trkpt>
      <trkpt lat="44.74862" lon="3.77603">
        <ele>946.94213867188</ele>
        <time>2020-10-16T12:52:55.287Z</time>
      </trkpt>
      <trkpt lat="44.74866" lon="3.77613">
        <ele>946.42016601562</ele>
        <time>2020-10-16T12:52:57.646Z</time>
      </trkpt>
      <trkpt lat="44.74869" lon="3.77621">
        <ele>945.97283935547</ele>
        <time>2020-10-16T12:53:00.006Z</time>
      </trkpt>
      <trkpt lat="44.74875" lon="3.77623">
        <ele>946.0654296875</ele>
        <time>2020-10-16T12:53:02.368Z</time>
      </trkpt>
      <trkpt lat="44.74885" lon="3.77616">
        <ele>946.84014892578</ele>
        <time>2020-10-16T12:53:04.732Z</time>
      </trkpt>
      <trkpt lat="44.74891" lon="3.77612">
        <ele>947.31970214844</ele>
        <time>2020-10-16T12:53:07.097Z</time>
      </trkpt>
      <trkpt lat="44.74905" lon="3.77605">
        <ele>948.17974853516</ele>
        <time>2020-10-16T12:53:09.465Z</time>
      </trkpt>
      <trkpt lat="44.74915" lon="3.77604">
        <ele>948.59887695312</ele>
        <time>2020-10-16T12:53:11.835Z</time>
      </trkpt>
      <trkpt lat="44.74927" lon="3.77609">
        <ele>948.76910400391</ele>
        <time>2020-10-16T12:53:14.208Z</time>
      </trkpt>
      <trkpt lat="44.74935" lon="3.77614">
        <ele>948.72338867188</ele>
        <time>2020-10-16T12:53:16.582Z</time>
      </trkpt>
      <trkpt lat="44.74936" lon="3.77627">
        <ele>947.97827148438</ele>
        <time>2020-10-16T12:53:18.958Z</time>
      </trkpt>
      <trkpt lat="44.74932" lon="3.77643">
        <ele>946.90618896484</ele>
        <time>2020-10-16T12:53:21.337Z</time>
      </trkpt>
      <trkpt lat="44.74933" lon="3.77657">
        <ele>946.11071777344</ele>
        <time>2020-10-16T12:53:23.718Z</time>
      </trkpt>
      <trkpt lat="44.74931" lon="3.77675">
        <ele>944.93963623047</ele>
        <time>2020-10-16T12:53:26.101Z</time>
      </trkpt>
      <trkpt lat="44.74939" lon="3.77688">
        <ele>944.45922851562</ele>
        <time>2020-10-16T12:53:28.487Z</time>
      </trkpt>
      <trkpt lat="44.74949" lon="3.77694">
        <ele>944.58831787109</ele>
        <time>2020-10-16T12:53:30.875Z</time>
      </trkpt>
      <trkpt lat="44.74958" lon="3.77691">
        <ele>944.91217041016</ele>
        <time>2020-10-16T12:53:33.265Z</time>
      </trkpt>
      <trkpt lat="44.74965" lon="3.7769">
        <ele>945.02801513672</ele>
        <time>2020-10-16T12:53:35.656Z</time>
      </trkpt>
      <trkpt lat="44.74975" lon="3.77692">
        <ele>945.05834960938</ele>
        <time>2020-10-16T12:53:38.049Z</time>
      </trkpt>
      <trkpt lat="44.74982" lon="3.77687">
        <ele>945.36596679688</ele>
        <time>2020-10-16T12:53:40.444Z</time>
      </trkpt>
      <trkpt lat="44.74987" lon="3.77682">
        <ele>945.74310302734</ele>
        <time>2020-10-16T12:53:42.840Z</time>
      </trkpt>
      <trkpt lat="44.74991" lon="3.77677">
        <ele>946.09222412109</ele>
        <time>2020-10-16T12:53:45.237Z</time>
      </trkpt>
      <trkpt lat="44.75002" lon="3.77664">
        <ele>946.99774169922</ele>
        <time>2020-10-16T12:53:47.637Z</time>
      </trkpt>
      <trkpt lat="44.75013" lon="3.77652">
        <ele>947.70831298828</ele>
        <time>2020-10-16T12:53:50.040Z</time>
      </trkpt>
      <trkpt lat="44.75022" lon="3.77646">
        <ele>948.00708007812</ele>
        <time>2020-10-16T12:53:52.445Z</time>
      </trkpt>
      <trkpt lat="44.75031" lon="3.77636">
        <ele>948.48254394531</ele>
        <time>2020-10-16T12:53:54.852Z</time>
      </trkpt>
      <trkpt lat="44.75042" lon="3.77621">
        <ele>949.22906494141</ele>
        <time>2020-10-16T12:53:57.262Z</time>
      </trkpt>
      <trkpt lat="44.7505" lon="3.7761">
        <ele>949.42724609375</ele>
        <time>2020-10-16T12:53:59.674Z</time>
      </trkpt>
      <trkpt lat="44.75058" lon="3.77601">
        <ele>949.15954589844</ele>
        <time>2020-10-16T12:54:02.088Z</time>
      </trkpt>
      <trkpt lat="44.75067" lon="3.77592">
        <ele>949.07788085938</ele>
        <time>2020-10-16T12:54:04.505Z</time>
      </trkpt>
      <trkpt lat="44.75074" lon="3.77582">
        <ele>949.07739257812</ele>
        <time>2020-10-16T12:54:06.924Z</time>
      </trkpt>
      <trkpt lat="44.7508" lon="3.77572">
        <ele>949.12237548828</ele>
        <time>2020-10-16T12:54:09.344Z</time>
      </trkpt>
      <trkpt lat="44.75085" lon="3.77568">
        <ele>949.02642822266</ele>
        <time>2020-10-16T12:54:11.765Z</time>
      </trkpt>
      <trkpt lat="44.75091" lon="3.77571">
        <ele>948.71240234375</ele>
        <time>2020-10-16T12:54:14.188Z</time>
      </trkpt>
      <trkpt lat="44.75097" lon="3.77579">
        <ele>948.10241699219</ele>
        <time>2020-10-16T12:54:16.612Z</time>
      </trkpt>
      <trkpt lat="44.75099" lon="3.77589">
        <ele>947.62591552734</ele>
        <time>2020-10-16T12:54:19.038Z</time>
      </trkpt>
      <trkpt lat="44.751" lon="3.77601">
        <ele>947.15100097656</ele>
        <time>2020-10-16T12:54:21.466Z</time>
      </trkpt>
      <trkpt lat="44.75101" lon="3.77613">
        <ele>946.94720458984</ele>
        <time>2020-10-16T12:54:23.895Z</time>
      </trkpt>
      <trkpt lat="44.75105" lon="3.77627">
        <ele>946.78057861328</ele>
        <time>2020-10-16T12:54:26.326Z</time>
      </trkpt>
      <trkpt lat="44.75107" lon="3.77641">
        <ele>946.67083740234</ele>
        <time>2020-10-16T12:54:28.759Z</time>
      </trkpt>
      <trkpt lat="44.75106" lon="3.77663">
        <ele>946.70135498047</ele>
        <time>2020-10-16T12:54:31.196Z</time>
      </trkpt>
      <trkpt lat="44.75107" lon="3.77686">
        <ele>946.08959960938</ele>
        <time>2020-10-16T12:54:33.636Z</time>
      </trkpt>
      <trkpt lat="44.75104" lon="3.7771">
        <ele>945.73010253906</ele>
        <time>2020-10-16T12:54:36.079Z</time>
      </trkpt>
      <trkpt lat="44.75102" lon="3.7773">
        <ele>945.49176025391</ele>
        <time>2020-10-16T12:54:38.525Z</time>
      </trkpt>
      <trkpt lat="44.75096" lon="3.77748">
        <ele>945.22265625</ele>
        <time>2020-10-16T12:54:40.974Z</time>
      </trkpt>
      <trkpt lat="44.75088" lon="3.77768">
        <ele>943.96893310547</ele>
        <time>2020-10-16T12:54:43.426Z</time>
      </trkpt>
      <trkpt lat="44.75079" lon="3.7779">
        <ele>944.83312988281</ele>
        <time>2020-10-16T12:54:45.882Z</time>
      </trkpt>
      <trkpt lat="44.75072" lon="3.7781">
        <ele>945.68426513672</ele>
        <time>2020-10-16T12:54:48.341Z</time>
      </trkpt>
      <trkpt lat="44.75059" lon="3.77831">
        <ele>944.35626220703</ele>
        <time>2020-10-16T12:54:50.804Z</time>
      </trkpt>
      <trkpt lat="44.75051" lon="3.77843">
        <ele>943.47216796875</ele>
        <time>2020-10-16T12:54:53.270Z</time>
      </trkpt>
      <trkpt lat="44.75042" lon="3.77863">
        <ele>943.04498291016</ele>
        <time>2020-10-16T12:54:55.739Z</time>
      </trkpt>
      <trkpt lat="44.75033" lon="3.77885">
        <ele>944.53314208984</ele>
        <time>2020-10-16T12:54:58.211Z</time>
      </trkpt>
      <trkpt lat="44.75025" lon="3.77907">
        <ele>946.43298339844</ele>
        <time>2020-10-16T12:55:00.687Z</time>
      </trkpt>
      <trkpt lat="44.75018" lon="3.77926">
        <ele>947.35534667969</ele>
        <time>2020-10-16T12:55:03.166Z</time>
      </trkpt>
      <trkpt lat="44.75015" lon="3.7794">
        <ele>947.07745361328</ele>
        <time>2020-10-16T12:55:05.647Z</time>
      </trkpt>
      <trkpt lat="44.75017" lon="3.77959">
        <ele>946.72857666016</ele>
        <time>2020-10-16T12:55:08.131Z</time>
      </trkpt>
      <trkpt lat="44.7502" lon="3.77981">
        <ele>946.50146484375</ele>
        <time>2020-10-16T12:55:10.618Z</time>
      </trkpt>
      <trkpt lat="44.7502" lon="3.77998">
        <ele>946.12219238281</ele>
        <time>2020-10-16T12:55:13.107Z</time>
      </trkpt>
      <trkpt lat="44.75013" lon="3.78031">
        <ele>945.78283691406</ele>
        <time>2020-10-16T12:55:15.601Z</time>
      </trkpt>
      <trkpt lat="44.75006" lon="3.78055">
        <ele>945.93353271484</ele>
        <time>2020-10-16T12:55:18.099Z</time>
      </trkpt>
      <trkpt lat="44.75003" lon="3.7808">
        <ele>946.06378173828</ele>
        <time>2020-10-16T12:55:20.601Z</time>
      </trkpt>
      <trkpt lat="44.75001" lon="3.78107">
        <ele>945.8330078125</ele>
        <time>2020-10-16T12:55:23.107Z</time>
      </trkpt>
      <trkpt lat="44.75002" lon="3.7813">
        <ele>944.75933837891</ele>
        <time>2020-10-16T12:55:25.616Z</time>
      </trkpt>
      <trkpt lat="44.75008" lon="3.78155">
        <ele>944.08984375</ele>
        <time>2020-10-16T12:55:28.129Z</time>
      </trkpt>
      <trkpt lat="44.75012" lon="3.78173">
        <ele>944.06958007812</ele>
        <time>2020-10-16T12:55:30.644Z</time>
      </trkpt>
      <trkpt lat="44.75013" lon="3.7819">
        <ele>944.07958984375</ele>
        <time>2020-10-16T12:55:33.162Z</time>
      </trkpt>
      <trkpt lat="44.75013" lon="3.78219">
        <ele>943.744140625</ele>
        <time>2020-10-16T12:55:35.684Z</time>
      </trkpt>
      <trkpt lat="44.75013" lon="3.78247">
        <ele>943.4072265625</ele>
        <time>2020-10-16T12:55:38.210Z</time>
      </trkpt>
      <trkpt lat="44.75017" lon="3.78271">
        <ele>943.50592041016</ele>
        <time>2020-10-16T12:55:40.739Z</time>
      </trkpt>
      <trkpt lat="44.75026" lon="3.78293">
        <ele>943.19561767578</ele>
        <time>2020-10-16T12:55:43.272Z</time>
      </trkpt>
      <trkpt lat="44.75037" lon="3.78309">
        <ele>943.08404541016</ele>
        <time>2020-10-16T12:55:45.808Z</time>
      </trkpt>
      <trkpt lat="44.75054" lon="3.78333">
        <ele>943.11773681641</ele>
        <time>2020-10-16T12:55:48.349Z</time>
      </trkpt>
      <trkpt lat="44.75068" lon="3.78352">
        <ele>943.14831542969</ele>
        <time>2020-10-16T12:55:50.894Z</time>
      </trkpt>
      <trkpt lat="44.75086" lon="3.78364">
        <ele>943.74755859375</ele>
        <time>2020-10-16T12:55:53.443Z</time>
      </trkpt>
      <trkpt lat="44.75108" lon="3.78371">
        <ele>944.54321289062</ele>
        <time>2020-10-16T12:55:55.996Z</time>
      </trkpt>
      <trkpt lat="44.75133" lon="3.78378">
        <ele>944.71685791016</ele>
        <time>2020-10-16T12:55:58.554Z</time>
      </trkpt>
      <trkpt lat="44.7515" lon="3.78383">
        <ele>944.31372070312</ele>
        <time>2020-10-16T12:56:01.116Z</time>
      </trkpt>
      <trkpt lat="44.75165" lon="3.78384">
        <ele>944.11419677734</ele>
        <time>2020-10-16T12:56:03.681Z</time>
      </trkpt>
      <trkpt lat="44.7518" lon="3.78375">
        <ele>944.04998779297</ele>
        <time>2020-10-16T12:56:06.249Z</time>
      </trkpt>
      <trkpt lat="44.75189" lon="3.78361">
        <ele>944.11694335938</ele>
        <time>2020-10-16T12:56:08.820Z</time>
      </trkpt>
      <trkpt lat="44.75191" lon="3.78338">
        <ele>944.67407226562</ele>
        <time>2020-10-16T12:56:11.394Z</time>
      </trkpt>
      <trkpt lat="44.75188" lon="3.78319">
        <ele>945.005859375</ele>
        <time>2020-10-16T12:56:13.971Z</time>
      </trkpt>
      <trkpt lat="44.75184" lon="3.78295">
        <ele>945.43493652344</ele>
        <time>2020-10-16T12:56:16.551Z</time>
      </trkpt>
      <trkpt lat="44.75184" lon="3.78264">
        <ele>945.90667724609</ele>
        <time>2020-10-16T12:56:19.136Z</time>
      </trkpt>
      <trkpt lat="44.75185" lon="3.78235">
        <ele>946.56109619141</ele>
        <time>2020-10-16T12:56:21.725Z</time>
      </trkpt>
      <trkpt lat="44.75192" lon="3.7821">
        <ele>946.91473388672</ele>
        <time>2020-10-16T12:56:24.318Z</time>
      </trkpt>
      <trkpt lat="44.75199" lon="3.78182">
        <ele>947.37255859375</ele>
        <time>2020-10-16T12:56:26.915Z</time>
      </trkpt>
      <trkpt lat="44.75205" lon="3.78168">
        <ele>947.44427490234</ele>
        <time>2020-10-16T12:56:29.514Z</time>
      </trkpt>
      <trkpt lat="44.75216" lon="3.78149">
        <ele>947.38421630859</ele>
        <time>2020-10-16T12:56:32.117Z</time>
      </trkpt>
      <trkpt lat="44.75231" lon="3.78127">
        <ele>947.31292724609</ele>
        <time>2020-10-16T12:56:34.724Z</time>
      </trkpt>
      <trkpt lat="44.75232" lon="3.78115">
        <ele>947.85192871094</ele>
        <time>2020-10-16T12:56:37.333Z</time>
      </trkpt>
      <trkpt lat="44.75234" lon="3.78101">
        <ele>948.44305419922</ele>
        <time>2020-10-16T12:56:39.944Z</time>
      </trkpt>
      <trkpt lat="44.75238" lon="3.78088">
        <ele>949.00598144531</ele>
        <time>2020-10-16T12:56:42.557Z</time>
      </trkpt>
      <trkpt lat="44.7524" lon="3.78071">
        <ele>949.73913574219</ele>
        <time>2020-10-16T12:56:45.172Z</time>
      </trkpt>
      <trkpt lat="44.75241" lon="3.78051">
        <ele>950.63122558594</ele>
        <time>2020-10-16T12:56:47.790Z</time>
      </trkpt>
      <trkpt lat="44.75241" lon="3.78036">
        <ele>951.17004394531</ele>
        <time>2020-10-16T12:56:50.410Z</time>
      </trkpt>
      <trkpt lat="44.75243" lon="3.78012">
        <ele>952.1943359375</ele>
        <time>2020-10-16T12:56:53.034Z</time>
      </trkpt>
      <trkpt lat="44.75251" lon="3.77957">
        <ele>955.53454589844</ele>
        <time>2020-10-16T12:56:55.666Z</time>
      </trkpt>
      <trkpt lat="44.7526" lon="3.77896">
        <ele>956.82824707031</ele>
        <time>2020-10-16T12:56:58.307Z</time>
      </trkpt>
      <trkpt lat="44.75268" lon="3.77843">
        <ele>956.69714355469</ele>
        <time>2020-10-16T12:57:00.955Z</time>
      </trkpt>
      <trkpt lat="44.75276" lon="3.77793">
        <ele>957.18334960938</ele>
        <time>2020-10-16T12:57:03.611Z</time>
      </trkpt>
      <trkpt lat="44.75282" lon="3.77753">
        <ele>958.00305175781</ele>
        <time>2020-10-16T12:57:06.273Z</time>
      </trkpt>
      <trkpt lat="44.75285" lon="3.77726">
        <ele>958.84527587891</ele>
        <time>2020-10-16T12:57:08.938Z</time>
      </trkpt>
      <trkpt lat="44.75285" lon="3.77701">
        <ele>959.50170898438</ele>
        <time>2020-10-16T12:57:11.607Z</time>
      </trkpt>
      <trkpt lat="44.75284" lon="3.77672">
        <ele>959.30163574219</ele>
        <time>2020-10-16T12:57:14.280Z</time>
      </trkpt>
      <trkpt lat="44.75281" lon="3.77633">
        <ele>958.02984619141</ele>
        <time>2020-10-16T12:57:16.959Z</time>
      </trkpt>
      <trkpt lat="44.75274" lon="3.7757">
        <ele>956.95477294922</ele>
        <time>2020-10-16T12:57:19.647Z</time>
      </trkpt>
      <trkpt lat="44.7527" lon="3.77525">
        <ele>956.19085693359</ele>
        <time>2020-10-16T12:57:22.341Z</time>
      </trkpt>
      <trkpt lat="44.75266" lon="3.77495">
        <ele>956.55670166016</ele>
        <time>2020-10-16T12:57:25.040Z</time>
      </trkpt>
      <trkpt lat="44.75262" lon="3.77465">
        <ele>956.75512695312</ele>
        <time>2020-10-16T12:57:27.743Z</time>
      </trkpt>
      <trkpt lat="44.75258" lon="3.77444">
        <ele>956.86474609375</ele>
        <time>2020-10-16T12:57:30.449Z</time>
      </trkpt>
      <trkpt lat="44.75252" lon="3.7742">
        <ele>957.15490722656</ele>
        <time>2020-10-16T12:57:33.159Z</time>
      </trkpt>
      <trkpt lat="44.75243" lon="3.77387">
        <ele>957.46527099609</ele>
        <time>2020-10-16T12:57:35.874Z</time>
      </trkpt>
      <trkpt lat="44.75232" lon="3.77356">
        <ele>957.33624267578</ele>
        <time>2020-10-16T12:57:38.594Z</time>
      </trkpt>
      <trkpt lat="44.75212" lon="3.77302">
        <ele>959.60198974609</ele>
        <time>2020-10-16T12:57:41.322Z</time>
      </trkpt>
      <trkpt lat="44.7519" lon="3.77246">
        <ele>962.77825927734</ele>
        <time>2020-10-16T12:57:44.060Z</time>
      </trkpt>
      <trkpt lat="44.75182" lon="3.77228">
        <ele>963.89770507812</ele>
        <time>2020-10-16T12:57:46.801Z</time>
      </trkpt>
      <trkpt lat="44.7517" lon="3.77203">
        <ele>965.48956298828</ele>
        <time>2020-10-16T12:57:49.546Z</time>
      </trkpt>
      <trkpt lat="44.75148" lon="3.77157">
        <ele>969.22271728516</ele>
        <time>2020-10-16T12:57:52.299Z</time>
      </trkpt>
      <trkpt lat="44.75134" lon="3.77128">
        <ele>971.80944824219</ele>
        <time>2020-10-16T12:57:55.057Z</time>
      </trkpt>
      <trkpt lat="44.75138" lon="3.77115">
        <ele>972.26202392578</ele>
        <time>2020-10-16T12:57:57.817Z</time>
      </trkpt>
      <trkpt lat="44.75142" lon="3.77103">
        <ele>972.55554199219</ele>
        <time>2020-10-16T12:58:00.579Z</time>
      </trkpt>
      <trkpt lat="44.75147" lon="3.77085">
        <ele>973.04766845703</ele>
        <time>2020-10-16T12:58:03.343Z</time>
      </trkpt>
      <trkpt lat="44.75152" lon="3.77063">
        <ele>973.75701904297</ele>
        <time>2020-10-16T12:58:06.111Z</time>
      </trkpt>
      <trkpt lat="44.75153" lon="3.77058">
        <ele>973.90606689453</ele>
        <time>2020-10-16T12:58:08.879Z</time>
      </trkpt>
      <trkpt lat="44.75155" lon="3.7705">
        <ele>974.17736816406</ele>
        <time>2020-10-16T12:58:11.649Z</time>
      </trkpt>
      <trkpt lat="44.75158" lon="3.77043">
        <ele>974.45007324219</ele>
        <time>2020-10-16T12:58:14.420Z</time>
      </trkpt>
      <trkpt lat="44.75166" lon="3.77023">
        <ele>975.16540527344</ele>
        <time>2020-10-16T12:58:17.194Z</time>
      </trkpt>
      <trkpt lat="44.75172" lon="3.77009">
        <ele>975.21875</ele>
        <time>2020-10-16T12:58:19.970Z</time>
      </trkpt>
      <trkpt lat="44.75175" lon="3.77001">
        <ele>975.20648193359</ele>
        <time>2020-10-16T12:58:22.748Z</time>
      </trkpt>
      <trkpt lat="44.75178" lon="3.76994">
        <ele>975.21356201172</ele>
        <time>2020-10-16T12:58:25.527Z</time>
      </trkpt>
      <trkpt lat="44.7518" lon="3.76988">
        <ele>975.14624023438</ele>
        <time>2020-10-16T12:58:28.307Z</time>
      </trkpt>
      <trkpt lat="44.75182" lon="3.76982">
        <ele>975.09051513672</ele>
        <time>2020-10-16T12:58:31.088Z</time>
      </trkpt>
      <trkpt lat="44.75184" lon="3.76975">
        <ele>975.04522705078</ele>
        <time>2020-10-16T12:58:33.870Z</time>
      </trkpt>
      <trkpt lat="44.75185" lon="3.76968">
        <ele>975.02569580078</ele>
        <time>2020-10-16T12:58:36.653Z</time>
      </trkpt>
      <trkpt lat="44.75187" lon="3.76962">
        <ele>974.96929931641</ele>
        <time>2020-10-16T12:58:39.437Z</time>
      </trkpt>
      <trkpt lat="44.75188" lon="3.76956">
        <ele>974.92114257812</ele>
        <time>2020-10-16T12:58:42.222Z</time>
      </trkpt>
      <trkpt lat="44.75191" lon="3.76949">
        <ele>974.83514404297</ele>
        <time>2020-10-16T12:58:45.008Z</time>
      </trkpt>
      <trkpt lat="44.75193" lon="3.76943">
        <ele>974.71704101562</ele>
        <time>2020-10-16T12:58:47.795Z</time>
      </trkpt>
      <trkpt lat="44.75196" lon="3.76936">
        <ele>974.63507080078</ele>
        <time>2020-10-16T12:58:50.583Z</time>
      </trkpt>
      <trkpt lat="44.75198" lon="3.76931">
        <ele>974.70178222656</ele>
        <time>2020-10-16T12:58:53.372Z</time>
      </trkpt>
      <trkpt lat="44.75199" lon="3.76926">
        <ele>974.72875976562</ele>
        <time>2020-10-16T12:58:56.161Z</time>
      </trkpt>
      <trkpt lat="44.752" lon="3.76921">
        <ele>974.78491210938</ele>
        <time>2020-10-16T12:58:58.951Z</time>
      </trkpt>
      <trkpt lat="44.752" lon="3.76914">
        <ele>974.90502929688</ele>
        <time>2020-10-16T12:59:01.742Z</time>
      </trkpt>
      <trkpt lat="44.75201" lon="3.76908">
        <ele>975.03692626953</ele>
        <time>2020-10-16T12:59:04.534Z</time>
      </trkpt>
      <trkpt lat="44.75201" lon="3.76898">
        <ele>975.19372558594</ele>
        <time>2020-10-16T12:59:07.327Z</time>
      </trkpt>
      <trkpt lat="44.75202" lon="3.7689">
        <ele>975.29620361328</ele>
        <time>2020-10-16T12:59:10.122Z</time>
      </trkpt>
      <trkpt lat="44.75204" lon="3.76883">
        <ele>975.32562255859</ele>
        <time>2020-10-16T12:59:12.918Z</time>
      </trkpt>
      <trkpt lat="44.75206" lon="3.76878">
        <ele>975.29077148438</ele>
        <time>2020-10-16T12:59:15.714Z</time>
      </trkpt>
      <trkpt lat="44.75208" lon="3.76873">
        <ele>975.20611572266</ele>
        <time>2020-10-16T12:59:18.511Z</time>
      </trkpt>
      <trkpt lat="44.7521" lon="3.76868">
        <ele>975.08959960938</ele>
        <time>2020-10-16T12:59:21.309Z</time>
      </trkpt>
      <trkpt lat="44.75212" lon="3.76864">
        <ele>974.92907714844</ele>
        <time>2020-10-16T12:59:24.108Z</time>
      </trkpt>
      <trkpt lat="44.75215" lon="3.7686">
        <ele>975.04821777344</ele>
        <time>2020-10-16T12:59:26.908Z</time>
      </trkpt>
      <trkpt lat="44.75219" lon="3.76858">
        <ele>975.14904785156</ele>
        <time>2020-10-16T12:59:29.708Z</time>
      </trkpt>
      <trkpt lat="44.75222" lon="3.76857">
        <ele>975.11602783203</ele>
        <time>2020-10-16T12:59:32.509Z</time>
      </trkpt>
      <trkpt lat="44.75227" lon="3.76856">
        <ele>975.00408935547</ele>
        <time>2020-10-16T12:59:35.311Z</time>
      </trkpt>
      <trkpt lat="44.75231" lon="3.76857">
        <ele>974.80731201172</ele>
        <time>2020-10-16T12:59:38.114Z</time>
      </trkpt>
      <trkpt lat="44.75235" lon="3.76857">
        <ele>974.66497802734</ele>
        <time>2020-10-16T12:59:40.918Z</time>
      </trkpt>
      <trkpt lat="44.75239" lon="3.76856">
        <ele>974.57543945312</ele>
        <time>2020-10-16T12:59:43.722Z</time>
      </trkpt>
      <trkpt lat="44.75242" lon="3.76855">
        <ele>974.62457275391</ele>
        <time>2020-10-16T12:59:46.527Z</time>
      </trkpt>
      <trkpt lat="44.75245" lon="3.76851">
        <ele>974.55346679688</ele>
        <time>2020-10-16T12:59:49.333Z</time>
      </trkpt>
      <trkpt lat="44.75248" lon="3.76848">
        <ele>974.49890136719</ele>
        <time>2020-10-16T12:59:52.140Z</time>
      </trkpt>
      <trkpt lat="44.75251" lon="3.76843">
        <ele>974.47155761719</ele>
        <time>2020-10-16T12:59:54.948Z</time>
      </trkpt>
      <trkpt lat="44.75252" lon="3.76838">
        <ele>974.47338867188</ele>
        <time>2020-10-16T12:59:57.756Z</time>
      </trkpt>
      <trkpt lat="44.75254" lon="3.76832">
        <ele>974.49053955078</ele>
        <time>2020-10-16T13:00:00.565Z</time>
      </trkpt>
      <trkpt lat="44.75255" lon="3.76826">
        <ele>974.53326416016</ele>
        <time>2020-10-16T13:00:03.375Z</time>
      </trkpt>
      <trkpt lat="44.75255" lon="3.76819">
        <ele>974.68774414062</ele>
        <time>2020-10-16T13:00:06.186Z</time>
      </trkpt>
      <trkpt lat="44.75257" lon="3.76806">
        <ele>975.3271484375</ele>
        <time>2020-10-16T13:00:08.999Z</time>
      </trkpt>
      <trkpt lat="44.75258" lon="3.76795">
        <ele>975.85089111328</ele>
        <time>2020-10-16T13:00:11.814Z</time>
      </trkpt>
      <trkpt lat="44.75262" lon="3.76771">
        <ele>977.01776123047</ele>
        <time>2020-10-16T13:00:14.632Z</time>
      </trkpt>
      <trkpt lat="44.75266" lon="3.76754">
        <ele>977.80487060547</ele>
        <time>2020-10-16T13:00:17.453Z</time>
      </trkpt>
      <trkpt lat="44.75269" lon="3.7674">
        <ele>978.47637939453</ele>
        <time>2020-10-16T13:00:20.276Z</time>
      </trkpt>
      <trkpt lat="44.75272" lon="3.76729">
        <ele>979.03247070312</ele>
        <time>2020-10-16T13:00:23.100Z</time>
      </trkpt>
      <trkpt lat="44.75278" lon="3.7671">
        <ele>979.92578125</ele>
        <time>2020-10-16T13:00:25.927Z</time>
      </trkpt>
      <trkpt lat="44.75283" lon="3.76695">
        <ele>980.67663574219</ele>
        <time>2020-10-16T13:00:28.757Z</time>
      </trkpt>
      <trkpt lat="44.75287" lon="3.76681">
        <ele>981.10461425781</ele>
        <time>2020-10-16T13:00:31.589Z</time>
      </trkpt>
      <trkpt lat="44.75292" lon="3.76666">
        <ele>981.42639160156</ele>
        <time>2020-10-16T13:00:34.423Z</time>
      </trkpt>
      <trkpt lat="44.75297" lon="3.76653">
        <ele>981.75</ele>
        <time>2020-10-16T13:00:37.259Z</time>
      </trkpt>
      <trkpt lat="44.75301" lon="3.76641">
        <ele>982.06616210938</ele>
        <time>2020-10-16T13:00:40.097Z</time>
      </trkpt>
      <trkpt lat="44.75312" lon="3.76613">
        <ele>982.76892089844</ele>
        <time>2020-10-16T13:00:42.940Z</time>
      </trkpt>
      <trkpt lat="44.75316" lon="3.76601">
        <ele>983.21099853516</ele>
        <time>2020-10-16T13:00:45.785Z</time>
      </trkpt>
      <trkpt lat="44.75317" lon="3.76594">
        <ele>983.72442626953</ele>
        <time>2020-10-16T13:00:48.631Z</time>
      </trkpt>
      <trkpt lat="44.7532" lon="3.76582">
        <ele>984.50817871094</ele>
        <time>2020-10-16T13:00:51.478Z</time>
      </trkpt>
      <trkpt lat="44.75321" lon="3.76573">
        <ele>985.11413574219</ele>
        <time>2020-10-16T13:00:54.327Z</time>
      </trkpt>
      <trkpt lat="44.75323" lon="3.76564">
        <ele>985.70458984375</ele>
        <time>2020-10-16T13:00:57.177Z</time>
      </trkpt>
      <trkpt lat="44.75324" lon="3.76557">
        <ele>986.20550537109</ele>
        <time>2020-10-16T13:01:00.028Z</time>
      </trkpt>
      <trkpt lat="44.75325" lon="3.76548">
        <ele>986.89801025391</ele>
        <time>2020-10-16T13:01:02.880Z</time>
      </trkpt>
      <trkpt lat="44.75326" lon="3.76537">
        <ele>987.6875</ele>
        <time>2020-10-16T13:01:05.734Z</time>
      </trkpt>
      <trkpt lat="44.75327" lon="3.76526">
        <ele>988.515625</ele>
        <time>2020-10-16T13:01:08.590Z</time>
      </trkpt>
      <trkpt lat="44.75328" lon="3.76513">
        <ele>989.64855957031</ele>
        <time>2020-10-16T13:01:11.448Z</time>
      </trkpt>
      <trkpt lat="44.75328" lon="3.76502">
        <ele>990.55493164062</ele>
        <time>2020-10-16T13:01:14.307Z</time>
      </trkpt>
      <trkpt lat="44.75329" lon="3.76485">
        <ele>992.04455566406</ele>
        <time>2020-10-16T13:01:17.168Z</time>
      </trkpt>
      <trkpt lat="44.7533" lon="3.76466">
        <ele>993.29998779297</ele>
        <time>2020-10-16T13:01:20.032Z</time>
      </trkpt>
      <trkpt lat="44.7533" lon="3.76452">
        <ele>994.18139648438</ele>
        <time>2020-10-16T13:01:22.898Z</time>
      </trkpt>
      <trkpt lat="44.75331" lon="3.76444">
        <ele>994.67340087891</ele>
        <time>2020-10-16T13:01:25.765Z</time>
      </trkpt>
      <trkpt lat="44.75332" lon="3.76436">
        <ele>995.20379638672</ele>
        <time>2020-10-16T13:01:28.633Z</time>
      </trkpt>
      <trkpt lat="44.75334" lon="3.76425">
        <ele>996.00946044922</ele>
        <time>2020-10-16T13:01:31.503Z</time>
      </trkpt>
      <trkpt lat="44.75337" lon="3.76408">
        <ele>997.33227539062</ele>
        <time>2020-10-16T13:01:34.376Z</time>
      </trkpt>
      <trkpt lat="44.75339" lon="3.7639">
        <ele>998.89221191406</ele>
        <time>2020-10-16T13:01:37.251Z</time>
      </trkpt>
      <trkpt lat="44.75341" lon="3.76381">
        <ele>999.71325683594</ele>
        <time>2020-10-16T13:01:40.128Z</time>
      </trkpt>
      <trkpt lat="44.75341" lon="3.76376">
        <ele>1000.1396484375</ele>
        <time>2020-10-16T13:01:43.005Z</time>
      </trkpt>
      <trkpt lat="44.75342" lon="3.76368">
        <ele>1000.8000488281</ele>
        <time>2020-10-16T13:01:45.883Z</time>
      </trkpt>
      <trkpt lat="44.75342" lon="3.7636">
        <ele>1001.5051269531</ele>
        <time>2020-10-16T13:01:48.763Z</time>
      </trkpt>
      <trkpt lat="44.75342" lon="3.76353">
        <ele>1002.0108032227</ele>
        <time>2020-10-16T13:01:51.643Z</time>
      </trkpt>
      <trkpt lat="44.75342" lon="3.76345">
        <ele>1002.4369506836</ele>
        <time>2020-10-16T13:01:54.525Z</time>
      </trkpt>
      <trkpt lat="44.75344" lon="3.7634">
        <ele>1002.7217407227</ele>
        <time>2020-10-16T13:01:57.407Z</time>
      </trkpt>
      <trkpt lat="44.75345" lon="3.76335">
        <ele>1003.009765625</ele>
        <time>2020-10-16T13:02:00.290Z</time>
      </trkpt>
      <trkpt lat="44.75348" lon="3.76331">
        <ele>1003.3011474609</ele>
        <time>2020-10-16T13:02:03.174Z</time>
      </trkpt>
      <trkpt lat="44.7535" lon="3.76327">
        <ele>1003.7548828125</ele>
        <time>2020-10-16T13:02:06.059Z</time>
      </trkpt>
      <trkpt lat="44.75354" lon="3.76323">
        <ele>1004.2017822266</ele>
        <time>2020-10-16T13:02:08.945Z</time>
      </trkpt>
      <trkpt lat="44.75361" lon="3.76316">
        <ele>1005.134765625</ele>
        <time>2020-10-16T13:02:11.832Z</time>
      </trkpt>
      <trkpt lat="44.75368" lon="3.76307">
        <ele>1006.2600708008</ele>
        <time>2020-10-16T13:02:14.721Z</time>
      </trkpt>
      <trkpt lat="44.75373" lon="3.763">
        <ele>1006.8819580078</ele>
        <time>2020-10-16T13:02:17.612Z</time>
      </trkpt>
      <trkpt lat="44.75377" lon="3.76293">
        <ele>1007.2395019531</ele>
        <time>2020-10-16T13:02:20.504Z</time>
      </trkpt>
      <trkpt lat="44.75381" lon="3.76288">
        <ele>1007.5517578125</ele>
        <time>2020-10-16T13:02:23.397Z</time>
      </trkpt>
      <trkpt lat="44.75384" lon="3.76281">
        <ele>1007.8572998047</ele>
        <time>2020-10-16T13:02:26.291Z</time>
      </trkpt>
      <trkpt lat="44.75387" lon="3.76274">
        <ele>1007.9437255859</ele>
        <time>2020-10-16T13:02:29.186Z</time>
      </trkpt>
      <trkpt lat="44.75389" lon="3.76267">
        <ele>1008.1836547852</ele>
        <time>2020-10-16T13:02:32.082Z</time>
      </trkpt>
      <trkpt lat="44.75395" lon="3.76238">
        <ele>1009.5637207031</ele>
        <time>2020-10-16T13:02:34.983Z</time>
      </trkpt>
      <trkpt lat="44.75396" lon="3.76226">
        <ele>1010.1715087891</ele>
        <time>2020-10-16T13:02:37.885Z</time>
      </trkpt>
      <trkpt lat="44.75397" lon="3.76216">
        <ele>1010.7890625</ele>
        <time>2020-10-16T13:02:40.789Z</time>
      </trkpt>
      <trkpt lat="44.75397" lon="3.76207">
        <ele>1010.9843139648</ele>
        <time>2020-10-16T13:02:43.694Z</time>
      </trkpt>
      <trkpt lat="44.75397" lon="3.76199">
        <ele>1011.0482177734</ele>
        <time>2020-10-16T13:02:46.600Z</time>
      </trkpt>
      <trkpt lat="44.75398" lon="3.76195">
        <ele>1010.951965332</ele>
        <time>2020-10-16T13:02:49.507Z</time>
      </trkpt>
      <trkpt lat="44.754" lon="3.76193">
        <ele>1010.762512207</ele>
        <time>2020-10-16T13:02:52.414Z</time>
      </trkpt>
      <trkpt lat="44.75402" lon="3.76193">
        <ele>1010.5330810547</ele>
        <time>2020-10-16T13:02:55.322Z</time>
      </trkpt>
      <trkpt lat="44.75406" lon="3.76195">
        <ele>1010.1594238281</ele>
        <time>2020-10-16T13:02:58.231Z</time>
      </trkpt>
      <trkpt lat="44.75408" lon="3.76198">
        <ele>1009.8405761719</ele>
        <time>2020-10-16T13:03:01.140Z</time>
      </trkpt>
      <trkpt lat="44.7541" lon="3.76203">
        <ele>1009.5668334961</ele>
        <time>2020-10-16T13:03:04.050Z</time>
      </trkpt>
      <trkpt lat="44.75413" lon="3.76207">
        <ele>1009.2609863281</ele>
        <time>2020-10-16T13:03:06.961Z</time>
      </trkpt>
      <trkpt lat="44.75415" lon="3.76213">
        <ele>1008.9172973633</ele>
        <time>2020-10-16T13:03:09.873Z</time>
      </trkpt>
      <trkpt lat="44.75419" lon="3.76222">
        <ele>1008.4504394531</ele>
        <time>2020-10-16T13:03:12.786Z</time>
      </trkpt>
      <trkpt lat="44.75421" lon="3.76228">
        <ele>1008.1508789062</ele>
        <time>2020-10-16T13:03:15.700Z</time>
      </trkpt>
      <trkpt lat="44.75424" lon="3.76236">
        <ele>1007.7073364258</ele>
        <time>2020-10-16T13:03:18.615Z</time>
      </trkpt>
      <trkpt lat="44.7543" lon="3.76251">
        <ele>1006.6770019531</ele>
        <time>2020-10-16T13:03:21.533Z</time>
      </trkpt>
      <trkpt lat="44.75436" lon="3.76262">
        <ele>1005.632019043</ele>
        <time>2020-10-16T13:03:24.453Z</time>
      </trkpt>
      <trkpt lat="44.7544" lon="3.7627">
        <ele>1004.8992919922</ele>
        <time>2020-10-16T13:03:27.374Z</time>
      </trkpt>
      <trkpt lat="44.75447" lon="3.76283">
        <ele>1003.9797363281</ele>
        <time>2020-10-16T13:03:30.298Z</time>
      </trkpt>
      <trkpt lat="44.75452" lon="3.76288">
        <ele>1003.5356445312</ele>
        <time>2020-10-16T13:03:33.223Z</time>
      </trkpt>
      <trkpt lat="44.75459" lon="3.76298">
        <ele>1003.2023925781</ele>
        <time>2020-10-16T13:03:36.150Z</time>
      </trkpt>
      <trkpt lat="44.75464" lon="3.76304">
        <ele>1003.1694946289</ele>
        <time>2020-10-16T13:03:39.078Z</time>
      </trkpt>
      <trkpt lat="44.75467" lon="3.76309">
        <ele>1003.0979614258</ele>
        <time>2020-10-16T13:03:42.007Z</time>
      </trkpt>
      <trkpt lat="44.75486" lon="3.76337">
        <ele>1002.7515869141</ele>
        <time>2020-10-16T13:03:44.942Z</time>
      </trkpt>
      <trkpt lat="44.75494" lon="3.76348">
        <ele>1002.6598510742</ele>
        <time>2020-10-16T13:03:47.879Z</time>
      </trkpt>
      <trkpt lat="44.75499" lon="3.76355">
        <ele>1002.5411376953</ele>
        <time>2020-10-16T13:03:50.817Z</time>
      </trkpt>
      <trkpt lat="44.75503" lon="3.76362">
        <ele>1002.2705688477</ele>
        <time>2020-10-16T13:03:53.757Z</time>
      </trkpt>
      <trkpt lat="44.75507" lon="3.76371">
        <ele>1001.9250488281</ele>
        <time>2020-10-16T13:03:56.698Z</time>
      </trkpt>
      <trkpt lat="44.75511" lon="3.76379">
        <ele>1001.5694580078</ele>
        <time>2020-10-16T13:03:59.640Z</time>
      </trkpt>
      <trkpt lat="44.75518" lon="3.76391">
        <ele>1001.0918579102</ele>
        <time>2020-10-16T13:04:02.585Z</time>
      </trkpt>
      <trkpt lat="44.75525" lon="3.76402">
        <ele>1000.670715332</ele>
        <time>2020-10-16T13:04:05.532Z</time>
      </trkpt>
      <trkpt lat="44.75552" lon="3.76441">
        <ele>998.34747314453</ele>
        <time>2020-10-16T13:04:08.487Z</time>
      </trkpt>
      <trkpt lat="44.75561" lon="3.76454">
        <ele>997.54608154297</ele>
        <time>2020-10-16T13:04:11.444Z</time>
      </trkpt>
      <trkpt lat="44.75574" lon="3.76473">
        <ele>996.41882324219</ele>
        <time>2020-10-16T13:04:14.405Z</time>
      </trkpt>
      <trkpt lat="44.75582" lon="3.76487">
        <ele>995.57318115234</ele>
        <time>2020-10-16T13:04:17.368Z</time>
      </trkpt>
      <trkpt lat="44.75606" lon="3.76526">
        <ele>992.98510742188</ele>
        <time>2020-10-16T13:04:20.339Z</time>
      </trkpt>
      <trkpt lat="44.75615" lon="3.7654">
        <ele>991.56451416016</ele>
        <time>2020-10-16T13:04:23.312Z</time>
      </trkpt>
      <trkpt lat="44.75628" lon="3.76561">
        <ele>989.76824951172</ele>
        <time>2020-10-16T13:04:26.289Z</time>
      </trkpt>
      <trkpt lat="44.75636" lon="3.76574">
        <ele>988.78125</ele>
        <time>2020-10-16T13:04:29.269Z</time>
      </trkpt>
      <trkpt lat="44.75641" lon="3.76582">
        <ele>988.10668945312</ele>
        <time>2020-10-16T13:04:32.250Z</time>
      </trkpt>
      <trkpt lat="44.75649" lon="3.76595">
        <ele>987.13256835938</ele>
        <time>2020-10-16T13:04:35.234Z</time>
      </trkpt>
      <trkpt lat="44.75654" lon="3.76604">
        <ele>986.47570800781</ele>
        <time>2020-10-16T13:04:38.219Z</time>
      </trkpt>
      <trkpt lat="44.75657" lon="3.76608">
        <ele>986.21478271484</ele>
        <time>2020-10-16T13:04:41.205Z</time>
      </trkpt>
      <trkpt lat="44.7566" lon="3.76612">
        <ele>985.99768066406</ele>
        <time>2020-10-16T13:04:44.192Z</time>
      </trkpt>
      <trkpt lat="44.75664" lon="3.76617">
        <ele>985.76086425781</ele>
        <time>2020-10-16T13:04:47.180Z</time>
      </trkpt>
      <trkpt lat="44.75669" lon="3.76622">
        <ele>985.52801513672</ele>
        <time>2020-10-16T13:04:50.169Z</time>
      </trkpt>
      <trkpt lat="44.75673" lon="3.76627">
        <ele>985.30041503906</ele>
        <time>2020-10-16T13:04:53.159Z</time>
      </trkpt>
      <trkpt lat="44.75676" lon="3.7663">
        <ele>985.15325927734</ele>
        <time>2020-10-16T13:04:56.150Z</time>
      </trkpt>
      <trkpt lat="44.7568" lon="3.76634">
        <ele>984.93371582031</ele>
        <time>2020-10-16T13:04:59.142Z</time>
      </trkpt>
      <trkpt lat="44.75685" lon="3.76639">
        <ele>984.71246337891</ele>
        <time>2020-10-16T13:05:02.135Z</time>
      </trkpt>
      <trkpt lat="44.75688" lon="3.76642">
        <ele>984.56689453125</ele>
        <time>2020-10-16T13:05:05.129Z</time>
      </trkpt>
      <trkpt lat="44.75693" lon="3.76646">
        <ele>984.38024902344</ele>
        <time>2020-10-16T13:05:08.124Z</time>
      </trkpt>
      <trkpt lat="44.75697" lon="3.76648">
        <ele>984.29766845703</ele>
        <time>2020-10-16T13:05:11.120Z</time>
      </trkpt>
      <trkpt lat="44.757" lon="3.76649">
        <ele>984.25244140625</ele>
        <time>2020-10-16T13:05:14.117Z</time>
      </trkpt>
      <trkpt lat="44.75704" lon="3.76651">
        <ele>984.18756103516</ele>
        <time>2020-10-16T13:05:17.114Z</time>
      </trkpt>
      <trkpt lat="44.75708" lon="3.76652">
        <ele>983.94793701172</ele>
        <time>2020-10-16T13:05:20.112Z</time>
      </trkpt>
      <trkpt lat="44.75713" lon="3.76652">
        <ele>983.72930908203</ele>
        <time>2020-10-16T13:05:23.111Z</time>
      </trkpt>
      <trkpt lat="44.75716" lon="3.76652">
        <ele>983.56628417969</ele>
        <time>2020-10-16T13:05:26.111Z</time>
      </trkpt>
      <trkpt lat="44.7572" lon="3.76652">
        <ele>983.41235351562</ele>
        <time>2020-10-16T13:05:29.112Z</time>
      </trkpt>
      <trkpt lat="44.75725" lon="3.76651">
        <ele>983.19610595703</ele>
        <time>2020-10-16T13:05:32.114Z</time>
      </trkpt>
      <trkpt lat="44.75734" lon="3.7665">
        <ele>982.8154296875</ele>
        <time>2020-10-16T13:05:35.118Z</time>
      </trkpt>
      <trkpt lat="44.75742" lon="3.76649">
        <ele>982.47833251953</ele>
        <time>2020-10-16T13:05:38.123Z</time>
      </trkpt>
      <trkpt lat="44.75749" lon="3.76649">
        <ele>982.15356445312</ele>
        <time>2020-10-16T13:05:41.130Z</time>
      </trkpt>
      <trkpt lat="44.75753" lon="3.7665">
        <ele>981.84515380859</ele>
        <time>2020-10-16T13:05:44.137Z</time>
      </trkpt>
      <trkpt lat="44.75758" lon="3.7665">
        <ele>981.53051757812</ele>
        <time>2020-10-16T13:05:47.145Z</time>
      </trkpt>
      <trkpt lat="44.75762" lon="3.76651">
        <ele>981.15148925781</ele>
        <time>2020-10-16T13:05:50.154Z</time>
      </trkpt>
      <trkpt lat="44.75767" lon="3.76653">
        <ele>980.7666015625</ele>
        <time>2020-10-16T13:05:53.164Z</time>
      </trkpt>
      <trkpt lat="44.75771" lon="3.76654">
        <ele>980.44384765625</ele>
        <time>2020-10-16T13:05:56.175Z</time>
      </trkpt>
      <trkpt lat="44.75774" lon="3.76656">
        <ele>980.10723876953</ele>
        <time>2020-10-16T13:05:59.187Z</time>
      </trkpt>
      <trkpt lat="44.75779" lon="3.76658">
        <ele>979.72235107422</ele>
        <time>2020-10-16T13:06:02.200Z</time>
      </trkpt>
      <trkpt lat="44.75783" lon="3.76661">
        <ele>979.31842041016</ele>
        <time>2020-10-16T13:06:05.214Z</time>
      </trkpt>
      <trkpt lat="44.75788" lon="3.76664">
        <ele>978.84552001953</ele>
        <time>2020-10-16T13:06:08.229Z</time>
      </trkpt>
      <trkpt lat="44.75796" lon="3.76669">
        <ele>978.47216796875</ele>
        <time>2020-10-16T13:06:11.245Z</time>
      </trkpt>
      <trkpt lat="44.75839" lon="3.76696">
        <ele>976.78063964844</ele>
        <time>2020-10-16T13:06:14.271Z</time>
      </trkpt>
      <trkpt lat="44.75844" lon="3.767">
        <ele>976.64239501953</ele>
        <time>2020-10-16T13:06:17.298Z</time>
      </trkpt>
      <trkpt lat="44.75849" lon="3.76703">
        <ele>976.52124023438</ele>
        <time>2020-10-16T13:06:20.326Z</time>
      </trkpt>
      <trkpt lat="44.75854" lon="3.76705">
        <ele>976.41168212891</ele>
        <time>2020-10-16T13:06:23.355Z</time>
      </trkpt>
      <trkpt lat="44.75859" lon="3.76707">
        <ele>976.2880859375</ele>
        <time>2020-10-16T13:06:26.385Z</time>
      </trkpt>
      <trkpt lat="44.75864" lon="3.76709">
        <ele>976.16491699219</ele>
        <time>2020-10-16T13:06:29.416Z</time>
      </trkpt>
      <trkpt lat="44.75868" lon="3.7671">
        <ele>976.07989501953</ele>
        <time>2020-10-16T13:06:32.448Z</time>
      </trkpt>
      <trkpt lat="44.75872" lon="3.76712">
        <ele>975.98760986328</ele>
        <time>2020-10-16T13:06:35.481Z</time>
      </trkpt>
      <trkpt lat="44.75875" lon="3.76715">
        <ele>975.89892578125</ele>
        <time>2020-10-16T13:06:38.515Z</time>
      </trkpt>
      <trkpt lat="44.75878" lon="3.76719">
        <ele>975.82745361328</ele>
        <time>2020-10-16T13:06:41.549Z</time>
      </trkpt>
      <trkpt lat="44.75881" lon="3.76723">
        <ele>975.75787353516</ele>
        <time>2020-10-16T13:06:44.584Z</time>
      </trkpt>
      <trkpt lat="44.75883" lon="3.76728">
        <ele>975.71063232422</ele>
        <time>2020-10-16T13:06:47.620Z</time>
      </trkpt>
      <trkpt lat="44.75885" lon="3.76732">
        <ele>975.66510009766</ele>
        <time>2020-10-16T13:06:50.657Z</time>
      </trkpt>
      <trkpt lat="44.75886" lon="3.76737">
        <ele>975.62994384766</ele>
        <time>2020-10-16T13:06:53.695Z</time>
      </trkpt>
      <trkpt lat="44.75888" lon="3.76743">
        <ele>975.60333251953</ele>
        <time>2020-10-16T13:06:56.733Z</time>
      </trkpt>
      <trkpt lat="44.75889" lon="3.76748">
        <ele>975.58020019531</ele>
        <time>2020-10-16T13:06:59.772Z</time>
      </trkpt>
      <trkpt lat="44.75889" lon="3.76752">
        <ele>975.56207275391</ele>
        <time>2020-10-16T13:07:02.812Z</time>
      </trkpt>
      <trkpt lat="44.7589" lon="3.76757">
        <ele>975.55096435547</ele>
        <time>2020-10-16T13:07:05.853Z</time>
      </trkpt>
      <trkpt lat="44.7589" lon="3.76763">
        <ele>975.544921875</ele>
        <time>2020-10-16T13:07:08.894Z</time>
      </trkpt>
      <trkpt lat="44.7589" lon="3.76772">
        <ele>975.48266601562</ele>
        <time>2020-10-16T13:07:11.937Z</time>
      </trkpt>
      <trkpt lat="44.7589" lon="3.76777">
        <ele>975.18933105469</ele>
        <time>2020-10-16T13:07:14.980Z</time>
      </trkpt>
      <trkpt lat="44.75891" lon="3.76787">
        <ele>974.57116699219</ele>
        <time>2020-10-16T13:07:18.025Z</time>
      </trkpt>
      <trkpt lat="44.75891" lon="3.76796">
        <ele>974.14477539062</ele>
        <time>2020-10-16T13:07:21.071Z</time>
      </trkpt>
      <trkpt lat="44.75893" lon="3.76812">
        <ele>973.46105957031</ele>
        <time>2020-10-16T13:07:24.119Z</time>
      </trkpt>
      <trkpt lat="44.75894" lon="3.76819">
        <ele>973.17291259766</ele>
        <time>2020-10-16T13:07:27.168Z</time>
      </trkpt>
      <trkpt lat="44.75895" lon="3.76826">
        <ele>972.85296630859</ele>
        <time>2020-10-16T13:07:30.218Z</time>
      </trkpt>
      <trkpt lat="44.75896" lon="3.76831">
        <ele>972.65045166016</ele>
        <time>2020-10-16T13:07:33.269Z</time>
      </trkpt>
      <trkpt lat="44.75897" lon="3.76835">
        <ele>972.45227050781</ele>
        <time>2020-10-16T13:07:36.321Z</time>
      </trkpt>
      <trkpt lat="44.75899" lon="3.76836">
        <ele>972.33325195312</ele>
        <time>2020-10-16T13:07:39.373Z</time>
      </trkpt>
      <trkpt lat="44.75901" lon="3.76836">
        <ele>972.21893310547</ele>
        <time>2020-10-16T13:07:42.426Z</time>
      </trkpt>
      <trkpt lat="44.75904" lon="3.76835">
        <ele>972.13677978516</ele>
        <time>2020-10-16T13:07:45.479Z</time>
      </trkpt>
      <trkpt lat="44.75906" lon="3.76833">
        <ele>972.09918212891</ele>
        <time>2020-10-16T13:07:48.533Z</time>
      </trkpt>
      <trkpt lat="44.75908" lon="3.7683">
        <ele>972.07946777344</ele>
        <time>2020-10-16T13:07:51.587Z</time>
      </trkpt>
      <trkpt lat="44.75911" lon="3.76826">
        <ele>972.11254882812</ele>
        <time>2020-10-16T13:07:54.642Z</time>
      </trkpt>
      <trkpt lat="44.75915" lon="3.7682">
        <ele>972.13671875</ele>
        <time>2020-10-16T13:07:57.698Z</time>
      </trkpt>
      <trkpt lat="44.75922" lon="3.76809">
        <ele>972.51580810547</ele>
        <time>2020-10-16T13:08:00.756Z</time>
      </trkpt>
      <trkpt lat="44.75931" lon="3.76796">
        <ele>973.09326171875</ele>
        <time>2020-10-16T13:08:03.817Z</time>
      </trkpt>
      <trkpt lat="44.75942" lon="3.7678">
        <ele>973.76397705078</ele>
        <time>2020-10-16T13:08:06.881Z</time>
      </trkpt>
      <trkpt lat="44.75954" lon="3.76764">
        <ele>974.10040283203</ele>
        <time>2020-10-16T13:08:09.948Z</time>
      </trkpt>
      <trkpt lat="44.75964" lon="3.76749">
        <ele>973.48614501953</ele>
        <time>2020-10-16T13:08:13.018Z</time>
      </trkpt>
      <trkpt lat="44.7597" lon="3.76739">
        <ele>973.09429931641</ele>
        <time>2020-10-16T13:08:16.090Z</time>
      </trkpt>
      <trkpt lat="44.75975" lon="3.76731">
        <ele>972.76843261719</ele>
        <time>2020-10-16T13:08:19.164Z</time>
      </trkpt>
      <trkpt lat="44.7598" lon="3.76722">
        <ele>972.45965576172</ele>
        <time>2020-10-16T13:08:22.239Z</time>
      </trkpt>
      <trkpt lat="44.75985" lon="3.76713">
        <ele>971.86712646484</ele>
        <time>2020-10-16T13:08:25.316Z</time>
      </trkpt>
      <trkpt lat="44.75991" lon="3.76702">
        <ele>970.72137451172</ele>
        <time>2020-10-16T13:08:28.395Z</time>
      </trkpt>
      <trkpt lat="44.75996" lon="3.76692">
        <ele>969.63677978516</ele>
        <time>2020-10-16T13:08:31.476Z</time>
      </trkpt>
      <trkpt lat="44.76004" lon="3.76681">
        <ele>968.16815185547</ele>
        <time>2020-10-16T13:08:34.559Z</time>
      </trkpt>
      <trkpt lat="44.76013" lon="3.7667">
        <ele>966.66564941406</ele>
        <time>2020-10-16T13:08:37.644Z</time>
      </trkpt>
      <trkpt lat="44.76017" lon="3.76664">
        <ele>965.95483398438</ele>
        <time>2020-10-16T13:08:40.730Z</time>
      </trkpt>
      <trkpt lat="44.76021" lon="3.7666">
        <ele>965.47222900391</ele>
        <time>2020-10-16T13:08:43.817Z</time>
      </trkpt>
      <trkpt lat="44.76025" lon="3.76657">
        <ele>964.95239257812</ele>
        <time>2020-10-16T13:08:46.905Z</time>
      </trkpt>
      <trkpt lat="44.76031" lon="3.76652">
        <ele>964.26110839844</ele>
        <time>2020-10-16T13:08:49.995Z</time>
      </trkpt>
      <trkpt lat="44.76052" lon="3.76639">
        <ele>961.55712890625</ele>
        <time>2020-10-16T13:08:53.089Z</time>
      </trkpt>
      <trkpt lat="44.76057" lon="3.76635">
        <ele>960.85791015625</ele>
        <time>2020-10-16T13:08:56.184Z</time>
      </trkpt>
      <trkpt lat="44.76063" lon="3.76628">
        <ele>960.08776855469</ele>
        <time>2020-10-16T13:08:59.281Z</time>
      </trkpt>
      <trkpt lat="44.76066" lon="3.76624">
        <ele>960.11682128906</ele>
        <time>2020-10-16T13:09:02.379Z</time>
      </trkpt>
      <trkpt lat="44.76069" lon="3.76619">
        <ele>960.23168945312</ele>
        <time>2020-10-16T13:09:05.478Z</time>
      </trkpt>
      <trkpt lat="44.76072" lon="3.76614">
        <ele>960.36309814453</ele>
        <time>2020-10-16T13:09:08.578Z</time>
      </trkpt>
      <trkpt lat="44.76076" lon="3.76606">
        <ele>960.58544921875</ele>
        <time>2020-10-16T13:09:11.679Z</time>
      </trkpt>
      <trkpt lat="44.76082" lon="3.76596">
        <ele>960.36492919922</ele>
        <time>2020-10-16T13:09:14.782Z</time>
      </trkpt>
      <trkpt lat="44.76086" lon="3.7659">
        <ele>960.13372802734</ele>
        <time>2020-10-16T13:09:17.886Z</time>
      </trkpt>
      <trkpt lat="44.76091" lon="3.76584">
        <ele>959.81677246094</ele>
        <time>2020-10-16T13:09:20.991Z</time>
      </trkpt>
      <trkpt lat="44.76095" lon="3.7658">
        <ele>959.55816650391</ele>
        <time>2020-10-16T13:09:24.097Z</time>
      </trkpt>
      <trkpt lat="44.76099" lon="3.76578">
        <ele>959.99017333984</ele>
        <time>2020-10-16T13:09:27.204Z</time>
      </trkpt>
      <trkpt lat="44.76103" lon="3.76576">
        <ele>960.57757568359</ele>
        <time>2020-10-16T13:09:30.312Z</time>
      </trkpt>
      <trkpt lat="44.76107" lon="3.76575">
        <ele>961.03869628906</ele>
        <time>2020-10-16T13:09:33.421Z</time>
      </trkpt>
      <trkpt lat="44.7611" lon="3.76575">
        <ele>961.33807373047</ele>
        <time>2020-10-16T13:09:36.531Z</time>
      </trkpt>
      <trkpt lat="44.76114" lon="3.76576">
        <ele>961.43707275391</ele>
        <time>2020-10-16T13:09:39.641Z</time>
      </trkpt>
      <trkpt lat="44.76118" lon="3.76579">
        <ele>961.42205810547</ele>
        <time>2020-10-16T13:09:42.752Z</time>
      </trkpt>
      <trkpt lat="44.76125" lon="3.76585">
        <ele>961.17572021484</ele>
        <time>2020-10-16T13:09:45.865Z</time>
      </trkpt>
      <trkpt lat="44.76136" lon="3.76594">
        <ele>960.91278076172</ele>
        <time>2020-10-16T13:09:48.980Z</time>
      </trkpt>
      <trkpt lat="44.76149" lon="3.76601">
        <ele>961.10882568359</ele>
        <time>2020-10-16T13:09:52.098Z</time>
      </trkpt>
      <trkpt lat="44.76161" lon="3.76603">
        <ele>961.95495605469</ele>
        <time>2020-10-16T13:09:55.219Z</time>
      </trkpt>
      <trkpt lat="44.76166" lon="3.76604">
        <ele>962.38214111328</ele>
        <time>2020-10-16T13:09:58.341Z</time>
      </trkpt>
      <trkpt lat="44.76172" lon="3.76603">
        <ele>963.07293701172</ele>
        <time>2020-10-16T13:10:01.464Z</time>
      </trkpt>
      <trkpt lat="44.76175" lon="3.76601">
        <ele>963.71905517578</ele>
        <time>2020-10-16T13:10:04.588Z</time>
      </trkpt>
      <trkpt lat="44.76177" lon="3.76599">
        <ele>964.15032958984</ele>
        <time>2020-10-16T13:10:07.712Z</time>
      </trkpt>
      <trkpt lat="44.76177" lon="3.76596">
        <ele>964.611328125</ele>
        <time>2020-10-16T13:10:10.836Z</time>
      </trkpt>
      <trkpt lat="44.76177" lon="3.76592">
        <ele>965.21392822266</ele>
        <time>2020-10-16T13:10:13.961Z</time>
      </trkpt>
      <trkpt lat="44.76177" lon="3.76582">
        <ele>966.62542724609</ele>
        <time>2020-10-16T13:10:17.087Z</time>
      </trkpt>
      <trkpt lat="44.76175" lon="3.76572">
        <ele>967.75311279297</ele>
        <time>2020-10-16T13:10:20.215Z</time>
      </trkpt>
      <trkpt lat="44.76173" lon="3.76557">
        <ele>969.48638916016</ele>
        <time>2020-10-16T13:10:23.345Z</time>
      </trkpt>
      <trkpt lat="44.7617" lon="3.7654">
        <ele>971.33251953125</ele>
        <time>2020-10-16T13:10:26.478Z</time>
      </trkpt>
      <trkpt lat="44.7617" lon="3.76532">
        <ele>972.18444824219</ele>
        <time>2020-10-16T13:10:29.612Z</time>
      </trkpt>
      <trkpt lat="44.76166" lon="3.76519">
        <ele>973.51940917969</ele>
        <time>2020-10-16T13:10:32.748Z</time>
      </trkpt>
      <trkpt lat="44.76161" lon="3.76503">
        <ele>975.22430419922</ele>
        <time>2020-10-16T13:10:35.886Z</time>
      </trkpt>
      <trkpt lat="44.7615" lon="3.76483">
        <ele>977.16265869141</ele>
        <time>2020-10-16T13:10:39.028Z</time>
      </trkpt>
      <trkpt lat="44.7614" lon="3.76464">
        <ele>978.89343261719</ele>
        <time>2020-10-16T13:10:42.173Z</time>
      </trkpt>
      <trkpt lat="44.76132" lon="3.76449">
        <ele>980.25372314453</ele>
        <time>2020-10-16T13:10:45.321Z</time>
      </trkpt>
      <trkpt lat="44.76121" lon="3.76426">
        <ele>981.51184082031</ele>
        <time>2020-10-16T13:10:48.473Z</time>
      </trkpt>
      <trkpt lat="44.76111" lon="3.76407">
        <ele>981.2626953125</ele>
        <time>2020-10-16T13:10:51.628Z</time>
      </trkpt>
      <trkpt lat="44.76106" lon="3.76393">
        <ele>981.31182861328</ele>
        <time>2020-10-16T13:10:54.785Z</time>
      </trkpt>
      <trkpt lat="44.76101" lon="3.76378">
        <ele>981.49163818359</ele>
        <time>2020-10-16T13:10:57.945Z</time>
      </trkpt>
      <trkpt lat="44.76096" lon="3.76363">
        <ele>981.59387207031</ele>
        <time>2020-10-16T13:11:01.107Z</time>
      </trkpt>
      <trkpt lat="44.76092" lon="3.76352">
        <ele>981.70928955078</ele>
        <time>2020-10-16T13:11:04.271Z</time>
      </trkpt>
      <trkpt lat="44.76087" lon="3.76341">
        <ele>982.24444580078</ele>
        <time>2020-10-16T13:11:07.437Z</time>
      </trkpt>
      <trkpt lat="44.76077" lon="3.76323">
        <ele>982.69091796875</ele>
        <time>2020-10-16T13:11:10.606Z</time>
      </trkpt>
      <trkpt lat="44.7607" lon="3.76314">
        <ele>982.77606201172</ele>
        <time>2020-10-16T13:11:13.777Z</time>
      </trkpt>
      <trkpt lat="44.7606" lon="3.76301">
        <ele>982.78198242188</ele>
        <time>2020-10-16T13:11:16.950Z</time>
      </trkpt>
      <trkpt lat="44.76054" lon="3.76293">
        <ele>982.85614013672</ele>
        <time>2020-10-16T13:11:20.125Z</time>
      </trkpt>
      <trkpt lat="44.76044" lon="3.76279">
        <ele>983.08288574219</ele>
        <time>2020-10-16T13:11:23.303Z</time>
      </trkpt>
      <trkpt lat="44.76031" lon="3.76257">
        <ele>983.93347167969</ele>
        <time>2020-10-16T13:11:26.485Z</time>
      </trkpt>
      <trkpt lat="44.76024" lon="3.76245">
        <ele>984.66882324219</ele>
        <time>2020-10-16T13:11:29.669Z</time>
      </trkpt>
      <trkpt lat="44.76017" lon="3.76233">
        <ele>985.45501708984</ele>
        <time>2020-10-16T13:11:32.855Z</time>
      </trkpt>
      <trkpt lat="44.76014" lon="3.76225">
        <ele>986.00134277344</ele>
        <time>2020-10-16T13:11:36.043Z</time>
      </trkpt>
      <trkpt lat="44.76007" lon="3.76204">
        <ele>987.50720214844</ele>
        <time>2020-10-16T13:11:39.234Z</time>
      </trkpt>
      <trkpt lat="44.75995" lon="3.7617">
        <ele>989.07861328125</ele>
        <time>2020-10-16T13:11:42.430Z</time>
      </trkpt>
      <trkpt lat="44.7598" lon="3.76131">
        <ele>989.9736328125</ele>
        <time>2020-10-16T13:11:45.633Z</time>
      </trkpt>
      <trkpt lat="44.75976" lon="3.76117">
        <ele>990.30950927734</ele>
        <time>2020-10-16T13:11:48.838Z</time>
      </trkpt>
      <trkpt lat="44.75969" lon="3.76095">
        <ele>991.39514160156</ele>
        <time>2020-10-16T13:11:52.046Z</time>
      </trkpt>
      <trkpt lat="44.75962" lon="3.76075">
        <ele>993.08032226562</ele>
        <time>2020-10-16T13:11:55.258Z</time>
      </trkpt>
      <trkpt lat="44.75957" lon="3.76064">
        <ele>993.9736328125</ele>
        <time>2020-10-16T13:11:58.471Z</time>
      </trkpt>
      <trkpt lat="44.75949" lon="3.76043">
        <ele>995.93725585938</ele>
        <time>2020-10-16T13:12:01.688Z</time>
      </trkpt>
      <trkpt lat="44.7594" lon="3.76019">
        <ele>998.45391845703</ele>
        <time>2020-10-16T13:12:04.909Z</time>
      </trkpt>
      <trkpt lat="44.75933" lon="3.76005">
        <ele>1000.3681030273</ele>
        <time>2020-10-16T13:12:08.132Z</time>
      </trkpt>
      <trkpt lat="44.75928" lon="3.75994">
        <ele>1001.8911743164</ele>
        <time>2020-10-16T13:12:11.357Z</time>
      </trkpt>
      <trkpt lat="44.75917" lon="3.75975">
        <ele>1004.1170654297</ele>
        <time>2020-10-16T13:12:14.585Z</time>
      </trkpt>
      <trkpt lat="44.75911" lon="3.75967">
        <ele>1005.1868286133</ele>
        <time>2020-10-16T13:12:17.815Z</time>
      </trkpt>
      <trkpt lat="44.75898" lon="3.75949">
        <ele>1007.4545898438</ele>
        <time>2020-10-16T13:12:21.049Z</time>
      </trkpt>
      <trkpt lat="44.75888" lon="3.75937">
        <ele>1009.0264282227</ele>
        <time>2020-10-16T13:12:24.285Z</time>
      </trkpt>
      <trkpt lat="44.75881" lon="3.75927">
        <ele>1010.1611938477</ele>
        <time>2020-10-16T13:12:27.523Z</time>
      </trkpt>
      <trkpt lat="44.75877" lon="3.75921">
        <ele>1010.8282470703</ele>
        <time>2020-10-16T13:12:30.762Z</time>
      </trkpt>
      <trkpt lat="44.75869" lon="3.75903">
        <ele>1012.5860595703</ele>
        <time>2020-10-16T13:12:34.004Z</time>
      </trkpt>
      <trkpt lat="44.75857" lon="3.75878">
        <ele>1015.319519043</ele>
        <time>2020-10-16T13:12:37.251Z</time>
      </trkpt>
      <trkpt lat="44.75854" lon="3.75869">
        <ele>1016.1369018555</ele>
        <time>2020-10-16T13:12:40.499Z</time>
      </trkpt>
      <trkpt lat="44.75852" lon="3.75864">
        <ele>1016.660949707</ele>
        <time>2020-10-16T13:12:43.748Z</time>
      </trkpt>
      <trkpt lat="44.7585" lon="3.75855">
        <ele>1017.475769043</ele>
        <time>2020-10-16T13:12:46.998Z</time>
      </trkpt>
      <trkpt lat="44.7585" lon="3.75847">
        <ele>1017.8076171875</ele>
        <time>2020-10-16T13:12:50.250Z</time>
      </trkpt>
      <trkpt lat="44.75851" lon="3.75796">
        <ele>1021.3544311523</ele>
        <time>2020-10-16T13:12:53.509Z</time>
      </trkpt>
      <trkpt lat="44.75851" lon="3.75785">
        <ele>1022.3170166016</ele>
        <time>2020-10-16T13:12:56.769Z</time>
      </trkpt>
      <trkpt lat="44.75851" lon="3.75778">
        <ele>1022.9198608398</ele>
        <time>2020-10-16T13:13:00.030Z</time>
      </trkpt>
      <trkpt lat="44.7585" lon="3.75772">
        <ele>1023.4406738281</ele>
        <time>2020-10-16T13:13:03.292Z</time>
      </trkpt>
      <trkpt lat="44.75848" lon="3.75767">
        <ele>1023.5528564453</ele>
        <time>2020-10-16T13:13:06.555Z</time>
      </trkpt>
      <trkpt lat="44.75842" lon="3.75752">
        <ele>1023.6945800781</ele>
        <time>2020-10-16T13:13:09.820Z</time>
      </trkpt>
      <trkpt lat="44.75833" lon="3.75732">
        <ele>1023.9306640625</ele>
        <time>2020-10-16T13:13:13.089Z</time>
      </trkpt>
      <trkpt lat="44.75829" lon="3.75724">
        <ele>1024.0672607422</ele>
        <time>2020-10-16T13:13:16.359Z</time>
      </trkpt>
      <trkpt lat="44.75827" lon="3.75715">
        <ele>1024.2060546875</ele>
        <time>2020-10-16T13:13:19.631Z</time>
      </trkpt>
      <trkpt lat="44.75821" lon="3.75693">
        <ele>1024.5372314453</ele>
        <time>2020-10-16T13:13:22.906Z</time>
      </trkpt>
      <trkpt lat="44.75818" lon="3.75682">
        <ele>1024.7807617188</ele>
        <time>2020-10-16T13:13:26.183Z</time>
      </trkpt>
      <trkpt lat="44.75815" lon="3.75674">
        <ele>1025.0123291016</ele>
        <time>2020-10-16T13:13:29.461Z</time>
      </trkpt>
      <trkpt lat="44.75807" lon="3.75659">
        <ele>1025.4477539062</ele>
        <time>2020-10-16T13:13:32.742Z</time>
      </trkpt>
      <trkpt lat="44.75785" lon="3.75619">
        <ele>1026.6804199219</ele>
        <time>2020-10-16T13:13:36.030Z</time>
      </trkpt>
      <trkpt lat="44.75765" lon="3.75582">
        <ele>1027.0041503906</ele>
        <time>2020-10-16T13:13:39.324Z</time>
      </trkpt>
      <trkpt lat="44.75754" lon="3.75557">
        <ele>1026.6754150391</ele>
        <time>2020-10-16T13:13:42.623Z</time>
      </trkpt>
      <trkpt lat="44.75746" lon="3.75537">
        <ele>1026.3829345703</ele>
        <time>2020-10-16T13:13:45.925Z</time>
      </trkpt>
      <trkpt lat="44.75736" lon="3.75513">
        <ele>1025.9649658203</ele>
        <time>2020-10-16T13:13:49.231Z</time>
      </trkpt>
      <trkpt lat="44.75727" lon="3.75498">
        <ele>1025.6055908203</ele>
        <time>2020-10-16T13:13:52.540Z</time>
      </trkpt>
      <trkpt lat="44.75735" lon="3.75494">
        <ele>1025.3032226562</ele>
        <time>2020-10-16T13:13:55.850Z</time>
      </trkpt>
      <trkpt lat="44.75743" lon="3.75487">
        <ele>1024.8403320312</ele>
        <time>2020-10-16T13:13:59.162Z</time>
      </trkpt>
      <trkpt lat="44.7575" lon="3.7548">
        <ele>1024.4206542969</ele>
        <time>2020-10-16T13:14:02.476Z</time>
      </trkpt>
      <trkpt lat="44.75754" lon="3.75474">
        <ele>1023.9767456055</ele>
        <time>2020-10-16T13:14:05.791Z</time>
      </trkpt>
      <trkpt lat="44.75758" lon="3.75469">
        <ele>1023.5930786133</ele>
        <time>2020-10-16T13:14:09.107Z</time>
      </trkpt>
      <trkpt lat="44.75765" lon="3.75457">
        <ele>1022.7224121094</ele>
        <time>2020-10-16T13:14:12.425Z</time>
      </trkpt>
      <trkpt lat="44.75772" lon="3.75443">
        <ele>1021.8278198242</ele>
        <time>2020-10-16T13:14:15.746Z</time>
      </trkpt>
      <trkpt lat="44.7578" lon="3.75429">
        <ele>1020.4981079102</ele>
        <time>2020-10-16T13:14:19.069Z</time>
      </trkpt>
      <trkpt lat="44.75795" lon="3.75401">
        <ele>1019.3466796875</ele>
        <time>2020-10-16T13:14:22.397Z</time>
      </trkpt>
      <trkpt lat="44.75806" lon="3.75382">
        <ele>1018.5314331055</ele>
        <time>2020-10-16T13:14:25.729Z</time>
      </trkpt>
      <trkpt lat="44.75822" lon="3.75352">
        <ele>1018.1434936523</ele>
        <time>2020-10-16T13:14:29.066Z</time>
      </trkpt>
      <trkpt lat="44.75841" lon="3.75319">
        <ele>1017.5518188477</ele>
        <time>2020-10-16T13:14:32.409Z</time>
      </trkpt>
      <trkpt lat="44.7585" lon="3.7533">
        <ele>1018.3049316406</ele>
        <time>2020-10-16T13:14:35.755Z</time>
      </trkpt>
      <trkpt lat="44.7586" lon="3.75344">
        <ele>1019.1328125</ele>
        <time>2020-10-16T13:14:39.103Z</time>
      </trkpt>
      <trkpt lat="44.75873" lon="3.75364">
        <ele>1020.104675293</ele>
        <time>2020-10-16T13:14:42.455Z</time>
      </trkpt>
      <trkpt lat="44.75889" lon="3.7539">
        <ele>1019.7621459961</ele>
        <time>2020-10-16T13:14:45.812Z</time>
      </trkpt>
      <trkpt lat="44.75897" lon="3.75401">
        <ele>1019.5827026367</ele>
        <time>2020-10-16T13:14:49.171Z</time>
      </trkpt>
      <trkpt lat="44.75906" lon="3.75414">
        <ele>1019.3559570312</ele>
        <time>2020-10-16T13:14:52.533Z</time>
      </trkpt>
      <trkpt lat="44.75919" lon="3.75432">
        <ele>1018.9852294922</ele>
        <time>2020-10-16T13:14:55.899Z</time>
      </trkpt>
      <trkpt lat="44.75932" lon="3.75451">
        <ele>1018.1884765625</ele>
        <time>2020-10-16T13:14:59.268Z</time>
      </trkpt>
      <trkpt lat="44.75955" lon="3.75482">
        <ele>1016.4279785156</ele>
        <time>2020-10-16T13:15:02.644Z</time>
      </trkpt>
      <trkpt lat="44.75972" lon="3.75505">
        <ele>1014.6943359375</ele>
        <time>2020-10-16T13:15:06.024Z</time>
      </trkpt>
      <trkpt lat="44.75994" lon="3.75509">
        <ele>1012.8198242188</ele>
        <time>2020-10-16T13:15:09.409Z</time>
      </trkpt>
      <trkpt lat="44.76006" lon="3.7551">
        <ele>1011.8342895508</ele>
        <time>2020-10-16T13:15:12.796Z</time>
      </trkpt>
      <trkpt lat="44.76013" lon="3.7551">
        <ele>1011.2105712891</ele>
        <time>2020-10-16T13:15:16.185Z</time>
      </trkpt>
      <trkpt lat="44.76021" lon="3.75508">
        <ele>1010.5249023438</ele>
        <time>2020-10-16T13:15:19.575Z</time>
      </trkpt>
      <trkpt lat="44.76026" lon="3.75506">
        <ele>1010.1853637695</ele>
        <time>2020-10-16T13:15:22.966Z</time>
      </trkpt>
      <trkpt lat="44.76035" lon="3.75502">
        <ele>1009.6373291016</ele>
        <time>2020-10-16T13:15:26.359Z</time>
      </trkpt>
      <trkpt lat="44.76045" lon="3.75497">
        <ele>1009.4950561523</ele>
        <time>2020-10-16T13:15:29.754Z</time>
      </trkpt>
      <trkpt lat="44.76056" lon="3.75491">
        <ele>1009.4905395508</ele>
        <time>2020-10-16T13:15:33.152Z</time>
      </trkpt>
      <trkpt lat="44.76073" lon="3.75485">
        <ele>1009.4408569336</ele>
        <time>2020-10-16T13:15:36.553Z</time>
      </trkpt>
      <trkpt lat="44.76081" lon="3.75482">
        <ele>1009.4249267578</ele>
        <time>2020-10-16T13:15:39.956Z</time>
      </trkpt>
      <trkpt lat="44.76093" lon="3.75476">
        <ele>1008.1662597656</ele>
        <time>2020-10-16T13:15:43.361Z</time>
      </trkpt>
      <trkpt lat="44.76104" lon="3.7547">
        <ele>1006.999206543</ele>
        <time>2020-10-16T13:15:46.769Z</time>
      </trkpt>
      <trkpt lat="44.76113" lon="3.75465">
        <ele>1005.9672241211</ele>
        <time>2020-10-16T13:15:50.179Z</time>
      </trkpt>
      <trkpt lat="44.7612" lon="3.75462">
        <ele>1005.2412719727</ele>
        <time>2020-10-16T13:15:53.590Z</time>
      </trkpt>
      <trkpt lat="44.76145" lon="3.75453">
        <ele>1004.0658569336</ele>
        <time>2020-10-16T13:15:57.006Z</time>
      </trkpt>
      <trkpt lat="44.76155" lon="3.7545">
        <ele>1003.1607666016</ele>
        <time>2020-10-16T13:16:00.424Z</time>
      </trkpt>
      <trkpt lat="44.76166" lon="3.75446">
        <ele>1002.0684204102</ele>
        <time>2020-10-16T13:16:03.845Z</time>
      </trkpt>
      <trkpt lat="44.76171" lon="3.75444">
        <ele>1001.6024169922</ele>
        <time>2020-10-16T13:16:07.267Z</time>
      </trkpt>
      <trkpt lat="44.76177" lon="3.75441">
        <ele>1000.9045410156</ele>
        <time>2020-10-16T13:16:10.690Z</time>
      </trkpt>
      <trkpt lat="44.76184" lon="3.75437">
        <ele>1000.236328125</ele>
        <time>2020-10-16T13:16:14.115Z</time>
      </trkpt>
      <trkpt lat="44.76193" lon="3.75432">
        <ele>999.92944335938</ele>
        <time>2020-10-16T13:16:17.541Z</time>
      </trkpt>
      <trkpt lat="44.76197" lon="3.75431">
        <ele>999.78656005859</ele>
        <time>2020-10-16T13:16:20.968Z</time>
      </trkpt>
      <trkpt lat="44.76208" lon="3.75428">
        <ele>999.66687011719</ele>
        <time>2020-10-16T13:16:24.397Z</time>
      </trkpt>
      <trkpt lat="44.76215" lon="3.75427">
        <ele>999.55688476562</ele>
        <time>2020-10-16T13:16:27.828Z</time>
      </trkpt>
      <trkpt lat="44.76221" lon="3.75425">
        <ele>999.51580810547</ele>
        <time>2020-10-16T13:16:31.260Z</time>
      </trkpt>
      <trkpt lat="44.76225" lon="3.75423">
        <ele>999.52728271484</ele>
        <time>2020-10-16T13:16:34.693Z</time>
      </trkpt>
      <trkpt lat="44.76234" lon="3.75419">
        <ele>999.51281738281</ele>
        <time>2020-10-16T13:16:38.128Z</time>
      </trkpt>
      <trkpt lat="44.76245" lon="3.75415">
        <ele>999.42633056641</ele>
        <time>2020-10-16T13:16:41.565Z</time>
      </trkpt>
      <trkpt lat="44.76252" lon="3.75413">
        <ele>999.37384033203</ele>
        <time>2020-10-16T13:16:45.004Z</time>
      </trkpt>
      <trkpt lat="44.76257" lon="3.75412">
        <ele>999.25268554688</ele>
        <time>2020-10-16T13:16:48.444Z</time>
      </trkpt>
      <trkpt lat="44.76264" lon="3.75411">
        <ele>999.04614257812</ele>
        <time>2020-10-16T13:16:51.885Z</time>
      </trkpt>
      <trkpt lat="44.7627" lon="3.75412">
        <ele>998.78533935547</ele>
        <time>2020-10-16T13:16:55.327Z</time>
      </trkpt>
      <trkpt lat="44.76275" lon="3.75413">
        <ele>998.53076171875</ele>
        <time>2020-10-16T13:16:58.770Z</time>
      </trkpt>
      <trkpt lat="44.76279" lon="3.75415">
        <ele>998.23858642578</ele>
        <time>2020-10-16T13:17:02.214Z</time>
      </trkpt>
      <trkpt lat="44.76282" lon="3.75417">
        <ele>997.94500732422</ele>
        <time>2020-10-16T13:17:05.659Z</time>
      </trkpt>
      <trkpt lat="44.76285" lon="3.75419">
        <ele>997.67279052734</ele>
        <time>2020-10-16T13:17:09.104Z</time>
      </trkpt>
      <trkpt lat="44.76289" lon="3.75421">
        <ele>997.41375732422</ele>
        <time>2020-10-16T13:17:12.550Z</time>
      </trkpt>
      <trkpt lat="44.76301" lon="3.75432">
        <ele>997.26098632812</ele>
        <time>2020-10-16T13:17:15.999Z</time>
      </trkpt>
      <trkpt lat="44.76307" lon="3.75437">
        <ele>997.20947265625</ele>
        <time>2020-10-16T13:17:19.449Z</time>
      </trkpt>
      <trkpt lat="44.76317" lon="3.75444">
        <ele>997.02294921875</ele>
        <time>2020-10-16T13:17:22.902Z</time>
      </trkpt>
      <trkpt lat="44.76325" lon="3.75449">
        <ele>997.00433349609</ele>
        <time>2020-10-16T13:17:26.356Z</time>
      </trkpt>
      <trkpt lat="44.76334" lon="3.75454">
        <ele>997.02270507812</ele>
        <time>2020-10-16T13:17:29.812Z</time>
      </trkpt>
      <trkpt lat="44.76343" lon="3.75457">
        <ele>997.22570800781</ele>
        <time>2020-10-16T13:17:33.270Z</time>
      </trkpt>
      <trkpt lat="44.7635" lon="3.75458">
        <ele>997.45941162109</ele>
        <time>2020-10-16T13:17:36.730Z</time>
      </trkpt>
      <trkpt lat="44.76356" lon="3.7546">
        <ele>997.69677734375</ele>
        <time>2020-10-16T13:17:40.191Z</time>
      </trkpt>
      <trkpt lat="44.76364" lon="3.7546">
        <ele>998.12854003906</ele>
        <time>2020-10-16T13:17:43.653Z</time>
      </trkpt>
      <trkpt lat="44.76371" lon="3.7546">
        <ele>998.55352783203</ele>
        <time>2020-10-16T13:17:47.117Z</time>
      </trkpt>
      <trkpt lat="44.76377" lon="3.75459">
        <ele>998.85314941406</ele>
        <time>2020-10-16T13:17:50.582Z</time>
      </trkpt>
      <trkpt lat="44.76382" lon="3.75457">
        <ele>999.12915039062</ele>
        <time>2020-10-16T13:17:54.048Z</time>
      </trkpt>
      <trkpt lat="44.76389" lon="3.75455">
        <ele>999.52532958984</ele>
        <time>2020-10-16T13:17:57.515Z</time>
      </trkpt>
      <trkpt lat="44.76399" lon="3.75451">
        <ele>999.54125976562</ele>
        <time>2020-10-16T13:18:00.985Z</time>
      </trkpt>
      <trkpt lat="44.76413" lon="3.75445">
        <ele>999.53698730469</ele>
        <time>2020-10-16T13:18:04.457Z</time>
      </trkpt>
      <trkpt lat="44.7643" lon="3.75439">
        <ele>999.48443603516</ele>
        <time>2020-10-16T13:18:07.933Z</time>
      </trkpt>
      <trkpt lat="44.76441" lon="3.75436">
        <ele>999.48358154297</ele>
        <time>2020-10-16T13:18:11.411Z</time>
      </trkpt>
      <trkpt lat="44.76447" lon="3.75436">
        <ele>999.35021972656</ele>
        <time>2020-10-16T13:18:14.890Z</time>
      </trkpt>
      <trkpt lat="44.76453" lon="3.75437">
        <ele>999.12957763672</ele>
        <time>2020-10-16T13:18:18.371Z</time>
      </trkpt>
      <trkpt lat="44.7646" lon="3.75438">
        <ele>999.05529785156</ele>
        <time>2020-10-16T13:18:21.853Z</time>
      </trkpt>
      <trkpt lat="44.7647" lon="3.7544">
        <ele>999.12493896484</ele>
        <time>2020-10-16T13:18:25.337Z</time>
      </trkpt>
      <trkpt lat="44.76483" lon="3.75444">
        <ele>999.19366455078</ele>
        <time>2020-10-16T13:18:28.824Z</time>
      </trkpt>
      <trkpt lat="44.76506" lon="3.75449">
        <ele>999.34259033203</ele>
        <time>2020-10-16T13:18:32.315Z</time>
      </trkpt>
      <trkpt lat="44.76525" lon="3.75454">
        <ele>999.45483398438</ele>
        <time>2020-10-16T13:18:35.810Z</time>
      </trkpt>
      <trkpt lat="44.76532" lon="3.75455">
        <ele>999.50793457031</ele>
        <time>2020-10-16T13:18:39.307Z</time>
      </trkpt>
      <trkpt lat="44.76538" lon="3.75455">
        <ele>999.56805419922</ele>
        <time>2020-10-16T13:18:42.805Z</time>
      </trkpt>
      <trkpt lat="44.76546" lon="3.75454">
        <ele>999.40850830078</ele>
        <time>2020-10-16T13:18:46.305Z</time>
      </trkpt>
      <trkpt lat="44.76552" lon="3.75452">
        <ele>999.32000732422</ele>
        <time>2020-10-16T13:18:49.806Z</time>
      </trkpt>
      <trkpt lat="44.76556" lon="3.7545">
        <ele>999.48651123047</ele>
        <time>2020-10-16T13:18:53.308Z</time>
      </trkpt>
      <trkpt lat="44.76561" lon="3.75447">
        <ele>999.73394775391</ele>
        <time>2020-10-16T13:18:56.811Z</time>
      </trkpt>
      <trkpt lat="44.76567" lon="3.75442">
        <ele>1000.0932617188</ele>
        <time>2020-10-16T13:19:00.315Z</time>
      </trkpt>
      <trkpt lat="44.76574" lon="3.75433">
        <ele>1000.5834960938</ele>
        <time>2020-10-16T13:19:03.821Z</time>
      </trkpt>
      <trkpt lat="44.76583" lon="3.75421">
        <ele>1001.1209106445</ele>
        <time>2020-10-16T13:19:07.329Z</time>
      </trkpt>
      <trkpt lat="44.76593" lon="3.75408">
        <ele>1001.7718505859</ele>
        <time>2020-10-16T13:19:10.840Z</time>
      </trkpt>
      <trkpt lat="44.76599" lon="3.75401">
        <ele>1002.7361450195</ele>
        <time>2020-10-16T13:19:14.353Z</time>
      </trkpt>
      <trkpt lat="44.76603" lon="3.75396">
        <ele>1003.4222412109</ele>
        <time>2020-10-16T13:19:17.867Z</time>
      </trkpt>
      <trkpt lat="44.76611" lon="3.7539">
        <ele>1004.3928222656</ele>
        <time>2020-10-16T13:19:21.383Z</time>
      </trkpt>
      <trkpt lat="44.76619" lon="3.75385">
        <ele>1005.3264160156</ele>
        <time>2020-10-16T13:19:24.900Z</time>
      </trkpt>
      <trkpt lat="44.76625" lon="3.75382">
        <ele>1005.3892822266</ele>
        <time>2020-10-16T13:19:28.419Z</time>
      </trkpt>
      <trkpt lat="44.7663" lon="3.7538">
        <ele>1005.2435913086</ele>
        <time>2020-10-16T13:19:31.939Z</time>
      </trkpt>
      <trkpt lat="44.76635" lon="3.75378">
        <ele>1004.9957275391</ele>
        <time>2020-10-16T13:19:35.460Z</time>
      </trkpt>
      <trkpt lat="44.76639" lon="3.75377">
        <ele>1004.8139038086</ele>
        <time>2020-10-16T13:19:38.982Z</time>
      </trkpt>
      <trkpt lat="44.76643" lon="3.75376">
        <ele>1004.5797729492</ele>
        <time>2020-10-16T13:19:42.504Z</time>
      </trkpt>
      <trkpt lat="44.76646" lon="3.75376">
        <ele>1004.4801025391</ele>
        <time>2020-10-16T13:19:46.027Z</time>
      </trkpt>
      <trkpt lat="44.76652" lon="3.75377">
        <ele>1004.2268676758</ele>
        <time>2020-10-16T13:19:49.551Z</time>
      </trkpt>
      <trkpt lat="44.76672" lon="3.75382">
        <ele>1003.1826782227</ele>
        <time>2020-10-16T13:19:53.079Z</time>
      </trkpt>
      <trkpt lat="44.76678" lon="3.75384">
        <ele>1002.7212524414</ele>
        <time>2020-10-16T13:19:56.608Z</time>
      </trkpt>
      <trkpt lat="44.76685" lon="3.75386">
        <ele>1002.2736816406</ele>
        <time>2020-10-16T13:20:00.139Z</time>
      </trkpt>
      <trkpt lat="44.7669" lon="3.75389">
        <ele>1001.8004150391</ele>
        <time>2020-10-16T13:20:03.671Z</time>
      </trkpt>
      <trkpt lat="44.76697" lon="3.75394">
        <ele>1000.9613647461</ele>
        <time>2020-10-16T13:20:07.205Z</time>
      </trkpt>
      <trkpt lat="44.76702" lon="3.75398">
        <ele>1000.3335571289</ele>
        <time>2020-10-16T13:20:10.740Z</time>
      </trkpt>
      <trkpt lat="44.76706" lon="3.75402">
        <ele>999.71624755859</ele>
        <time>2020-10-16T13:20:14.276Z</time>
      </trkpt>
      <trkpt lat="44.76709" lon="3.75406">
        <ele>999.17205810547</ele>
        <time>2020-10-16T13:20:17.813Z</time>
      </trkpt>
      <trkpt lat="44.76711" lon="3.7541">
        <ele>998.75061035156</ele>
        <time>2020-10-16T13:20:21.350Z</time>
      </trkpt>
      <trkpt lat="44.76713" lon="3.75414">
        <ele>998.17340087891</ele>
        <time>2020-10-16T13:20:24.888Z</time>
      </trkpt>
      <trkpt lat="44.76714" lon="3.75419">
        <ele>997.63116455078</ele>
        <time>2020-10-16T13:20:28.427Z</time>
      </trkpt>
      <trkpt lat="44.76715" lon="3.75423">
        <ele>997.04180908203</ele>
        <time>2020-10-16T13:20:31.966Z</time>
      </trkpt>
      <trkpt lat="44.76716" lon="3.75432">
        <ele>995.85498046875</ele>
        <time>2020-10-16T13:20:35.507Z</time>
      </trkpt>
      <trkpt lat="44.76718" lon="3.7544">
        <ele>994.94964599609</ele>
        <time>2020-10-16T13:20:39.049Z</time>
      </trkpt>
      <trkpt lat="44.7672" lon="3.75446">
        <ele>994.41302490234</ele>
        <time>2020-10-16T13:20:42.592Z</time>
      </trkpt>
      <trkpt lat="44.76723" lon="3.75451">
        <ele>993.98400878906</ele>
        <time>2020-10-16T13:20:46.136Z</time>
      </trkpt>
      <trkpt lat="44.76726" lon="3.75454">
        <ele>993.66674804688</ele>
        <time>2020-10-16T13:20:49.680Z</time>
      </trkpt>
      <trkpt lat="44.76729" lon="3.75458">
        <ele>993.32885742188</ele>
        <time>2020-10-16T13:20:53.225Z</time>
      </trkpt>
      <trkpt lat="44.76734" lon="3.75462">
        <ele>992.98846435547</ele>
        <time>2020-10-16T13:20:56.771Z</time>
      </trkpt>
      <trkpt lat="44.76764" lon="3.75478">
        <ele>991.81127929688</ele>
        <time>2020-10-16T13:21:00.324Z</time>
      </trkpt>
      <trkpt lat="44.7677" lon="3.75481">
        <ele>991.66436767578</ele>
        <time>2020-10-16T13:21:03.878Z</time>
      </trkpt>
      <trkpt lat="44.76777" lon="3.75482">
        <ele>991.62951660156</ele>
        <time>2020-10-16T13:21:07.433Z</time>
      </trkpt>
      <trkpt lat="44.76784" lon="3.75482">
        <ele>991.69635009766</ele>
        <time>2020-10-16T13:21:10.990Z</time>
      </trkpt>
      <trkpt lat="44.76791" lon="3.75481">
        <ele>991.83782958984</ele>
        <time>2020-10-16T13:21:14.548Z</time>
      </trkpt>
      <trkpt lat="44.76799" lon="3.75478">
        <ele>991.95233154297</ele>
        <time>2020-10-16T13:21:18.108Z</time>
      </trkpt>
      <trkpt lat="44.7681" lon="3.75476">
        <ele>992.08642578125</ele>
        <time>2020-10-16T13:21:21.670Z</time>
      </trkpt>
      <trkpt lat="44.76826" lon="3.75471">
        <ele>991.81237792969</ele>
        <time>2020-10-16T13:21:25.235Z</time>
      </trkpt>
      <trkpt lat="44.7684" lon="3.75468">
        <ele>989.86480712891</ele>
        <time>2020-10-16T13:21:28.803Z</time>
      </trkpt>
      <trkpt lat="44.76853" lon="3.75465">
        <ele>988.10223388672</ele>
        <time>2020-10-16T13:21:32.374Z</time>
      </trkpt>
      <trkpt lat="44.76868" lon="3.75462">
        <ele>986.03387451172</ele>
        <time>2020-10-16T13:21:35.948Z</time>
      </trkpt>
      <trkpt lat="44.7688" lon="3.7546">
        <ele>984.84216308594</ele>
        <time>2020-10-16T13:21:39.524Z</time>
      </trkpt>
      <trkpt lat="44.76888" lon="3.7546">
        <ele>984.10650634766</ele>
        <time>2020-10-16T13:21:43.102Z</time>
      </trkpt>
      <trkpt lat="44.76897" lon="3.7546">
        <ele>983.33404541016</ele>
        <time>2020-10-16T13:21:46.682Z</time>
      </trkpt>
      <trkpt lat="44.76903" lon="3.75461">
        <ele>982.73382568359</ele>
        <time>2020-10-16T13:21:50.263Z</time>
      </trkpt>
      <trkpt lat="44.76909" lon="3.75462">
        <ele>982.13537597656</ele>
        <time>2020-10-16T13:21:53.845Z</time>
      </trkpt>
      <trkpt lat="44.76915" lon="3.75464">
        <ele>981.54632568359</ele>
        <time>2020-10-16T13:21:57.428Z</time>
      </trkpt>
      <trkpt lat="44.76931" lon="3.7547">
        <ele>980.12359619141</ele>
        <time>2020-10-16T13:22:01.015Z</time>
      </trkpt>
      <trkpt lat="44.76944" lon="3.75475">
        <ele>978.93682861328</ele>
        <time>2020-10-16T13:22:04.604Z</time>
      </trkpt>
      <trkpt lat="44.76949" lon="3.75477">
        <ele>978.47888183594</ele>
        <time>2020-10-16T13:22:08.194Z</time>
      </trkpt>
      <trkpt lat="44.76956" lon="3.7548">
        <ele>977.93981933594</ele>
        <time>2020-10-16T13:22:11.786Z</time>
      </trkpt>
      <trkpt lat="44.76961" lon="3.75485">
        <ele>977.52056884766</ele>
        <time>2020-10-16T13:22:15.379Z</time>
      </trkpt>
      <trkpt lat="44.76966" lon="3.75491">
        <ele>977.19396972656</ele>
        <time>2020-10-16T13:22:18.973Z</time>
      </trkpt>
      <trkpt lat="44.76971" lon="3.75498">
        <ele>976.97741699219</ele>
        <time>2020-10-16T13:22:22.569Z</time>
      </trkpt>
      <trkpt lat="44.76977" lon="3.75512">
        <ele>976.81811523438</ele>
        <time>2020-10-16T13:22:26.167Z</time>
      </trkpt>
      <trkpt lat="44.76981" lon="3.75519">
        <ele>976.77203369141</ele>
        <time>2020-10-16T13:22:29.766Z</time>
      </trkpt>
      <trkpt lat="44.76983" lon="3.75526">
        <ele>976.33807373047</ele>
        <time>2020-10-16T13:22:33.366Z</time>
      </trkpt>
      <trkpt lat="44.76984" lon="3.75534">
        <ele>975.78918457031</ele>
        <time>2020-10-16T13:22:36.968Z</time>
      </trkpt>
      <trkpt lat="44.76985" lon="3.75542">
        <ele>975.32299804688</ele>
        <time>2020-10-16T13:22:40.571Z</time>
      </trkpt>
      <trkpt lat="44.76985" lon="3.75549">
        <ele>974.99896240234</ele>
        <time>2020-10-16T13:22:44.175Z</time>
      </trkpt>
      <trkpt lat="44.76985" lon="3.75559">
        <ele>974.16400146484</ele>
        <time>2020-10-16T13:22:47.780Z</time>
      </trkpt>
      <trkpt lat="44.76986" lon="3.75563">
        <ele>973.68994140625</ele>
        <time>2020-10-16T13:22:51.386Z</time>
      </trkpt>
      <trkpt lat="44.76988" lon="3.75565">
        <ele>973.34997558594</ele>
        <time>2020-10-16T13:22:54.992Z</time>
      </trkpt>
      <trkpt lat="44.76991" lon="3.75566">
        <ele>973.1005859375</ele>
        <time>2020-10-16T13:22:58.599Z</time>
      </trkpt>
      <trkpt lat="44.76993" lon="3.75566">
        <ele>972.93634033203</ele>
        <time>2020-10-16T13:23:02.206Z</time>
      </trkpt>
      <trkpt lat="44.76996" lon="3.75563">
        <ele>972.98229980469</ele>
        <time>2020-10-16T13:23:05.814Z</time>
      </trkpt>
      <trkpt lat="44.76999" lon="3.75559">
        <ele>972.85992431641</ele>
        <time>2020-10-16T13:23:09.423Z</time>
      </trkpt>
      <trkpt lat="44.77003" lon="3.7555">
        <ele>972.76867675781</ele>
        <time>2020-10-16T13:23:13.033Z</time>
      </trkpt>
      <trkpt lat="44.77008" lon="3.75542">
        <ele>972.59484863281</ele>
        <time>2020-10-16T13:23:16.645Z</time>
      </trkpt>
      <trkpt lat="44.77014" lon="3.75535">
        <ele>972.18048095703</ele>
        <time>2020-10-16T13:23:20.258Z</time>
      </trkpt>
      <trkpt lat="44.7702" lon="3.7553">
        <ele>971.77203369141</ele>
        <time>2020-10-16T13:23:23.873Z</time>
      </trkpt>
      <trkpt lat="44.77028" lon="3.75524">
        <ele>971.07537841797</ele>
        <time>2020-10-16T13:23:27.490Z</time>
      </trkpt>
      <trkpt lat="44.77045" lon="3.75515">
        <ele>969.10900878906</ele>
        <time>2020-10-16T13:23:31.110Z</time>
      </trkpt>
      <trkpt lat="44.77059" lon="3.75511">
        <ele>967.17218017578</ele>
        <time>2020-10-16T13:23:34.733Z</time>
      </trkpt>
      <trkpt lat="44.77064" lon="3.75511">
        <ele>966.54315185547</ele>
        <time>2020-10-16T13:23:38.357Z</time>
      </trkpt>
      <trkpt lat="44.77076" lon="3.75511">
        <ele>964.98718261719</ele>
        <time>2020-10-16T13:23:41.983Z</time>
      </trkpt>
      <trkpt lat="44.77089" lon="3.75511">
        <ele>963.30529785156</ele>
        <time>2020-10-16T13:23:45.612Z</time>
      </trkpt>
      <trkpt lat="44.77094" lon="3.7551">
        <ele>962.64361572266</ele>
        <time>2020-10-16T13:23:49.242Z</time>
      </trkpt>
      <trkpt lat="44.77098" lon="3.75507">
        <ele>962.02850341797</ele>
        <time>2020-10-16T13:23:52.873Z</time>
      </trkpt>
      <trkpt lat="44.77102" lon="3.75504">
        <ele>961.52264404297</ele>
        <time>2020-10-16T13:23:56.505Z</time>
      </trkpt>
      <trkpt lat="44.77106" lon="3.75499">
        <ele>961.19281005859</ele>
        <time>2020-10-16T13:24:00.138Z</time>
      </trkpt>
      <trkpt lat="44.77108" lon="3.75494">
        <ele>961.02557373047</ele>
        <time>2020-10-16T13:24:03.772Z</time>
      </trkpt>
      <trkpt lat="44.77113" lon="3.75485">
        <ele>960.77899169922</ele>
        <time>2020-10-16T13:24:07.407Z</time>
      </trkpt>
      <trkpt lat="44.77116" lon="3.75478">
        <ele>960.59283447266</ele>
        <time>2020-10-16T13:24:11.044Z</time>
      </trkpt>
      <trkpt lat="44.7712" lon="3.7547">
        <ele>960.30859375</ele>
        <time>2020-10-16T13:24:14.682Z</time>
      </trkpt>
      <trkpt lat="44.77126" lon="3.75463">
        <ele>960.34143066406</ele>
        <time>2020-10-16T13:24:18.322Z</time>
      </trkpt>
      <trkpt lat="44.77131" lon="3.75459">
        <ele>960.37957763672</ele>
        <time>2020-10-16T13:24:21.963Z</time>
      </trkpt>
      <trkpt lat="44.77137" lon="3.75455">
        <ele>960.39123535156</ele>
        <time>2020-10-16T13:24:25.605Z</time>
      </trkpt>
      <trkpt lat="44.77143" lon="3.75451">
        <ele>960.30645751953</ele>
        <time>2020-10-16T13:24:29.248Z</time>
      </trkpt>
      <trkpt lat="44.77147" lon="3.75448">
        <ele>960.26214599609</ele>
        <time>2020-10-16T13:24:32.892Z</time>
      </trkpt>
      <trkpt lat="44.77157" lon="3.75455">
        <ele>959.9453125</ele>
        <time>2020-10-16T13:24:36.538Z</time>
      </trkpt>
      <trkpt lat="44.77164" lon="3.75461">
        <ele>959.68853759766</ele>
        <time>2020-10-16T13:24:40.186Z</time>
      </trkpt>
      <trkpt lat="44.77176" lon="3.7547">
        <ele>959.31384277344</ele>
        <time>2020-10-16T13:24:43.837Z</time>
      </trkpt>
      <trkpt lat="44.7718" lon="3.75475">
        <ele>959.12658691406</ele>
        <time>2020-10-16T13:24:47.489Z</time>
      </trkpt>
      <trkpt lat="44.77184" lon="3.75483">
        <ele>958.94659423828</ele>
        <time>2020-10-16T13:24:51.142Z</time>
      </trkpt>
      <trkpt lat="44.77188" lon="3.75491">
        <ele>958.75842285156</ele>
        <time>2020-10-16T13:24:54.797Z</time>
      </trkpt>
      <trkpt lat="44.77194" lon="3.75504">
        <ele>958.45928955078</ele>
        <time>2020-10-16T13:24:58.454Z</time>
      </trkpt>
      <trkpt lat="44.77205" lon="3.75519">
        <ele>958.06121826172</ele>
        <time>2020-10-16T13:25:02.114Z</time>
      </trkpt>
      <trkpt lat="44.77221" lon="3.75539">
        <ele>959.90771484375</ele>
        <time>2020-10-16T13:25:05.778Z</time>
      </trkpt>
      <trkpt lat="44.77241" lon="3.75564">
        <ele>962.36560058594</ele>
        <time>2020-10-16T13:25:09.448Z</time>
      </trkpt>
      <trkpt lat="44.77246" lon="3.75569">
        <ele>962.95166015625</ele>
        <time>2020-10-16T13:25:13.119Z</time>
      </trkpt>
      <trkpt lat="44.77251" lon="3.75573">
        <ele>963.53186035156</ele>
        <time>2020-10-16T13:25:16.791Z</time>
      </trkpt>
      <trkpt lat="44.77256" lon="3.75574">
        <ele>964.11370849609</ele>
        <time>2020-10-16T13:25:20.464Z</time>
      </trkpt>
      <trkpt lat="44.77261" lon="3.75574">
        <ele>964.62994384766</ele>
        <time>2020-10-16T13:25:24.138Z</time>
      </trkpt>
      <trkpt lat="44.77294" lon="3.75576">
        <ele>967.6279296875</ele>
        <time>2020-10-16T13:25:27.819Z</time>
      </trkpt>
      <trkpt lat="44.77316" lon="3.75574">
        <ele>971.22161865234</ele>
        <time>2020-10-16T13:25:31.504Z</time>
      </trkpt>
      <trkpt lat="44.77325" lon="3.7557">
        <ele>972.625</ele>
        <time>2020-10-16T13:25:35.191Z</time>
      </trkpt>
      <trkpt lat="44.77335" lon="3.75564">
        <ele>973.93353271484</ele>
        <time>2020-10-16T13:25:38.880Z</time>
      </trkpt>
      <trkpt lat="44.77341" lon="3.75559">
        <ele>974.74945068359</ele>
        <time>2020-10-16T13:25:42.571Z</time>
      </trkpt>
      <trkpt lat="44.7735" lon="3.75549">
        <ele>975.82025146484</ele>
        <time>2020-10-16T13:25:46.264Z</time>
      </trkpt>
      <trkpt lat="44.77361" lon="3.75539">
        <ele>977.16864013672</ele>
        <time>2020-10-16T13:25:49.959Z</time>
      </trkpt>
      <trkpt lat="44.77369" lon="3.75532">
        <ele>978.09271240234</ele>
        <time>2020-10-16T13:25:53.656Z</time>
      </trkpt>
      <trkpt lat="44.77372" lon="3.75527">
        <ele>978.54156494141</ele>
        <time>2020-10-16T13:25:57.354Z</time>
      </trkpt>
      <trkpt lat="44.77376" lon="3.75517">
        <ele>978.94110107422</ele>
        <time>2020-10-16T13:26:01.054Z</time>
      </trkpt>
      <trkpt lat="44.77381" lon="3.75503">
        <ele>979.49072265625</ele>
        <time>2020-10-16T13:26:04.756Z</time>
      </trkpt>
      <trkpt lat="44.77383" lon="3.75498">
        <ele>979.80017089844</ele>
        <time>2020-10-16T13:26:08.459Z</time>
      </trkpt>
      <trkpt lat="44.77391" lon="3.75493">
        <ele>981.58331298828</ele>
        <time>2020-10-16T13:26:12.164Z</time>
      </trkpt>
      <trkpt lat="44.77398" lon="3.75488">
        <ele>983.07476806641</ele>
        <time>2020-10-16T13:26:15.870Z</time>
      </trkpt>
      <trkpt lat="44.77402" lon="3.75483">
        <ele>983.88854980469</ele>
        <time>2020-10-16T13:26:19.577Z</time>
      </trkpt>
      <trkpt lat="44.77412" lon="3.7546">
        <ele>984.93817138672</ele>
        <time>2020-10-16T13:26:23.288Z</time>
      </trkpt>
      <trkpt lat="44.7742" lon="3.75443">
        <ele>985.48956298828</ele>
        <time>2020-10-16T13:26:27.002Z</time>
      </trkpt>
      <trkpt lat="44.77425" lon="3.75428">
        <ele>985.90576171875</ele>
        <time>2020-10-16T13:26:30.718Z</time>
      </trkpt>
      <trkpt lat="44.77429" lon="3.75405">
        <ele>986.26666259766</ele>
        <time>2020-10-16T13:26:34.438Z</time>
      </trkpt>
      <trkpt lat="44.77432" lon="3.75393">
        <ele>986.2998046875</ele>
        <time>2020-10-16T13:26:38.160Z</time>
      </trkpt>
      <trkpt lat="44.77436" lon="3.75383">
        <ele>986.58215332031</ele>
        <time>2020-10-16T13:26:41.883Z</time>
      </trkpt>
      <trkpt lat="44.77445" lon="3.7536">
        <ele>987.19744873047</ele>
        <time>2020-10-16T13:26:45.610Z</time>
      </trkpt>
      <trkpt lat="44.77454" lon="3.75336">
        <ele>988.47509765625</ele>
        <time>2020-10-16T13:26:49.341Z</time>
      </trkpt>
      <trkpt lat="44.77461" lon="3.75321">
        <ele>990.01245117188</ele>
        <time>2020-10-16T13:26:53.074Z</time>
      </trkpt>
      <trkpt lat="44.77467" lon="3.75307">
        <ele>991.21166992188</ele>
        <time>2020-10-16T13:26:56.810Z</time>
      </trkpt>
      <trkpt lat="44.7747" lon="3.75295">
        <ele>991.74987792969</ele>
        <time>2020-10-16T13:27:00.547Z</time>
      </trkpt>
      <trkpt lat="44.77472" lon="3.75295">
        <ele>992.51037597656</ele>
        <time>2020-10-16T13:27:04.285Z</time>
      </trkpt>
      <trkpt lat="44.77476" lon="3.75292">
        <ele>993.43975830078</ele>
        <time>2020-10-16T13:27:08.024Z</time>
      </trkpt>
      <trkpt lat="44.7748" lon="3.75286">
        <ele>993.6376953125</ele>
        <time>2020-10-16T13:27:11.764Z</time>
      </trkpt>
      <trkpt lat="44.77482" lon="3.75275">
        <ele>993.32281494141</ele>
        <time>2020-10-16T13:27:15.506Z</time>
      </trkpt>
      <trkpt lat="44.77489" lon="3.75243">
        <ele>993.39324951172</ele>
        <time>2020-10-16T13:27:19.252Z</time>
      </trkpt>
      <trkpt lat="44.77492" lon="3.75232">
        <ele>993.60455322266</ele>
        <time>2020-10-16T13:27:23.000Z</time>
      </trkpt>
      <trkpt lat="44.77498" lon="3.75214">
        <ele>994.41705322266</ele>
        <time>2020-10-16T13:27:26.751Z</time>
      </trkpt>
      <trkpt lat="44.77502" lon="3.75204">
        <ele>994.8798828125</ele>
        <time>2020-10-16T13:27:30.504Z</time>
      </trkpt>
      <trkpt lat="44.77505" lon="3.75198">
        <ele>995.29937744141</ele>
        <time>2020-10-16T13:27:34.258Z</time>
      </trkpt>
      <trkpt lat="44.7751" lon="3.75193">
        <ele>996.15686035156</ele>
        <time>2020-10-16T13:27:38.013Z</time>
      </trkpt>
      <trkpt lat="44.77524" lon="3.75178">
        <ele>998.72143554688</ele>
        <time>2020-10-16T13:27:41.771Z</time>
      </trkpt>
      <trkpt lat="44.7753" lon="3.7517">
        <ele>999.34643554688</ele>
        <time>2020-10-16T13:27:45.531Z</time>
      </trkpt>
      <trkpt lat="44.77533" lon="3.7516">
        <ele>999.42504882812</ele>
        <time>2020-10-16T13:27:49.292Z</time>
      </trkpt>
      <trkpt lat="44.77538" lon="3.75146">
        <ele>999.40142822266</ele>
        <time>2020-10-16T13:27:53.056Z</time>
      </trkpt>
      <trkpt lat="44.7754" lon="3.75139">
        <ele>999.88897705078</ele>
        <time>2020-10-16T13:27:56.821Z</time>
      </trkpt>
      <trkpt lat="44.77545" lon="3.7513">
        <ele>1000.922668457</ele>
        <time>2020-10-16T13:28:00.587Z</time>
      </trkpt>
      <trkpt lat="44.7755" lon="3.75123">
        <ele>1002.1244506836</ele>
        <time>2020-10-16T13:28:04.355Z</time>
      </trkpt>
      <trkpt lat="44.77554" lon="3.75116">
        <ele>1002.7817382812</ele>
        <time>2020-10-16T13:28:08.124Z</time>
      </trkpt>
      <trkpt lat="44.77557" lon="3.75108">
        <ele>1002.8062744141</ele>
        <time>2020-10-16T13:28:11.894Z</time>
      </trkpt>
      <trkpt lat="44.77565" lon="3.75082">
        <ele>1002.9517822266</ele>
        <time>2020-10-16T13:28:15.668Z</time>
      </trkpt>
      <trkpt lat="44.7758" lon="3.75044">
        <ele>1003.450012207</ele>
        <time>2020-10-16T13:28:19.449Z</time>
      </trkpt>
      <trkpt lat="44.77593" lon="3.75015">
        <ele>1004.1527099609</ele>
        <time>2020-10-16T13:28:23.235Z</time>
      </trkpt>
      <trkpt lat="44.77613" lon="3.74997">
        <ele>1007.083984375</ele>
        <time>2020-10-16T13:28:27.025Z</time>
      </trkpt>
      <trkpt lat="44.77635" lon="3.74966">
        <ele>1010.2392578125</ele>
        <time>2020-10-16T13:28:30.822Z</time>
      </trkpt>
      <trkpt lat="44.77651" lon="3.74943">
        <ele>1011.6555786133</ele>
        <time>2020-10-16T13:28:34.623Z</time>
      </trkpt>
      <trkpt lat="44.77671" lon="3.74909">
        <ele>1013.4822387695</ele>
        <time>2020-10-16T13:28:38.430Z</time>
      </trkpt>
      <trkpt lat="44.77682" lon="3.74885">
        <ele>1012.0385742188</ele>
        <time>2020-10-16T13:28:42.241Z</time>
      </trkpt>
      <trkpt lat="44.77717" lon="3.7485">
        <ele>1014.0880737305</ele>
        <time>2020-10-16T13:28:46.061Z</time>
      </trkpt>
      <trkpt lat="44.77751" lon="3.74818">
        <ele>1020.4288330078</ele>
        <time>2020-10-16T13:28:49.889Z</time>
      </trkpt>
      <trkpt lat="44.77782" lon="3.74783">
        <ele>1020.9276123047</ele>
        <time>2020-10-16T13:28:53.725Z</time>
      </trkpt>
      <trkpt lat="44.77803" lon="3.74736">
        <ele>1021.3084716797</ele>
        <time>2020-10-16T13:28:57.569Z</time>
      </trkpt>
      <trkpt lat="44.77836" lon="3.7467">
        <ele>1024.8602294922</ele>
        <time>2020-10-16T13:29:01.425Z</time>
      </trkpt>
      <trkpt lat="44.77852" lon="3.74631">
        <ele>1025.2839355469</ele>
        <time>2020-10-16T13:29:05.287Z</time>
      </trkpt>
      <trkpt lat="44.77887" lon="3.74561">
        <ele>1029.37890625</ele>
        <time>2020-10-16T13:29:09.161Z</time>
      </trkpt>
      <trkpt lat="44.77904" lon="3.74532">
        <ele>1032.3737792969</ele>
        <time>2020-10-16T13:29:13.040Z</time>
      </trkpt>
      <trkpt lat="44.77917" lon="3.74499">
        <ele>1035.1848144531</ele>
        <time>2020-10-16T13:29:16.925Z</time>
      </trkpt>
      <trkpt lat="44.77937" lon="3.74455">
        <ele>1036.1998291016</ele>
        <time>2020-10-16T13:29:20.817Z</time>
      </trkpt>
      <trkpt lat="44.77964" lon="3.74384">
        <ele>1039.7111816406</ele>
        <time>2020-10-16T13:29:24.721Z</time>
      </trkpt>
      <trkpt lat="44.77979" lon="3.74347">
        <ele>1042.6177978516</ele>
        <time>2020-10-16T13:29:28.631Z</time>
      </trkpt>
      <trkpt lat="44.77982" lon="3.74319">
        <ele>1045.4051513672</ele>
        <time>2020-10-16T13:29:32.545Z</time>
      </trkpt>
      <trkpt lat="44.77983" lon="3.74257">
        <ele>1048.7200927734</ele>
        <time>2020-10-16T13:29:36.468Z</time>
      </trkpt>
      <trkpt lat="44.77982" lon="3.74223">
        <ele>1051.765625</ele>
        <time>2020-10-16T13:29:40.395Z</time>
      </trkpt>
      <trkpt lat="44.77977" lon="3.74189">
        <ele>1052.6380615234</ele>
        <time>2020-10-16T13:29:44.327Z</time>
      </trkpt>
      <trkpt lat="44.77966" lon="3.74152">
        <ele>1053.9034423828</ele>
        <time>2020-10-16T13:29:48.265Z</time>
      </trkpt>
      <trkpt lat="44.77961" lon="3.74118">
        <ele>1055.7911376953</ele>
        <time>2020-10-16T13:29:52.208Z</time>
      </trkpt>
      <trkpt lat="44.7796" lon="3.74082">
        <ele>1057.4719238281</ele>
        <time>2020-10-16T13:29:56.156Z</time>
      </trkpt>
      <trkpt lat="44.77962" lon="3.7405">
        <ele>1059.2094726562</ele>
        <time>2020-10-16T13:30:00.109Z</time>
      </trkpt>
      <trkpt lat="44.77966" lon="3.74018">
        <ele>1060.5715332031</ele>
        <time>2020-10-16T13:30:04.066Z</time>
      </trkpt>
      <trkpt lat="44.77975" lon="3.73989">
        <ele>1061.3400878906</ele>
        <time>2020-10-16T13:30:08.028Z</time>
      </trkpt>
      <trkpt lat="44.77994" lon="3.73951">
        <ele>1061.5050048828</ele>
        <time>2020-10-16T13:30:11.997Z</time>
      </trkpt>
      <trkpt lat="44.78012" lon="3.73968">
        <ele>1062.0927734375</ele>
        <time>2020-10-16T13:30:15.970Z</time>
      </trkpt>
      <trkpt lat="44.78031" lon="3.7399">
        <ele>1062.8771972656</ele>
        <time>2020-10-16T13:30:19.948Z</time>
      </trkpt>
      <trkpt lat="44.78049" lon="3.74011">
        <ele>1063.7940673828</ele>
        <time>2020-10-16T13:30:23.930Z</time>
      </trkpt>
      <trkpt lat="44.78068" lon="3.74032">
        <ele>1065.0338134766</ele>
        <time>2020-10-16T13:30:27.917Z</time>
      </trkpt>
      <trkpt lat="44.78099" lon="3.74065">
        <ele>1067.4185791016</ele>
        <time>2020-10-16T13:30:31.912Z</time>
      </trkpt>
      <trkpt lat="44.78126" lon="3.74094">
        <ele>1069.4630126953</ele>
        <time>2020-10-16T13:30:35.914Z</time>
      </trkpt>
      <trkpt lat="44.78148" lon="3.74118">
        <ele>1071.5086669922</ele>
        <time>2020-10-16T13:30:39.921Z</time>
      </trkpt>
      <trkpt lat="44.78157" lon="3.74129">
        <ele>1072.482421875</ele>
        <time>2020-10-16T13:30:43.931Z</time>
      </trkpt>
      <trkpt lat="44.78168" lon="3.74141">
        <ele>1073.6624755859</ele>
        <time>2020-10-16T13:30:47.944Z</time>
      </trkpt>
      <trkpt lat="44.78187" lon="3.74161">
        <ele>1075.5573730469</ele>
        <time>2020-10-16T13:30:51.961Z</time>
      </trkpt>
      <trkpt lat="44.78192" lon="3.74165">
        <ele>1075.9689941406</ele>
        <time>2020-10-16T13:30:55.979Z</time>
      </trkpt>
      <trkpt lat="44.782" lon="3.74173">
        <ele>1076.7277832031</ele>
        <time>2020-10-16T13:30:59.999Z</time>
      </trkpt>
      <trkpt lat="44.78224" lon="3.74192">
        <ele>1078.5634765625</ele>
        <time>2020-10-16T13:31:04.025Z</time>
      </trkpt>
      <trkpt lat="44.78247" lon="3.74209">
        <ele>1080.0816650391</ele>
        <time>2020-10-16T13:31:08.056Z</time>
      </trkpt>
      <trkpt lat="44.78256" lon="3.74215">
        <ele>1080.595703125</ele>
        <time>2020-10-16T13:31:12.089Z</time>
      </trkpt>
      <trkpt lat="44.78266" lon="3.74221">
        <ele>1081.1867675781</ele>
        <time>2020-10-16T13:31:16.124Z</time>
      </trkpt>
      <trkpt lat="44.78272" lon="3.74229">
        <ele>1081.8248291016</ele>
        <time>2020-10-16T13:31:20.161Z</time>
      </trkpt>
      <trkpt lat="44.78279" lon="3.7424">
        <ele>1082.6551513672</ele>
        <time>2020-10-16T13:31:24.200Z</time>
      </trkpt>
      <trkpt lat="44.78284" lon="3.74253">
        <ele>1083.6791992188</ele>
        <time>2020-10-16T13:31:28.241Z</time>
      </trkpt>
      <trkpt lat="44.78288" lon="3.74267">
        <ele>1084.7060546875</ele>
        <time>2020-10-16T13:31:32.284Z</time>
      </trkpt>
      <trkpt lat="44.78258" lon="3.74292">
        <ele>1085.5107421875</ele>
        <time>2020-10-16T13:31:36.334Z</time>
      </trkpt>
      <trkpt lat="44.78241" lon="3.74309">
        <ele>1086.0216064453</ele>
        <time>2020-10-16T13:31:40.388Z</time>
      </trkpt>
      <trkpt lat="44.78216" lon="3.74331">
        <ele>1088.7607421875</ele>
        <time>2020-10-16T13:31:44.448Z</time>
      </trkpt>
      <trkpt lat="44.78205" lon="3.74356">
        <ele>1091.0306396484</ele>
        <time>2020-10-16T13:31:48.513Z</time>
      </trkpt>
      <trkpt lat="44.78197" lon="3.74382">
        <ele>1090.9053955078</ele>
        <time>2020-10-16T13:31:52.582Z</time>
      </trkpt>
      <trkpt lat="44.78189" lon="3.74391">
        <ele>1090.3111572266</ele>
        <time>2020-10-16T13:31:56.653Z</time>
      </trkpt>
      <trkpt lat="44.78181" lon="3.74405">
        <ele>1089.7631835938</ele>
        <time>2020-10-16T13:32:00.726Z</time>
      </trkpt>
      <trkpt lat="44.78177" lon="3.74423">
        <ele>1089.9942626953</ele>
        <time>2020-10-16T13:32:04.802Z</time>
      </trkpt>
      <trkpt lat="44.78173" lon="3.74441">
        <ele>1090.2338867188</ele>
        <time>2020-10-16T13:32:08.881Z</time>
      </trkpt>
      <trkpt lat="44.7817" lon="3.74459">
        <ele>1090.3948974609</ele>
        <time>2020-10-16T13:32:12.962Z</time>
      </trkpt>
      <trkpt lat="44.78164" lon="3.74476">
        <ele>1090.0167236328</ele>
        <time>2020-10-16T13:32:17.046Z</time>
      </trkpt>
      <trkpt lat="44.78154" lon="3.74492">
        <ele>1090.3253173828</ele>
        <time>2020-10-16T13:32:21.133Z</time>
      </trkpt>
      <trkpt lat="44.78137" lon="3.74527">
        <ele>1091.1207275391</ele>
        <time>2020-10-16T13:32:25.226Z</time>
      </trkpt>
      <trkpt lat="44.78104" lon="3.74597">
        <ele>1091.2729492188</ele>
        <time>2020-10-16T13:32:29.331Z</time>
      </trkpt>
      <trkpt lat="44.78067" lon="3.74674">
        <ele>1089.8961181641</ele>
        <time>2020-10-16T13:32:33.449Z</time>
      </trkpt>
      <trkpt lat="44.78042" lon="3.74713">
        <ele>1089.6032714844</ele>
        <time>2020-10-16T13:32:37.575Z</time>
      </trkpt>
      <trkpt lat="44.77987" lon="3.74814">
        <ele>1083.3248291016</ele>
        <time>2020-10-16T13:32:41.719Z</time>
      </trkpt>
      <trkpt lat="44.7798" lon="3.74832">
        <ele>1083.7921142578</ele>
        <time>2020-10-16T13:32:45.866Z</time>
      </trkpt>
      <trkpt lat="44.7797" lon="3.74842">
        <ele>1083.6007080078</ele>
        <time>2020-10-16T13:32:50.015Z</time>
      </trkpt>
      <trkpt lat="44.77963" lon="3.74849">
        <ele>1083.4122314453</ele>
        <time>2020-10-16T13:32:54.166Z</time>
      </trkpt>
      <trkpt lat="44.77957" lon="3.74861">
        <ele>1083.3917236328</ele>
        <time>2020-10-16T13:32:58.319Z</time>
      </trkpt>
      <trkpt lat="44.77954" lon="3.7488">
        <ele>1084.6057128906</ele>
        <time>2020-10-16T13:33:02.475Z</time>
      </trkpt>
      <trkpt lat="44.77949" lon="3.74891">
        <ele>1083.9943847656</ele>
        <time>2020-10-16T13:33:06.633Z</time>
      </trkpt>
      <trkpt lat="44.77942" lon="3.74919">
        <ele>1084.1834716797</ele>
        <time>2020-10-16T13:33:10.795Z</time>
      </trkpt>
      <trkpt lat="44.77931" lon="3.74939">
        <ele>1084.6632080078</ele>
        <time>2020-10-16T13:33:14.960Z</time>
      </trkpt>
      <trkpt lat="44.77925" lon="3.7496">
        <ele>1083.9892578125</ele>
        <time>2020-10-16T13:33:19.129Z</time>
      </trkpt>
      <trkpt lat="44.77925" lon="3.74974">
        <ele>1084.0120849609</ele>
        <time>2020-10-16T13:33:23.300Z</time>
      </trkpt>
      <trkpt lat="44.7792" lon="3.74987">
        <ele>1083.4643554688</ele>
        <time>2020-10-16T13:33:27.473Z</time>
      </trkpt>
      <trkpt lat="44.77907" lon="3.75018">
        <ele>1087.8182373047</ele>
        <time>2020-10-16T13:33:31.651Z</time>
      </trkpt>
      <trkpt lat="44.77886" lon="3.75064">
        <ele>1088.5277099609</ele>
        <time>2020-10-16T13:33:35.836Z</time>
      </trkpt>
      <trkpt lat="44.77868" lon="3.75096">
        <ele>1089.9411621094</ele>
        <time>2020-10-16T13:33:40.027Z</time>
      </trkpt>
      <trkpt lat="44.77844" lon="3.75138">
        <ele>1086.7435302734</ele>
        <time>2020-10-16T13:33:44.226Z</time>
      </trkpt>
      <trkpt lat="44.77823" lon="3.75164">
        <ele>1085.5740966797</ele>
        <time>2020-10-16T13:33:48.431Z</time>
      </trkpt>
      <trkpt lat="44.77814" lon="3.75174">
        <ele>1085.8273925781</ele>
        <time>2020-10-16T13:33:52.638Z</time>
      </trkpt>
      <trkpt lat="44.77805" lon="3.75187">
        <ele>1086.1888427734</ele>
        <time>2020-10-16T13:33:56.847Z</time>
      </trkpt>
      <trkpt lat="44.77797" lon="3.75203">
        <ele>1084.8502197266</ele>
        <time>2020-10-16T13:34:01.059Z</time>
      </trkpt>
      <trkpt lat="44.77782" lon="3.75237">
        <ele>1082.4028320312</ele>
        <time>2020-10-16T13:34:05.277Z</time>
      </trkpt>
      <trkpt lat="44.77774" lon="3.75255">
        <ele>1079.9129638672</ele>
        <time>2020-10-16T13:34:09.498Z</time>
      </trkpt>
      <trkpt lat="44.77765" lon="3.75271">
        <ele>1079.2752685547</ele>
        <time>2020-10-16T13:34:13.722Z</time>
      </trkpt>
      <trkpt lat="44.77755" lon="3.75288">
        <ele>1076.6496582031</ele>
        <time>2020-10-16T13:34:17.949Z</time>
      </trkpt>
      <trkpt lat="44.77744" lon="3.75303">
        <ele>1074.0145263672</ele>
        <time>2020-10-16T13:34:22.179Z</time>
      </trkpt>
      <trkpt lat="44.77726" lon="3.7533">
        <ele>1072.7800292969</ele>
        <time>2020-10-16T13:34:26.414Z</time>
      </trkpt>
      <trkpt lat="44.7771" lon="3.75364">
        <ele>1071.7619628906</ele>
        <time>2020-10-16T13:34:30.655Z</time>
      </trkpt>
      <trkpt lat="44.77692" lon="3.75397">
        <ele>1068.9030761719</ele>
        <time>2020-10-16T13:34:34.902Z</time>
      </trkpt>
      <trkpt lat="44.7765" lon="3.75507">
        <ele>1068.2877197266</ele>
        <time>2020-10-16T13:34:39.167Z</time>
      </trkpt>
      <trkpt lat="44.77634" lon="3.75538">
        <ele>1069.1049804688</ele>
        <time>2020-10-16T13:34:43.437Z</time>
      </trkpt>
      <trkpt lat="44.77616" lon="3.75581">
        <ele>1066.0180664062</ele>
        <time>2020-10-16T13:34:47.714Z</time>
      </trkpt>
      <trkpt lat="44.77577" lon="3.75694">
        <ele>1056.9586181641</ele>
        <time>2020-10-16T13:34:52.009Z</time>
      </trkpt>
      <trkpt lat="44.77564" lon="3.75734">
        <ele>1056.6229248047</ele>
        <time>2020-10-16T13:34:56.311Z</time>
      </trkpt>
      <trkpt lat="44.77553" lon="3.75759">
        <ele>1058.1019287109</ele>
        <time>2020-10-16T13:35:00.617Z</time>
      </trkpt>
      <trkpt lat="44.77538" lon="3.7579">
        <ele>1059.3271484375</ele>
        <time>2020-10-16T13:35:04.928Z</time>
      </trkpt>
      <trkpt lat="44.77526" lon="3.75823">
        <ele>1059.42578125</ele>
        <time>2020-10-16T13:35:09.244Z</time>
      </trkpt>
      <trkpt lat="44.77511" lon="3.75863">
        <ele>1059.9265136719</ele>
        <time>2020-10-16T13:35:13.567Z</time>
      </trkpt>
      <trkpt lat="44.77498" lon="3.75911">
        <ele>1059.4309082031</ele>
        <time>2020-10-16T13:35:17.897Z</time>
      </trkpt>
      <trkpt lat="44.77478" lon="3.75957">
        <ele>1060.4028320312</ele>
        <time>2020-10-16T13:35:22.235Z</time>
      </trkpt>
      <trkpt lat="44.7747" lon="3.75971">
        <ele>1060.9545898438</ele>
        <time>2020-10-16T13:35:26.575Z</time>
      </trkpt>
      <trkpt lat="44.77462" lon="3.75992">
        <ele>1062.2019042969</ele>
        <time>2020-10-16T13:35:30.919Z</time>
      </trkpt>
      <trkpt lat="44.77456" lon="3.76027">
        <ele>1064.3089599609</ele>
        <time>2020-10-16T13:35:35.268Z</time>
      </trkpt>
      <trkpt lat="44.77443" lon="3.7606">
        <ele>1063.3059082031</ele>
        <time>2020-10-16T13:35:39.622Z</time>
      </trkpt>
      <trkpt lat="44.7744" lon="3.76077">
        <ele>1063.4443359375</ele>
        <time>2020-10-16T13:35:43.979Z</time>
      </trkpt>
      <trkpt lat="44.77436" lon="3.76094">
        <ele>1062.9525146484</ele>
        <time>2020-10-16T13:35:48.338Z</time>
      </trkpt>
      <trkpt lat="44.77431" lon="3.76117">
        <ele>1062.1730957031</ele>
        <time>2020-10-16T13:35:52.701Z</time>
      </trkpt>
      <trkpt lat="44.77424" lon="3.7614">
        <ele>1061.0720214844</ele>
        <time>2020-10-16T13:35:57.067Z</time>
      </trkpt>
      <trkpt lat="44.77416" lon="3.76159">
        <ele>1060.302734375</ele>
        <time>2020-10-16T13:36:01.436Z</time>
      </trkpt>
      <trkpt lat="44.77407" lon="3.76183">
        <ele>1060.2724609375</ele>
        <time>2020-10-16T13:36:05.809Z</time>
      </trkpt>
      <trkpt lat="44.77401" lon="3.76207">
        <ele>1059.8585205078</ele>
        <time>2020-10-16T13:36:10.186Z</time>
      </trkpt>
      <trkpt lat="44.77396" lon="3.76232">
        <ele>1061.1077880859</ele>
        <time>2020-10-16T13:36:14.567Z</time>
      </trkpt>
      <trkpt lat="44.77392" lon="3.76261">
        <ele>1063.6507568359</ele>
        <time>2020-10-16T13:36:18.952Z</time>
      </trkpt>
      <trkpt lat="44.77382" lon="3.76287">
        <ele>1064.1488037109</ele>
        <time>2020-10-16T13:36:23.341Z</time>
      </trkpt>
      <trkpt lat="44.77373" lon="3.76313">
        <ele>1065.6472167969</ele>
        <time>2020-10-16T13:36:27.734Z</time>
      </trkpt>
      <trkpt lat="44.77363" lon="3.7634">
        <ele>1064.8408203125</ele>
        <time>2020-10-16T13:36:32.132Z</time>
      </trkpt>
      <trkpt lat="44.77351" lon="3.76358">
        <ele>1062.6046142578</ele>
        <time>2020-10-16T13:36:36.533Z</time>
      </trkpt>
      <trkpt lat="44.77343" lon="3.76373">
        <ele>1061.36328125</ele>
        <time>2020-10-16T13:36:40.937Z</time>
      </trkpt>
      <trkpt lat="44.77335" lon="3.76389">
        <ele>1060.2158203125</ele>
        <time>2020-10-16T13:36:45.343Z</time>
      </trkpt>
      <trkpt lat="44.77327" lon="3.76422">
        <ele>1059.0454101562</ele>
        <time>2020-10-16T13:36:49.754Z</time>
      </trkpt>
      <trkpt lat="44.7732" lon="3.76436">
        <ele>1057.2088623047</ele>
        <time>2020-10-16T13:36:54.168Z</time>
      </trkpt>
      <trkpt lat="44.77309" lon="3.76464">
        <ele>1053.5728759766</ele>
        <time>2020-10-16T13:36:58.586Z</time>
      </trkpt>
      <trkpt lat="44.77306" lon="3.76482">
        <ele>1054.4434814453</ele>
        <time>2020-10-16T13:37:03.007Z</time>
      </trkpt>
      <trkpt lat="44.77305" lon="3.76505">
        <ele>1056.1988525391</ele>
        <time>2020-10-16T13:37:07.431Z</time>
      </trkpt>
      <trkpt lat="44.77304" lon="3.76527">
        <ele>1057.3195800781</ele>
        <time>2020-10-16T13:37:11.858Z</time>
      </trkpt>
      <trkpt lat="44.77309" lon="3.76545">
        <ele>1057.5609130859</ele>
        <time>2020-10-16T13:37:16.288Z</time>
      </trkpt>
      <trkpt lat="44.77315" lon="3.76574">
        <ele>1059.8614501953</ele>
        <time>2020-10-16T13:37:20.723Z</time>
      </trkpt>
      <trkpt lat="44.7732" lon="3.76588">
        <ele>1061.1231689453</ele>
        <time>2020-10-16T13:37:25.160Z</time>
      </trkpt>
      <trkpt lat="44.7732" lon="3.76605">
        <ele>1061.6396484375</ele>
        <time>2020-10-16T13:37:29.599Z</time>
      </trkpt>
      <trkpt lat="44.77321" lon="3.76638">
        <ele>1059.9624023438</ele>
        <time>2020-10-16T13:37:34.043Z</time>
      </trkpt>
      <trkpt lat="44.7732" lon="3.76696">
        <ele>1060.5772705078</ele>
        <time>2020-10-16T13:37:38.495Z</time>
      </trkpt>
      <trkpt lat="44.77313" lon="3.76743">
        <ele>1057.4637451172</ele>
        <time>2020-10-16T13:37:42.954Z</time>
      </trkpt>
      <trkpt lat="44.77313" lon="3.76757">
        <ele>1056.7816162109</ele>
        <time>2020-10-16T13:37:47.415Z</time>
      </trkpt>
      <trkpt lat="44.77308" lon="3.76777">
        <ele>1055.7141113281</ele>
        <time>2020-10-16T13:37:51.879Z</time>
      </trkpt>
      <trkpt lat="44.77303" lon="3.768">
        <ele>1054.3255615234</ele>
        <time>2020-10-16T13:37:56.346Z</time>
      </trkpt>
      <trkpt lat="44.77298" lon="3.76812">
        <ele>1052.6706542969</ele>
        <time>2020-10-16T13:38:00.815Z</time>
      </trkpt>
      <trkpt lat="44.77289" lon="3.76837">
        <ele>1049.3983154297</ele>
        <time>2020-10-16T13:38:05.288Z</time>
      </trkpt>
      <trkpt lat="44.77282" lon="3.76859">
        <ele>1046.7670898438</ele>
        <time>2020-10-16T13:38:09.765Z</time>
      </trkpt>
      <trkpt lat="44.77281" lon="3.76873">
        <ele>1045.6693115234</ele>
        <time>2020-10-16T13:38:14.244Z</time>
      </trkpt>
      <trkpt lat="44.7727" lon="3.76896">
        <ele>1042.5860595703</ele>
        <time>2020-10-16T13:38:18.727Z</time>
      </trkpt>
      <trkpt lat="44.77263" lon="3.76908">
        <ele>1040.6553955078</ele>
        <time>2020-10-16T13:38:23.212Z</time>
      </trkpt>
      <trkpt lat="44.77243" lon="3.76951">
        <ele>1034.8289794922</ele>
        <time>2020-10-16T13:38:27.704Z</time>
      </trkpt>
      <trkpt lat="44.77237" lon="3.76972">
        <ele>1032.1772460938</ele>
        <time>2020-10-16T13:38:32.199Z</time>
      </trkpt>
      <trkpt lat="44.7723" lon="3.76985">
        <ele>1030.3057861328</ele>
        <time>2020-10-16T13:38:36.697Z</time>
      </trkpt>
      <trkpt lat="44.77221" lon="3.76991">
        <ele>1028.5380859375</ele>
        <time>2020-10-16T13:38:41.197Z</time>
      </trkpt>
      <trkpt lat="44.77177" lon="3.77017">
        <ele>1021.2144775391</ele>
        <time>2020-10-16T13:38:45.706Z</time>
      </trkpt>
      <trkpt lat="44.77157" lon="3.77029">
        <ele>1020.0610961914</ele>
        <time>2020-10-16T13:38:50.220Z</time>
      </trkpt>
      <trkpt lat="44.77141" lon="3.77045">
        <ele>1019.5865478516</ele>
        <time>2020-10-16T13:38:54.738Z</time>
      </trkpt>
      <trkpt lat="44.77126" lon="3.77064">
        <ele>1023.3941650391</ele>
        <time>2020-10-16T13:38:59.260Z</time>
      </trkpt>
      <trkpt lat="44.77113" lon="3.77088">
        <ele>1026.8977050781</ele>
        <time>2020-10-16T13:39:03.786Z</time>
      </trkpt>
      <trkpt lat="44.77107" lon="3.77099">
        <ele>1028.3663330078</ele>
        <time>2020-10-16T13:39:08.314Z</time>
      </trkpt>
      <trkpt lat="44.77104" lon="3.77127">
        <ele>1030.2349853516</ele>
        <time>2020-10-16T13:39:12.846Z</time>
      </trkpt>
      <trkpt lat="44.77105" lon="3.77164">
        <ele>1032.0734863281</ele>
        <time>2020-10-16T13:39:17.383Z</time>
      </trkpt>
      <trkpt lat="44.77107" lon="3.77182">
        <ele>1033.3527832031</ele>
        <time>2020-10-16T13:39:21.923Z</time>
      </trkpt>
      <trkpt lat="44.77104" lon="3.7722">
        <ele>1034.5769042969</ele>
        <time>2020-10-16T13:39:26.468Z</time>
      </trkpt>
      <trkpt lat="44.77103" lon="3.77237">
        <ele>1034.9670410156</ele>
        <time>2020-10-16T13:39:31.016Z</time>
      </trkpt>
      <trkpt lat="44.77069" lon="3.77315">
        <ele>1036.1590576172</ele>
        <time>2020-10-16T13:39:35.577Z</time>
      </trkpt>
      <trkpt lat="44.77054" lon="3.77353">
        <ele>1037.9849853516</ele>
        <time>2020-10-16T13:39:40.144Z</time>
      </trkpt>
      <trkpt lat="44.77046" lon="3.77369">
        <ele>1038.6239013672</ele>
        <time>2020-10-16T13:39:44.714Z</time>
      </trkpt>
      <trkpt lat="44.77038" lon="3.77401">
        <ele>1039.5384521484</ele>
        <time>2020-10-16T13:39:49.289Z</time>
      </trkpt>
      <trkpt lat="44.77033" lon="3.77429">
        <ele>1039.1224365234</ele>
        <time>2020-10-16T13:39:53.868Z</time>
      </trkpt>
      <trkpt lat="44.77029" lon="3.7746">
        <ele>1039.958984375</ele>
        <time>2020-10-16T13:39:58.451Z</time>
      </trkpt>
      <trkpt lat="44.77017" lon="3.77507">
        <ele>1040.6198730469</ele>
        <time>2020-10-16T13:40:03.041Z</time>
      </trkpt>
      <trkpt lat="44.77008" lon="3.77552">
        <ele>1040.4637451172</ele>
        <time>2020-10-16T13:40:07.638Z</time>
      </trkpt>
      <trkpt lat="44.77001" lon="3.77575">
        <ele>1039.798828125</ele>
        <time>2020-10-16T13:40:12.239Z</time>
      </trkpt>
      <trkpt lat="44.76987" lon="3.77614">
        <ele>1038.5881347656</ele>
        <time>2020-10-16T13:40:16.846Z</time>
      </trkpt>
      <trkpt lat="44.76974" lon="3.77641">
        <ele>1037.4567871094</ele>
        <time>2020-10-16T13:40:21.457Z</time>
      </trkpt>
      <trkpt lat="44.76956" lon="3.77668">
        <ele>1037.0407714844</ele>
        <time>2020-10-16T13:40:26.074Z</time>
      </trkpt>
      <trkpt lat="44.76946" lon="3.77694">
        <ele>1036.0832519531</ele>
        <time>2020-10-16T13:40:30.695Z</time>
      </trkpt>
      <trkpt lat="44.76892" lon="3.77821">
        <ele>1033.9184570312</ele>
        <time>2020-10-16T13:40:35.337Z</time>
      </trkpt>
      <trkpt lat="44.76874" lon="3.77863">
        <ele>1034.5533447266</ele>
        <time>2020-10-16T13:40:39.986Z</time>
      </trkpt>
      <trkpt lat="44.76865" lon="3.77913">
        <ele>1034.9555664062</ele>
        <time>2020-10-16T13:40:44.642Z</time>
      </trkpt>
      <trkpt lat="44.7685" lon="3.77976">
        <ele>1034.5703125</ele>
        <time>2020-10-16T13:40:49.308Z</time>
      </trkpt>
      <trkpt lat="44.76837" lon="3.78007">
        <ele>1035.2702636719</ele>
        <time>2020-10-16T13:40:53.979Z</time>
      </trkpt>
      <trkpt lat="44.76831" lon="3.78032">
        <ele>1036.7469482422</ele>
        <time>2020-10-16T13:40:58.654Z</time>
      </trkpt>
      <trkpt lat="44.76813" lon="3.78083">
        <ele>1038.0084228516</ele>
        <time>2020-10-16T13:41:03.337Z</time>
      </trkpt>
      <trkpt lat="44.7679" lon="3.78126">
        <ele>1038.4376220703</ele>
        <time>2020-10-16T13:41:08.027Z</time>
      </trkpt>
      <trkpt lat="44.76777" lon="3.78138">
        <ele>1036.5349121094</ele>
        <time>2020-10-16T13:41:12.720Z</time>
      </trkpt>
      <trkpt lat="44.7676" lon="3.7817">
        <ele>1033.8724365234</ele>
        <time>2020-10-16T13:41:17.419Z</time>
      </trkpt>
      <trkpt lat="44.76757" lon="3.78191">
        <ele>1034.8074951172</ele>
        <time>2020-10-16T13:41:22.121Z</time>
      </trkpt>
      <trkpt lat="44.76754" lon="3.78201">
        <ele>1034.5710449219</ele>
        <time>2020-10-16T13:41:26.825Z</time>
      </trkpt>
      <trkpt lat="44.76751" lon="3.78211">
        <ele>1034.3510742188</ele>
        <time>2020-10-16T13:41:31.530Z</time>
      </trkpt>
      <trkpt lat="44.76748" lon="3.78221">
        <ele>1034.1444091797</ele>
        <time>2020-10-16T13:41:36.237Z</time>
      </trkpt>
      <trkpt lat="44.76745" lon="3.7823">
        <ele>1033.9708251953</ele>
        <time>2020-10-16T13:41:40.945Z</time>
      </trkpt>
      <trkpt lat="44.76744" lon="3.78235">
        <ele>1034.0126953125</ele>
        <time>2020-10-16T13:41:45.654Z</time>
      </trkpt>
      <trkpt lat="44.76744" lon="3.78246">
        <ele>1034.3005371094</ele>
        <time>2020-10-16T13:41:50.365Z</time>
      </trkpt>
      <trkpt lat="44.76743" lon="3.78263">
        <ele>1034.64453125</ele>
        <time>2020-10-16T13:41:55.078Z</time>
      </trkpt>
      <trkpt lat="44.76741" lon="3.78279">
        <ele>1034.9243164062</ele>
        <time>2020-10-16T13:41:59.793Z</time>
      </trkpt>
      <trkpt lat="44.76736" lon="3.78309">
        <ele>1035.3616943359</ele>
        <time>2020-10-16T13:42:04.513Z</time>
      </trkpt>
      <trkpt lat="44.76735" lon="3.78323">
        <ele>1035.4613037109</ele>
        <time>2020-10-16T13:42:09.235Z</time>
      </trkpt>
      <trkpt lat="44.76735" lon="3.78333">
        <ele>1035.560546875</ele>
        <time>2020-10-16T13:42:13.958Z</time>
      </trkpt>
      <trkpt lat="44.76736" lon="3.78343">
        <ele>1035.7561035156</ele>
        <time>2020-10-16T13:42:18.683Z</time>
      </trkpt>
      <trkpt lat="44.76741" lon="3.78347">
        <ele>1036.1027832031</ele>
        <time>2020-10-16T13:42:23.409Z</time>
      </trkpt>
      <trkpt lat="44.76754" lon="3.78354">
        <ele>1036.9331054688</ele>
        <time>2020-10-16T13:42:28.138Z</time>
      </trkpt>
      <trkpt lat="44.76761" lon="3.7836">
        <ele>1037.5822753906</ele>
        <time>2020-10-16T13:42:32.868Z</time>
      </trkpt>
      <trkpt lat="44.76769" lon="3.78368">
        <ele>1038.3271484375</ele>
        <time>2020-10-16T13:42:37.600Z</time>
      </trkpt>
      <trkpt lat="44.76797" lon="3.78396">
        <ele>1040.1632080078</ele>
        <time>2020-10-16T13:42:42.339Z</time>
      </trkpt>
      <trkpt lat="44.76801" lon="3.78399">
        <ele>1040.1278076172</ele>
        <time>2020-10-16T13:42:47.079Z</time>
      </trkpt>
      <trkpt lat="44.76812" lon="3.78407">
        <ele>1040.0211181641</ele>
        <time>2020-10-16T13:42:51.821Z</time>
      </trkpt>
      <trkpt lat="44.7682" lon="3.7841">
        <ele>1039.8208007812</ele>
        <time>2020-10-16T13:42:56.565Z</time>
      </trkpt>
      <trkpt lat="44.76829" lon="3.78412">
        <ele>1039.5920410156</ele>
        <time>2020-10-16T13:43:01.311Z</time>
      </trkpt>
      <trkpt lat="44.76841" lon="3.78411">
        <ele>1039.1195068359</ele>
        <time>2020-10-16T13:43:06.059Z</time>
      </trkpt>
      <trkpt lat="44.76849" lon="3.78411">
        <ele>1038.6175537109</ele>
        <time>2020-10-16T13:43:10.809Z</time>
      </trkpt>
      <trkpt lat="44.76855" lon="3.78412">
        <ele>1038.1646728516</ele>
        <time>2020-10-16T13:43:15.560Z</time>
      </trkpt>
      <trkpt lat="44.76861" lon="3.78416">
        <ele>1037.9375</ele>
        <time>2020-10-16T13:43:20.313Z</time>
      </trkpt>
      <trkpt lat="44.76869" lon="3.78423">
        <ele>1037.9621582031</ele>
        <time>2020-10-16T13:43:25.067Z</time>
      </trkpt>
      <trkpt lat="44.76876" lon="3.78436">
        <ele>1038.1047363281</ele>
        <time>2020-10-16T13:43:29.824Z</time>
      </trkpt>
      <trkpt lat="44.76883" lon="3.78451">
        <ele>1038.6260986328</ele>
        <time>2020-10-16T13:43:34.583Z</time>
      </trkpt>
      <trkpt lat="44.76887" lon="3.78465">
        <ele>1039.576171875</ele>
        <time>2020-10-16T13:43:39.344Z</time>
      </trkpt>
      <trkpt lat="44.7689" lon="3.78478">
        <ele>1040.6112060547</ele>
        <time>2020-10-16T13:43:44.107Z</time>
      </trkpt>
      <trkpt lat="44.76893" lon="3.78496">
        <ele>1042.3380126953</ele>
        <time>2020-10-16T13:43:48.873Z</time>
      </trkpt>
      <trkpt lat="44.76896" lon="3.78523">
        <ele>1044.91015625</ele>
        <time>2020-10-16T13:43:53.643Z</time>
      </trkpt>
      <trkpt lat="44.76899" lon="3.78537">
        <ele>1045.3161621094</ele>
        <time>2020-10-16T13:43:58.415Z</time>
      </trkpt>
      <trkpt lat="44.76902" lon="3.78547">
        <ele>1045.3559570312</ele>
        <time>2020-10-16T13:44:03.189Z</time>
      </trkpt>
      <trkpt lat="44.76907" lon="3.78554">
        <ele>1045.0334472656</ele>
        <time>2020-10-16T13:44:07.964Z</time>
      </trkpt>
      <trkpt lat="44.76912" lon="3.7856">
        <ele>1044.4058837891</ele>
        <time>2020-10-16T13:44:12.740Z</time>
      </trkpt>
      <trkpt lat="44.76926" lon="3.78556">
        <ele>1041.8669433594</ele>
        <time>2020-10-16T13:44:17.519Z</time>
      </trkpt>
      <trkpt lat="44.76936" lon="3.78552">
        <ele>1039.8715820312</ele>
        <time>2020-10-16T13:44:22.300Z</time>
      </trkpt>
      <trkpt lat="44.76949" lon="3.78547">
        <ele>1037.4422607422</ele>
        <time>2020-10-16T13:44:27.084Z</time>
      </trkpt>
      <trkpt lat="44.76956" lon="3.78545">
        <ele>1036.3278808594</ele>
        <time>2020-10-16T13:44:31.869Z</time>
      </trkpt>
      <trkpt lat="44.76961" lon="3.78545">
        <ele>1035.9427490234</ele>
        <time>2020-10-16T13:44:36.655Z</time>
      </trkpt>
      <trkpt lat="44.76968" lon="3.78547">
        <ele>1035.5327148438</ele>
        <time>2020-10-16T13:44:41.443Z</time>
      </trkpt>
      <trkpt lat="44.76973" lon="3.78548">
        <ele>1035.2545166016</ele>
        <time>2020-10-16T13:44:46.232Z</time>
      </trkpt>
      <trkpt lat="44.76976" lon="3.78547">
        <ele>1034.9916992188</ele>
        <time>2020-10-16T13:44:51.021Z</time>
      </trkpt>
      <trkpt lat="44.76979" lon="3.78546">
        <ele>1034.7088623047</ele>
        <time>2020-10-16T13:44:55.811Z</time>
      </trkpt>
      <trkpt lat="44.76987" lon="3.78564">
        <ele>1035.2595214844</ele>
        <time>2020-10-16T13:45:00.604Z</time>
      </trkpt>
      <trkpt lat="44.76991" lon="3.78578">
        <ele>1035.7655029297</ele>
        <time>2020-10-16T13:45:05.399Z</time>
      </trkpt>
      <trkpt lat="44.76994" lon="3.78596">
        <ele>1036.6019287109</ele>
        <time>2020-10-16T13:45:10.197Z</time>
      </trkpt>
      <trkpt lat="44.77" lon="3.78601">
        <ele>1036.4794921875</ele>
        <time>2020-10-16T13:45:14.996Z</time>
      </trkpt>
      <trkpt lat="44.77003" lon="3.78606">
        <ele>1036.5758056641</ele>
        <time>2020-10-16T13:45:19.796Z</time>
      </trkpt>
      <trkpt lat="44.77004" lon="3.78615">
        <ele>1036.8410644531</ele>
        <time>2020-10-16T13:45:24.597Z</time>
      </trkpt>
      <trkpt lat="44.77003" lon="3.7863">
        <ele>1037.3924560547</ele>
        <time>2020-10-16T13:45:29.400Z</time>
      </trkpt>
      <trkpt lat="44.77003" lon="3.78638">
        <ele>1037.7358398438</ele>
        <time>2020-10-16T13:45:34.205Z</time>
      </trkpt>
      <trkpt lat="44.77002" lon="3.78645">
        <ele>1038.0201416016</ele>
        <time>2020-10-16T13:45:39.011Z</time>
      </trkpt>
      <trkpt lat="44.77" lon="3.78656">
        <ele>1038.5908203125</ele>
        <time>2020-10-16T13:45:43.818Z</time>
      </trkpt>
      <trkpt lat="44.76995" lon="3.78669">
        <ele>1039.4135742188</ele>
        <time>2020-10-16T13:45:48.627Z</time>
      </trkpt>
      <trkpt lat="44.76988" lon="3.78679">
        <ele>1040.2833251953</ele>
        <time>2020-10-16T13:45:53.438Z</time>
      </trkpt>
      <trkpt lat="44.76981" lon="3.78687">
        <ele>1041.0177001953</ele>
        <time>2020-10-16T13:45:58.251Z</time>
      </trkpt>
      <trkpt lat="44.76973" lon="3.78694">
        <ele>1041.7996826172</ele>
        <time>2020-10-16T13:46:03.066Z</time>
      </trkpt>
      <trkpt lat="44.76963" lon="3.78699">
        <ele>1042.6612548828</ele>
        <time>2020-10-16T13:46:07.883Z</time>
      </trkpt>
      <trkpt lat="44.76952" lon="3.78706">
        <ele>1044.0285644531</ele>
        <time>2020-10-16T13:46:12.703Z</time>
      </trkpt>
      <trkpt lat="44.76946" lon="3.7871">
        <ele>1044.8657226562</ele>
        <time>2020-10-16T13:46:17.524Z</time>
      </trkpt>
      <trkpt lat="44.7693" lon="3.78725">
        <ele>1047.5946044922</ele>
        <time>2020-10-16T13:46:22.349Z</time>
      </trkpt>
      <trkpt lat="44.7691" lon="3.78741">
        <ele>1050.3973388672</ele>
        <time>2020-10-16T13:46:27.178Z</time>
      </trkpt>
      <trkpt lat="44.76884" lon="3.78762">
        <ele>1053.5269775391</ele>
        <time>2020-10-16T13:46:32.013Z</time>
      </trkpt>
      <trkpt lat="44.76864" lon="3.78777">
        <ele>1055.4241943359</ele>
        <time>2020-10-16T13:46:36.853Z</time>
      </trkpt>
      <trkpt lat="44.76857" lon="3.78781">
        <ele>1055.8432617188</ele>
        <time>2020-10-16T13:46:41.694Z</time>
      </trkpt>
      <trkpt lat="44.76845" lon="3.78788">
        <ele>1056.5750732422</ele>
        <time>2020-10-16T13:46:46.538Z</time>
      </trkpt>
      <trkpt lat="44.76831" lon="3.78797">
        <ele>1057.3861083984</ele>
        <time>2020-10-16T13:46:51.385Z</time>
      </trkpt>
      <trkpt lat="44.76813" lon="3.78812">
        <ele>1058.3045654297</ele>
        <time>2020-10-16T13:46:56.236Z</time>
      </trkpt>
      <trkpt lat="44.76788" lon="3.78834">
        <ele>1059.2720947266</ele>
        <time>2020-10-16T13:47:01.093Z</time>
      </trkpt>
      <trkpt lat="44.76777" lon="3.78841">
        <ele>1059.9771728516</ele>
        <time>2020-10-16T13:47:05.953Z</time>
      </trkpt>
      <trkpt lat="44.76748" lon="3.78857">
        <ele>1061.2208251953</ele>
        <time>2020-10-16T13:47:10.819Z</time>
      </trkpt>
      <trkpt lat="44.76684" lon="3.7889">
        <ele>1063.3502197266</ele>
        <time>2020-10-16T13:47:15.698Z</time>
      </trkpt>
      <trkpt lat="44.76676" lon="3.78894">
        <ele>1063.6676025391</ele>
        <time>2020-10-16T13:47:20.579Z</time>
      </trkpt>
      <trkpt lat="44.76661" lon="3.78905">
        <ele>1064.2821044922</ele>
        <time>2020-10-16T13:47:25.464Z</time>
      </trkpt>
      <trkpt lat="44.76656" lon="3.78909">
        <ele>1064.4505615234</ele>
        <time>2020-10-16T13:47:30.350Z</time>
      </trkpt>
      <trkpt lat="44.7664" lon="3.78924">
        <ele>1065.1171875</ele>
        <time>2020-10-16T13:47:35.239Z</time>
      </trkpt>
      <trkpt lat="44.76614" lon="3.78947">
        <ele>1066.1520996094</ele>
        <time>2020-10-16T13:47:40.135Z</time>
      </trkpt>
      <trkpt lat="44.76616" lon="3.7895">
        <ele>1065.8431396484</ele>
        <time>2020-10-16T13:47:45.031Z</time>
      </trkpt>
      <trkpt lat="44.7653" lon="3.79043">
        <ele>1071.2330322266</ele>
        <time>2020-10-16T13:47:49.949Z</time>
      </trkpt>
      <trkpt lat="44.76494" lon="3.79114">
        <ele>1066.6046142578</ele>
        <time>2020-10-16T13:47:54.879Z</time>
      </trkpt>
      <trkpt lat="44.76382" lon="3.79283">
        <ele>1064.1143798828</ele>
        <time>2020-10-16T13:47:59.842Z</time>
      </trkpt>
      <trkpt lat="44.76333" lon="3.79432">
        <ele>1061.4041748047</ele>
        <time>2020-10-16T13:48:04.829Z</time>
      </trkpt>
      <trkpt lat="44.76333" lon="3.79432">
        <ele>1061.4045410156</ele>
        <time>2020-10-16T13:48:09.816Z</time>
      </trkpt>
      <trkpt lat="44.76273" lon="3.79572">
        <ele>1050.0397949219</ele>
        <time>2020-10-16T13:48:14.826Z</time>
      </trkpt>
      <trkpt lat="44.76244" lon="3.79668">
        <ele>1046.7537841797</ele>
        <time>2020-10-16T13:48:19.851Z</time>
      </trkpt>
      <trkpt lat="44.76235" lon="3.79714">
        <ele>1047.6145019531</ele>
        <time>2020-10-16T13:48:24.883Z</time>
      </trkpt>
      <trkpt lat="44.7623" lon="3.79786">
        <ele>1048.8303222656</ele>
        <time>2020-10-16T13:48:29.925Z</time>
      </trkpt>
      <trkpt lat="44.76175" lon="3.79913">
        <ele>1038.5887451172</ele>
        <time>2020-10-16T13:48:34.988Z</time>
      </trkpt>
      <trkpt lat="44.76067" lon="3.79999">
        <ele>1027.3043212891</ele>
        <time>2020-10-16T13:48:40.076Z</time>
      </trkpt>
      <trkpt lat="44.76018" lon="3.80007">
        <ele>1019.9259033203</ele>
        <time>2020-10-16T13:48:45.174Z</time>
      </trkpt>
      <trkpt lat="44.75995" lon="3.80026">
        <ele>1016.8987426758</ele>
        <time>2020-10-16T13:48:50.277Z</time>
      </trkpt>
      <trkpt lat="44.75969" lon="3.8007">
        <ele>1014.5131225586</ele>
        <time>2020-10-16T13:48:55.388Z</time>
      </trkpt>
      <trkpt lat="44.75958" lon="3.8011">
        <ele>1016.0164794922</ele>
        <time>2020-10-16T13:49:00.505Z</time>
      </trkpt>
      <trkpt lat="44.75954" lon="3.80147">
        <ele>1013.6826782227</ele>
        <time>2020-10-16T13:49:05.628Z</time>
      </trkpt>
      <trkpt lat="44.75937" lon="3.80186">
        <ele>1007.8395996094</ele>
        <time>2020-10-16T13:49:10.757Z</time>
      </trkpt>
      <trkpt lat="44.75938" lon="3.8026">
        <ele>1001.9610595703</ele>
        <time>2020-10-16T13:49:15.897Z</time>
      </trkpt>
      <trkpt lat="44.75927" lon="3.80288">
        <ele>1001.6730957031</ele>
        <time>2020-10-16T13:49:21.041Z</time>
      </trkpt>
      <trkpt lat="44.75899" lon="3.80313">
        <ele>1000.4307250977</ele>
        <time>2020-10-16T13:49:26.192Z</time>
      </trkpt>
      <trkpt lat="44.75846" lon="3.80279">
        <ele>994.65887451172</ele>
        <time>2020-10-16T13:49:31.355Z</time>
      </trkpt>
      <trkpt lat="44.75786" lon="3.80289">
        <ele>988.28112792969</ele>
        <time>2020-10-16T13:49:36.530Z</time>
      </trkpt>
      <trkpt lat="44.75731" lon="3.8035">
        <ele>981.63690185547</ele>
        <time>2020-10-16T13:49:41.719Z</time>
      </trkpt>
      <trkpt lat="44.75693" lon="3.80423">
        <ele>982.77355957031</ele>
        <time>2020-10-16T13:49:46.921Z</time>
      </trkpt>
      <trkpt lat="44.75673" lon="3.80434">
        <ele>980.16870117188</ele>
        <time>2020-10-16T13:49:52.127Z</time>
      </trkpt>
      <trkpt lat="44.75655" lon="3.80427">
        <ele>976.50158691406</ele>
        <time>2020-10-16T13:49:57.336Z</time>
      </trkpt>
      <trkpt lat="44.75627" lon="3.80506">
        <ele>973.91082763672</ele>
        <time>2020-10-16T13:50:02.558Z</time>
      </trkpt>
      <trkpt lat="44.75624" lon="3.80516">
        <ele>973.51177978516</ele>
        <time>2020-10-16T13:50:07.782Z</time>
      </trkpt>
      <trkpt lat="44.75606" lon="3.80559">
        <ele>971.90258789062</ele>
        <time>2020-10-16T13:50:13.013Z</time>
      </trkpt>
      <trkpt lat="44.75582" lon="3.8059">
        <ele>969.73028564453</ele>
        <time>2020-10-16T13:50:18.250Z</time>
      </trkpt>
      <trkpt lat="44.75518" lon="3.80633">
        <ele>965.93621826172</ele>
        <time>2020-10-16T13:50:23.501Z</time>
      </trkpt>
      <trkpt lat="44.75487" lon="3.80671">
        <ele>965.185546875</ele>
        <time>2020-10-16T13:50:28.761Z</time>
      </trkpt>
      <trkpt lat="44.75292" lon="3.81029">
        <ele>963.83612060547</ele>
        <time>2020-10-16T13:50:34.085Z</time>
      </trkpt>
      <trkpt lat="44.7509" lon="3.81382">
        <ele>952.41949462891</ele>
        <time>2020-10-16T13:50:39.473Z</time>
      </trkpt>
      <trkpt lat="44.75049" lon="3.815">
        <ele>947.08441162109</ele>
        <time>2020-10-16T13:50:44.880Z</time>
      </trkpt>
      <trkpt lat="44.74988" lon="3.81769">
        <ele>952.49420166016</ele>
        <time>2020-10-16T13:50:50.327Z</time>
      </trkpt>
      <trkpt lat="44.74988" lon="3.81769">
        <ele>952.49353027344</ele>
        <time>2020-10-16T13:50:55.774Z</time>
      </trkpt>
      <trkpt lat="44.74822" lon="3.82131">
        <ele>949.169921875</ele>
        <time>2020-10-16T13:51:01.283Z</time>
      </trkpt>
      <trkpt lat="44.74801" lon="3.82274">
        <ele>954.09497070312</ele>
        <time>2020-10-16T13:51:06.813Z</time>
      </trkpt>
      <trkpt lat="44.74801" lon="3.82326">
        <ele>952.34613037109</ele>
        <time>2020-10-16T13:51:12.350Z</time>
      </trkpt>
      <trkpt lat="44.74809" lon="3.82388">
        <ele>946.81091308594</ele>
        <time>2020-10-16T13:51:17.896Z</time>
      </trkpt>
      <trkpt lat="44.74772" lon="3.82656">
        <ele>944.22485351562</ele>
        <time>2020-10-16T13:51:23.481Z</time>
      </trkpt>
      <trkpt lat="44.74764" lon="3.82673">
        <ele>945.3798828125</ele>
        <time>2020-10-16T13:51:29.069Z</time>
      </trkpt>
      <trkpt lat="44.74764" lon="3.82673">
        <ele>945.37957763672</ele>
        <time>2020-10-16T13:51:34.657Z</time>
      </trkpt>
      <trkpt lat="44.74741" lon="3.8267">
        <ele>944.41442871094</ele>
        <time>2020-10-16T13:51:40.249Z</time>
      </trkpt>
      <trkpt lat="44.74721" lon="3.82664">
        <ele>943.42297363281</ele>
        <time>2020-10-16T13:51:45.845Z</time>
      </trkpt>
      <trkpt lat="44.74692" lon="3.8268">
        <ele>943.70275878906</ele>
        <time>2020-10-16T13:51:51.448Z</time>
      </trkpt>
      <trkpt lat="44.74681" lon="3.82697">
        <ele>944.27966308594</ele>
        <time>2020-10-16T13:51:57.054Z</time>
      </trkpt>
      <trkpt lat="44.74649" lon="3.82892">
        <ele>952.44439697266</ele>
        <time>2020-10-16T13:52:02.688Z</time>
      </trkpt>
      <trkpt lat="44.74623" lon="3.82922">
        <ele>950.48669433594</ele>
        <time>2020-10-16T13:52:08.329Z</time>
      </trkpt>
      <trkpt lat="44.74605" lon="3.82928">
        <ele>949.60064697266</ele>
        <time>2020-10-16T13:52:13.974Z</time>
      </trkpt>
      <trkpt lat="44.74517" lon="3.8292">
        <ele>945.79986572266</ele>
        <time>2020-10-16T13:52:19.637Z</time>
      </trkpt>
      <trkpt lat="44.74484" lon="3.82926">
        <ele>944.75720214844</ele>
        <time>2020-10-16T13:52:25.306Z</time>
      </trkpt>
      <trkpt lat="44.74451" lon="3.82944">
        <ele>944.59832763672</ele>
        <time>2020-10-16T13:52:30.982Z</time>
      </trkpt>
      <trkpt lat="44.74357" lon="3.83016">
        <ele>946.17590332031</ele>
        <time>2020-10-16T13:52:36.680Z</time>
      </trkpt>
      <trkpt lat="44.74323" lon="3.83053">
        <ele>946.314453125</ele>
        <time>2020-10-16T13:52:42.386Z</time>
      </trkpt>
      <trkpt lat="44.74239" lon="3.83169">
        <ele>945.35363769531</ele>
        <time>2020-10-16T13:52:48.116Z</time>
      </trkpt>
      <trkpt lat="44.7422" lon="3.83187">
        <ele>943.5</ele>
        <time>2020-10-16T13:52:53.850Z</time>
      </trkpt>
      <trkpt lat="44.7395" lon="3.83308">
        <ele>944.67663574219</ele>
        <time>2020-10-16T13:52:59.641Z</time>
      </trkpt>
      <trkpt lat="44.7395" lon="3.83308">
        <ele>944.67651367188</ele>
        <time>2020-10-16T13:53:05.432Z</time>
      </trkpt>
      <trkpt lat="44.73919" lon="3.83332">
        <ele>945.43603515625</ele>
        <time>2020-10-16T13:53:11.230Z</time>
      </trkpt>
      <trkpt lat="44.739" lon="3.83356">
        <ele>946.36077880859</ele>
        <time>2020-10-16T13:53:17.033Z</time>
      </trkpt>
      <trkpt lat="44.73813" lon="3.8349">
        <ele>956.63836669922</ele>
        <time>2020-10-16T13:53:22.862Z</time>
      </trkpt>
      <trkpt lat="44.73787" lon="3.83469">
        <ele>955.24755859375</ele>
        <time>2020-10-16T13:53:28.697Z</time>
      </trkpt>
      <trkpt lat="44.73772" lon="3.83469">
        <ele>954.70697021484</ele>
        <time>2020-10-16T13:53:34.535Z</time>
      </trkpt>
      <trkpt lat="44.73679" lon="3.83523">
        <ele>953.14910888672</ele>
        <time>2020-10-16T13:53:40.393Z</time>
      </trkpt>
      <trkpt lat="44.73609" lon="3.83473">
        <ele>947.82849121094</ele>
        <time>2020-10-16T13:53:46.267Z</time>
      </trkpt>
      <trkpt lat="44.73567" lon="3.83475">
        <ele>944.96258544922</ele>
        <time>2020-10-16T13:53:52.149Z</time>
      </trkpt>
    </trkseg>
  </trk>
</gpx>